Date StartTime U_cm/s V_cm/s W_cm/s Ustd_cm/s Vstd_cm/s Wstd_cm/s Uvar_(cm/s)^2 Vvar_(cm/s)^2 Wvar_(cm/s)^2 KE_(m/s)^2 TurbulentKE_(m/s)^2 HorizWindSpeed_cm/s FrictionSpeec_cm/s DragCoef SpeedOfSound_m/s SonicTemperature_C Pressure_mb 
01/09/2015  00:00:00      -45.743      -20.800       -1.426       13.548        7.637        5.915      183.538       58.327       34.993        0.140        0.014       50.250        5.132        0.010      333.575        2.980      863.680
01/09/2015  00:01:00      -21.297        1.029        0.458       16.010        8.788        8.853      256.321       77.228       78.380        0.043        0.021       21.322        7.641        0.128      333.535        2.912      863.665
01/09/2015  00:02:00       -6.227       -6.976       -1.274        6.617        4.583        4.825       43.785       21.006       23.285        0.009        0.004        9.350        4.296        0.211      333.599        3.019      863.659
01/09/2015  00:03:00       -5.315      -13.108       -2.847        5.641        4.429        5.899       31.819       19.617       34.793        0.015        0.004       14.145        4.583        0.105      333.742        3.257      863.651
01/09/2015  00:04:00      -34.261      -12.098       -6.324        9.244        4.729        3.840       85.457       22.368       14.748        0.074        0.006       36.334        1.517        0.002      333.748        3.265      863.646
01/09/2015  00:05:00      -37.321        2.421       -2.065        9.252       13.891        7.113       85.594      192.959       50.592        0.087        0.016       37.399        8.389        0.050      333.626        3.065      863.649
01/09/2015  00:06:00      -38.464       17.222       -7.819        8.028        6.474        6.530       64.451       41.909       42.642        0.099        0.007       42.144        2.306        0.003      333.605        3.029      863.661
01/09/2015  00:07:00      -46.620        4.701       -9.608        5.400        6.668        5.748       29.155       44.461       33.037        0.120        0.005       46.856        3.325        0.005      333.705        3.195      863.676
01/09/2015  00:08:00      -40.110       -7.025       -3.438        5.378        8.824        5.329       28.928       77.872       28.403        0.090        0.007       40.721        2.290        0.003      333.638        3.085      863.673
01/09/2015  00:09:00      -49.592       -3.555       -5.184        7.291        5.106        5.108       53.159       26.074       26.089        0.130        0.005       49.720        2.506        0.003      333.577        2.984      863.673
01/09/2015  00:10:00      -33.651      -19.436       -7.782       11.204        8.555        5.788      125.529       73.181       33.496        0.090        0.012       38.861        7.043        0.033      333.648        3.100      863.663
01/09/2015  00:11:00        4.493      -13.172        1.251       11.326        9.387        5.918      128.269       88.121       35.017        0.022        0.013       13.917        4.665        0.112      333.639        3.085      863.647
01/09/2015  00:12:00        8.294        9.852       -1.197        8.202        8.372        9.322       67.269       70.086       86.904        0.020        0.011       12.878        4.701        0.133      333.660        3.121      863.632
01/09/2015  00:13:00        1.277       45.807       -8.704        7.269       11.292        5.026       52.841      127.506       25.263        0.119        0.010       45.825        4.687        0.010      333.708        3.202      863.625
01/09/2015  00:14:00       -8.357       48.309       -5.097       11.769       13.217        4.061      138.520      174.678       16.495        0.138        0.016       49.026        2.980        0.004      333.734        3.241      863.619
01/09/2015  00:15:00      -15.106       41.447       -6.439       12.678       10.507        6.101      160.725      110.403       37.226        0.115        0.015       44.114        4.509        0.010      333.666        3.131      863.614
01/09/2015  00:16:00        5.241       56.143       -4.560        8.922       10.421        4.605       79.607      108.592       21.205        0.170        0.010       56.387        3.272        0.003      333.646        3.099      863.611
01/09/2015  00:17:00       25.519       45.770       -2.094       11.975       17.475       11.487      143.402      305.376      131.947        0.167        0.029       52.403       10.537        0.040      333.602        3.024      863.595
01/09/2015  00:18:00       44.405       31.589        1.499       13.125       12.462       10.666      172.257      155.298      113.770        0.171        0.022       54.494        6.917        0.016      333.523        2.892      863.580
01/09/2015  00:19:00       68.712       29.850       -0.937       19.971       14.084       12.073      398.846      198.357      145.769        0.318        0.037       74.916        3.987        0.003      333.481        2.823      863.570
01/09/2015  00:20:00       80.352       40.434        0.713       14.913       12.871       12.904      222.403      165.666      166.522        0.432        0.028       89.952        7.862        0.008      333.449        2.769      863.567
01/09/2015  00:21:00       81.395       39.533        5.459       17.168       13.787       16.717      294.750      190.069      279.443        0.449        0.038       90.487       11.585        0.016      333.392        2.676      863.571
01/09/2015  00:22:00       58.605       32.585       18.245       24.316       21.132       21.275      591.263      446.582      452.619        0.316        0.075       67.055       14.718        0.048      333.392        2.678      863.576
01/09/2015  00:23:00       68.418       40.319       16.333       14.922       13.472       12.627      222.653      181.490      159.441        0.357        0.028       79.414        8.745        0.012      333.362        2.629      863.590
01/09/2015  00:24:00       67.014       30.677       15.607       21.691       17.142       13.754      470.483      293.834      189.185        0.331        0.048       73.702        7.827        0.011      333.400        2.689      863.599
01/09/2015  00:25:00       23.395       15.112       14.713       10.446       10.723        9.097      109.109      114.976       82.747        0.065        0.015       27.852        6.001        0.046      333.383        2.663      863.607
01/09/2015  00:26:00       15.288       10.577       13.277       10.824        7.482        5.425      117.158       55.978       29.431        0.036        0.010       18.590        6.438        0.120      333.447        2.766      863.622
01/09/2015  00:27:00      -16.792        1.301        2.839        8.850        7.833        5.708       78.326       61.351       32.584        0.023        0.009       16.842        6.178        0.135      333.404        2.696      863.626
01/09/2015  00:28:00      -16.444       -3.003       -1.428        8.190        5.933        5.080       67.081       35.200       25.808        0.020        0.006       16.716        3.734        0.050      333.356        2.617      863.625
01/09/2015  00:29:00       -6.387       -7.382       -1.203        4.507        4.922        3.626       20.315       24.226       13.148        0.008        0.003        9.762        2.992        0.094      333.362        2.627      863.618
01/09/2015  00:30:00      -18.940      -17.496       -4.580        6.549        5.660        5.395       42.884       32.031       29.111        0.039        0.005       25.784        2.272        0.008      333.483        2.827      863.614
01/09/2015  00:31:00      -42.554      -13.632       -5.141       11.104        7.616        5.159      123.300       58.008       26.617        0.112        0.010       44.684        4.593        0.011      333.427        2.736      863.600
01/09/2015  00:32:00      -49.819      -19.431      -11.433        7.065        7.150        5.501       49.919       51.126       30.256        0.156        0.007       53.474        2.445        0.002      333.314        2.547      863.594
01/09/2015  00:33:00      -69.362       -7.200       -7.206       22.121       10.748        8.862      489.344      115.525       78.535        0.280        0.034       69.735        9.882        0.020      333.326        2.567      863.579
01/09/2015  00:34:00      -93.915      -14.478       -7.070       19.245       14.955       10.175      370.370      223.662      103.521        0.489        0.035       95.024        7.219        0.006      333.410        2.705      863.580
01/09/2015  00:35:00     -102.962      -21.713       -5.321       22.396       16.705       12.091      501.563      279.045      146.180        0.601        0.046      105.226        8.744        0.007      333.412        2.707      863.589
01/09/2015  00:36:00     -102.894      -34.208        0.077       20.585       15.024       11.490      423.740      225.724      132.028        0.627        0.039      108.431       10.722        0.010      333.292        2.511      863.594
01/09/2015  00:37:00     -101.596      -26.244       -6.806       12.603       12.011       10.297      158.840      144.262      106.029        0.573        0.020      104.931        7.116        0.005      333.289        2.504      863.593
01/09/2015  00:38:00     -110.610      -17.192      -11.416        6.611        8.439        5.287       43.703       71.211       27.952        0.640        0.007      111.938        2.857        0.001      333.454        2.775      863.585
01/09/2015  00:39:00     -110.958      -12.672      -11.606        7.920       10.635        8.479       62.727      113.095       71.888        0.643        0.012      111.679        2.105        0.000      333.431        2.741      863.573
01/09/2015  00:40:00     -101.686       -7.666       -7.726       35.012       14.764       16.206     1225.850      217.975      262.641        0.608        0.085      101.975       19.664        0.037      333.362        2.626      863.574
01/09/2015  00:41:00      -82.208      -21.544       -2.244       35.062       23.332       16.206     1229.322      544.369      262.639        0.463        0.102       84.985       15.921        0.035      333.281        2.492      863.567
01/09/2015  00:42:00     -104.158      -36.235       -8.535       19.826       17.807       15.266      393.084      317.104      233.064        0.659        0.047      110.281       12.817        0.014      333.164        2.300      863.570
01/09/2015  00:43:00      -92.362      -12.902       -4.722       27.972       25.219       16.685      782.436      636.018      278.404        0.521        0.085       93.258       15.934        0.029      333.194        2.350      863.563
01/09/2015  00:44:00      -84.523      -15.490       -4.427       27.682       20.195       12.788      766.285      407.854      163.545        0.437        0.067       85.931       12.110        0.020      333.197        2.352      863.551
01/09/2015  00:45:00      -46.625        2.919       -3.925       24.582       20.271       14.705      604.285      410.894      216.245        0.171        0.062       46.717       11.912        0.065      333.284        2.498      863.539
01/09/2015  00:46:00      -54.494      -17.660       -6.540       27.491       20.475       15.201      755.763      419.224      231.072        0.236        0.070       57.284       13.669        0.057      333.318        2.554      863.527
01/09/2015  00:47:00      -69.951      -13.341       -5.912       28.613       22.036       12.146      818.705      485.602      147.523        0.328        0.073       71.212       13.442        0.036      333.308        2.537      863.518
01/09/2015  00:48:00      -63.126       -4.580       -3.502       21.132       19.340       12.966      446.544      374.053      168.125        0.250        0.049       63.292       11.344        0.032      333.312        2.543      863.508
01/09/2015  00:49:00      -43.724        0.420      -12.013       26.081       14.576       10.884      680.234      212.459      118.471        0.153        0.051       43.726        9.523        0.047      333.385        2.664      863.497
01/09/2015  00:50:00      -44.213       -8.534       -8.036       21.267       16.551       12.232      452.298      273.927      149.613        0.148        0.044       45.029       11.221        0.062      333.452        2.775      863.485
01/09/2015  00:51:00      -41.404       19.008      -10.720       16.178       25.281       12.050      261.723      639.139      145.202        0.162        0.052       45.559        4.087        0.008      333.575        2.980      863.469
01/09/2015  00:52:00      -38.989       20.776       -5.262       13.455       15.991        9.025      181.040      255.697       81.443        0.125        0.026       44.179        7.631        0.030      333.605        3.030      863.465
01/09/2015  00:53:00      -35.137       11.307       -3.263       13.635       10.827        6.374      185.907      117.224       40.633        0.086        0.017       36.911        5.734        0.024      333.550        2.938      863.459
01/09/2015  00:54:00      -17.234       -0.239        2.107       10.772       14.023        8.055      116.025      196.644       64.891        0.034        0.019       17.235        3.494        0.041      333.634        3.079      863.448
01/09/2015  00:55:00      -38.971      -14.841       -4.715        9.264       10.939        7.771       85.825      119.673       60.385        0.101        0.013       41.701        2.704        0.004      333.453        2.778      863.435
01/09/2015  00:56:00      -36.809      -11.346       -8.892       11.482       15.138        9.980      131.837      229.166       99.591        0.101        0.023       38.518        9.462        0.060      333.495        2.847      863.424
01/09/2015  00:57:00      -34.725      -22.904       -4.946       10.165        8.063        6.696      103.326       65.015       44.832        0.098        0.011       41.599        4.996        0.014      333.516        2.883      863.409
01/09/2015  00:58:00      -26.610      -15.849       -0.915        8.599        9.632        6.461       73.945       92.777       41.749        0.058        0.010       30.972        5.390        0.030      333.479        2.818      863.397
01/09/2015  00:59:00      -22.978      -16.456       -3.043        8.968        8.281        4.233       80.429       68.569       17.917        0.049        0.008       28.262        1.729        0.004      333.543        2.926      863.385
01/09/2015  01:00:00      -33.044      -19.121       -2.512        9.493       12.449        8.418       90.114      154.972       70.856        0.089        0.016       38.178        5.541        0.021      333.507        2.869      863.377
01/09/2015  01:01:00      -27.950      -27.199        0.400       13.200       10.401        9.241      174.246      108.190       85.405        0.094        0.018       39.000        4.422        0.013      333.494        2.847      863.369
01/09/2015  01:02:00      -42.756      -27.725       -7.432       12.587       12.530       11.948      158.433      157.002      142.747        0.156        0.023       50.959        6.043        0.014      333.263        2.461      863.362
01/09/2015  01:03:00      -56.260      -30.102      -11.178       21.476       17.102       10.897      461.221      292.481      118.741        0.253        0.044       63.806        6.611        0.011      333.210        2.374      863.367
01/09/2015  01:04:00      -70.873      -31.024       -7.815       12.898       13.269        8.920      166.365      176.077       79.566        0.323        0.021       77.366        3.147        0.002      333.159        2.291      863.367
01/09/2015  01:05:00      -91.008      -15.516       -9.966       18.505       14.820       12.215      342.447      219.647      149.202        0.467        0.036       92.321        9.992        0.012      333.262        2.460      863.377
01/09/2015  01:06:00      -83.854      -32.951       -5.507       22.758       14.572       14.734      517.945      212.348      217.102        0.455        0.047       90.096       15.372        0.029      333.140        2.258      863.384
01/09/2015  01:07:00      -68.621      -19.048       -8.976       14.935       12.207       10.539      223.047      149.015      111.075        0.282        0.024       71.216        9.344        0.017      333.198        2.355      863.383
01/09/2015  01:08:00      -56.447      -20.789       -5.713       21.849       17.475       12.711      477.388      305.383      161.569        0.230        0.047       60.154       12.009        0.040      333.208        2.372      863.387
01/09/2015  01:09:00      -79.502      -20.335      -11.613       18.004       13.116        9.156      324.135      172.023       83.834        0.372        0.029       82.061        8.497        0.011      333.273        2.480      863.378
01/09/2015  01:10:00      -79.074      -37.101       -8.547       12.515       10.253       11.892      156.617      105.123      141.410        0.405        0.020       87.345        9.023        0.011      333.263        2.463      863.376
01/09/2015  01:11:00      -85.713      -37.569      -10.660       14.067       10.163        9.251      197.880      103.281       85.580        0.463        0.019       93.585        5.859        0.004      333.327        2.569      863.371
01/09/2015  01:12:00      -95.980      -32.651       -9.354       15.670       12.356        6.882      245.540      152.679       47.360        0.541        0.022      101.382        5.410        0.003      333.342        2.594      863.373
01/09/2015  01:13:00      -99.561      -29.814      -10.575       24.931       16.199       11.099      621.555      262.395      123.187        0.596        0.050      103.929        6.577        0.004      333.389        2.672      863.380
01/09/2015  01:14:00     -117.832      -25.714      -12.620       13.005       21.789       12.926      169.140      474.771      167.087        0.776        0.041      120.606        5.590        0.002      333.403        2.695      863.389
01/09/2015  01:15:00     -111.382      -12.089      -13.945       23.875       17.981       18.726      570.004      323.332      350.647        0.700        0.062      112.036       12.455        0.012      333.410        2.706      863.410
01/09/2015  01:16:00     -129.192      -13.114      -16.298       18.201       12.563       10.810      331.267      157.828      116.847        0.887        0.030      129.856        7.640        0.003      333.409        2.705      863.420
01/09/2015  01:17:00     -103.561      -25.783       -9.797       22.928       17.944       15.056      525.688      321.997      226.683        0.628        0.054      106.722       12.602        0.014      333.323        2.564      863.433
01/09/2015  01:18:00      -99.766      -21.329      -11.399       32.080       14.471       14.607     1029.145      209.423      213.352        0.599        0.073      102.021       13.391        0.017      333.311        2.544      863.435
01/09/2015  01:19:00     -107.007      -15.847      -13.868       10.356       12.330        9.858      107.237      152.034       97.181        0.613        0.018      108.174        5.820        0.003      333.341        2.594      863.429
01/09/2015  01:20:00     -107.036      -22.607      -15.505       18.276        9.918       10.002      334.005       98.369      100.042        0.637        0.027      109.397        9.731        0.008      333.398        2.685      863.419
01/09/2015  01:21:00     -114.017      -13.654      -14.783       14.198       12.974        8.769      201.587      168.324       76.899        0.693        0.022      114.832        4.896        0.002      333.361        2.624      863.417
01/09/2015  01:22:00      -97.624      -33.580      -14.363        9.694        9.445        8.249       93.974       89.202       68.049        0.556        0.013      103.238        5.876        0.003      333.304        2.532      863.416
01/09/2015  01:23:00      -91.214      -33.613      -11.597        6.739        8.011        8.632       45.414       64.175       74.509        0.488        0.009       97.211        4.256        0.002      333.309        2.539      863.421
01/09/2015  01:24:00     -100.908      -35.880      -11.886       11.745       13.504        9.373      137.948      182.363       87.851        0.601        0.020      107.097        5.075        0.002      333.322        2.561      863.420
01/09/2015  01:25:00     -100.536      -36.936      -13.388        7.311        9.202        6.446       53.453       84.679       41.551        0.592        0.009      107.107        4.458        0.002      333.334        2.581      863.422
01/09/2015  01:26:00     -107.365      -31.576      -17.805        8.498       10.091        5.449       72.220      101.823       29.686        0.652        0.010      111.912        3.292        0.001      333.308        2.538      863.420
01/09/2015  01:27:00     -102.875      -17.482      -15.313       13.971       10.965       10.273      195.196      120.225      105.538        0.577        0.021      104.350        8.492        0.007      333.280        2.490      863.418
01/09/2015  01:28:00      -95.664      -21.029      -13.032        9.974       10.345        6.805       99.487      107.020       46.307        0.501        0.013       97.948        2.948        0.001      333.248        2.438      863.415
01/09/2015  01:29:00      -88.816      -16.928      -13.635        9.123        8.557        7.409       83.223       73.217       54.888        0.429        0.011       90.415        3.801        0.002      333.205        2.365      863.407
01/09/2015  01:30:00      -89.649      -21.586       -9.605       15.286       14.732       11.814      233.660      217.030      139.568        0.459        0.030       92.211        7.275        0.006      333.188        2.338      863.402
01/09/2015  01:31:00      -84.582      -17.322       -9.030       15.494       15.914       11.390      240.069      253.246      129.739        0.408        0.031       86.337        5.356        0.004      333.349        2.605      863.397
01/09/2015  01:32:00      -73.444      -25.998      -11.396       14.436       16.286       10.326      208.396      265.222      106.624        0.339        0.029       77.910        8.215        0.011      333.321        2.559      863.400
01/09/2015  01:33:00      -71.633      -39.043       -2.927       16.170       10.449       10.277      261.480      109.190      105.623        0.357        0.024       81.582        5.629        0.005      333.193        2.346      863.409
01/09/2015  01:34:00      -83.254      -33.897      -11.869       13.101       15.080       11.201      171.630      227.400      125.467        0.437        0.026       89.890        8.065        0.008      333.175        2.318      863.413
01/09/2015  01:35:00      -99.588      -33.470      -11.709       13.918       16.160       12.275      193.706      261.135      150.670        0.589        0.030      105.062        4.617        0.002      333.097        2.189      863.421
01/09/2015  01:36:00     -112.628      -46.718      -14.030       13.316       18.815       11.816      177.327      353.991      139.616        0.787        0.034      121.933        7.464        0.004      333.048        2.106      863.427
01/09/2015  01:37:00     -132.947      -39.989       -8.167       16.443       16.254       13.663      270.361      264.195      186.675        1.003        0.036      138.831       10.477        0.006      333.097        2.189      863.431
01/09/2015  01:38:00     -128.731      -44.698       -5.772       19.180       18.077       12.698      367.879      326.773      161.250        0.973        0.043      136.271       10.828        0.006      333.098        2.191      863.437
01/09/2015  01:39:00     -115.497      -45.761       -8.410       15.103        9.756        9.880      228.103       95.183       97.615        0.796        0.021      124.232        5.088        0.002      333.086        2.170      863.439
01/09/2015  01:40:00     -113.388      -25.049       -8.462       22.611       19.860       13.085      511.269      394.405      171.210        0.732        0.054      116.122       12.806        0.012      333.142        2.263      863.441
01/09/2015  01:41:00     -111.295      -34.035       -5.141       11.292       18.545       10.603      127.506      343.901      112.421        0.708        0.029      116.382        6.488        0.003      333.152        2.279      863.453
01/09/2015  01:42:00     -113.225      -32.137       -0.253       16.883       14.016       12.739      285.036      196.435      162.288        0.725        0.032      117.698        8.658        0.005      333.118        2.223      863.459
01/09/2015  01:43:00      -98.509      -17.543       -5.373       30.423       15.025       15.698      925.579      225.753      246.438        0.572        0.070      100.059       15.328        0.023      333.101        2.196      863.459
01/09/2015  01:44:00     -119.803      -32.777       -3.559       19.340       17.298       11.853      374.023      299.226      140.499        0.813        0.041      124.206        9.586        0.006      333.148        2.272      863.461
01/09/2015  01:45:00     -117.730      -44.175       -5.947       11.262       16.338       10.271      126.829      266.923      105.484        0.817        0.025      125.744        6.938        0.003      333.163        2.298      863.465
01/09/2015  01:46:00     -112.155      -44.230       -2.162       14.840       13.216        9.173      220.238      174.676       84.149        0.751        0.024      120.561        5.967        0.002      333.155        2.285      863.474
01/09/2015  01:47:00      -76.604      -32.263        4.226       23.188       20.504       13.673      537.673      420.403      186.964        0.404        0.057       83.121       11.532        0.019      333.082        2.165      863.482
01/09/2015  01:48:00      -60.264      -20.150        4.968       31.727       22.471       16.540     1006.579      504.926      273.557        0.292        0.089       63.543       17.635        0.077      333.082        2.164      863.495
01/09/2015  01:49:00      -62.163      -24.813        2.040       27.606       20.483       15.110      762.071      419.547      228.307        0.295        0.070       66.932       16.366        0.060      333.217        2.387      863.503
01/09/2015  01:50:00      -83.919       -9.761       -2.240       25.463       16.715       10.163      648.375      279.404      103.277        0.409        0.052       84.484        8.200        0.009      333.262        2.460      863.515
01/09/2015  01:51:00      -84.215      -18.741       -6.861       20.594       15.798       14.472      424.121      249.587      209.433        0.419        0.044       86.275       12.354        0.021      333.252        2.445      863.518
01/09/2015  01:52:00      -93.846       -9.236       -7.770       27.058       15.645       12.149      732.136      244.780      147.605        0.504        0.056       94.300       13.146        0.019      333.207        2.369      863.521
01/09/2015  01:53:00      -90.031        2.088       -4.256       33.597       17.086       18.257     1128.732      291.926      333.336        0.494        0.088       90.055       18.895        0.044      333.186        2.334      863.520
01/09/2015  01:54:00      -98.497        3.455       -7.353       20.874       15.710       12.636      435.730      246.798      159.675        0.530        0.042       98.557        9.413        0.009      333.162        2.296      863.504
01/09/2015  01:55:00      -82.078        2.835      -13.387       19.917       11.318       11.344      396.700      128.091      128.697        0.379        0.033       82.127        9.666        0.014      333.154        2.281      863.491
01/09/2015  01:56:00      -69.932      -14.883       -7.661       22.214       13.552       10.701      493.473      183.659      114.507        0.298        0.040       71.498       11.339        0.025      333.066        2.137      863.490
01/09/2015  01:57:00      -58.447      -19.163      -10.610       11.963       12.562        8.166      143.104      157.815       66.682        0.213        0.018       61.508        5.697        0.009      332.983        1.999      863.488
01/09/2015  01:58:00      -56.556      -16.189       -7.341       13.091       13.195        8.926      171.369      174.117       79.672        0.197        0.021       58.828        7.615        0.017      332.937        1.925      863.494
01/09/2015  01:59:00      -69.458       -8.231      -12.109       13.536        7.106        8.632      183.236       50.493       74.517        0.267        0.015       69.944        6.318        0.008      332.829        1.748      863.510
01/09/2015  02:00:00      -57.022       -6.985      -10.257       24.269       12.424        9.801      588.973      154.363       96.057        0.212        0.042       57.449       11.453        0.040      332.798        1.696      863.526
01/09/2015  02:01:00      -54.750       -5.743       -5.895       30.833       15.735       14.425      950.677      247.594      208.073        0.224        0.070       55.050       17.450        0.100      332.706        1.543      863.539
01/09/2015  02:02:00      -44.960      -13.774       -3.793       19.184       11.534       10.852      368.024      133.028      117.775        0.142        0.031       47.023        8.400        0.032      332.702        1.536      863.542
01/09/2015  02:03:00      -38.588      -20.294      -10.340        7.253       10.499        8.059       52.606      110.235       64.940        0.112        0.011       43.599        4.276        0.010      332.866        1.808      863.547
01/09/2015  02:04:00      -49.490      -34.416       -9.989       14.878       12.039       11.139      221.364      144.947      124.079        0.211        0.025       60.280        9.281        0.024      332.901        1.865      863.552
01/09/2015  02:05:00      -98.106      -36.311      -18.734       25.980       12.437       11.283      674.981      154.686      127.298        0.613        0.048      104.610        7.235        0.005      332.723        1.571      863.565
01/09/2015  02:06:00     -133.507      -21.030      -21.445       20.416       18.124       11.469      416.793      328.493      131.548        0.980        0.044      135.153        5.750        0.002      332.620        1.401      863.579
01/09/2015  02:07:00     -110.385      -28.084      -12.798       32.718       24.584       13.660     1070.439      604.396      186.598        0.750        0.093      113.901       14.588        0.016      332.638        1.431      863.591
01/09/2015  02:08:00      -66.802      -41.385       -9.763       31.161       21.545       13.059      971.015      464.167      170.530        0.394        0.080       78.582       13.911        0.031      332.661        1.470      863.607
01/09/2015  02:09:00      -71.034      -36.242      -14.819       14.055       14.148       10.865      197.553      200.155      118.042        0.355        0.026       79.745        4.202        0.003      332.689        1.516      863.620
01/09/2015  02:10:00      -81.688      -16.642      -17.047       14.729       12.506       11.179      216.951      156.394      124.965        0.387        0.025       83.366        7.837        0.009      332.806        1.709      863.630
01/09/2015  02:11:00      -84.308      -19.876      -11.144       12.125       16.122        8.502      147.016      259.933       72.277        0.405        0.024       86.619        5.347        0.004      332.846        1.776      863.639
01/09/2015  02:12:00      -97.456      -35.381       -4.191       16.131       12.102       11.131      260.206      146.468      123.896        0.565        0.027      103.680        7.781        0.006      332.892        1.852      863.654
01/09/2015  02:13:00      -99.111      -31.970        0.948       24.582       17.741       15.638      604.266      314.736      244.538        0.600        0.058      104.140       14.011        0.018      332.897        1.859      863.668
01/09/2015  02:14:00     -117.271      -50.346       -2.809       23.080       22.844       16.381      532.706      521.864      268.332        0.881        0.066      127.621       13.661        0.011      332.921        1.898      863.679
01/09/2015  02:15:00     -113.665      -54.479       -4.914       12.980       17.216       10.954      168.491      296.379      119.980        0.825        0.029      126.047        8.012        0.004      332.875        1.824      863.688
01/09/2015  02:16:00     -102.051      -35.532      -10.750       19.667       16.170       10.283      386.805      261.484      105.735        0.627        0.038      108.060        8.853        0.007      332.866        1.810      863.689
01/09/2015  02:17:00     -109.117      -35.755       -8.910       16.308       12.459        9.815      265.967      155.229       96.335        0.689        0.026      114.826        7.692        0.004      332.820        1.732      863.702
01/09/2015  02:18:00     -105.040      -26.429      -13.513       18.237       15.705        8.917      332.586      246.657       79.514        0.629        0.033      108.314        4.809        0.002      332.826        1.743      863.713
01/09/2015  02:19:00      -85.029      -22.335       -9.027        9.537       10.723        6.823       90.946      114.974       46.556        0.403        0.013       87.914        3.334        0.001      332.870        1.815      863.706
01/09/2015  02:20:00      -69.352      -30.158       -9.052        7.987        7.680        6.111       63.784       58.986       37.340        0.298        0.008       75.626        4.249        0.003      332.919        1.894      863.689
01/09/2015  02:21:00      -57.889      -22.319       -5.999       17.707       20.371       11.809      313.540      414.959      139.459        0.238        0.043       62.043        7.513        0.015      332.866        1.809      863.671
01/09/2015  02:22:00      -87.263      -30.881       -4.214       16.743       20.715       13.380      280.344      429.093      179.018        0.474        0.044       92.566        9.671        0.011      332.866        1.808      863.649
01/09/2015  02:23:00     -108.199      -19.425       -8.905       27.665       28.431       14.853      765.354      808.345      220.601        0.698        0.090      109.929       14.447        0.017      332.810        1.714      863.639
01/09/2015  02:24:00     -107.827      -26.618       -4.785       29.883       24.647       16.539      893.018      607.477      273.552        0.707        0.089      111.064       11.534        0.011      332.775        1.658      863.638
01/09/2015  02:25:00      -75.445      -11.143        2.710       45.934       27.552       22.675     2109.929      759.132      514.140        0.460        0.169       76.263       20.806        0.074      332.767        1.645      863.633
01/09/2015  02:26:00      -67.348       -7.233       -0.445       38.183       27.990       16.593     1457.933      783.457      275.339        0.355        0.126       67.735       17.147        0.064      332.834        1.757      863.618
01/09/2015  02:27:00      -22.515      -24.273       -0.791       13.329       17.049       12.213      177.656      290.662      149.148        0.086        0.031       33.107        9.910        0.090      332.894        1.854      863.605
01/09/2015  02:28:00      -15.137       -3.114       -3.983        5.964        8.022        6.908       35.565       64.345       47.720        0.020        0.007       15.454        5.422        0.123      333.016        2.054      863.581
01/09/2015  02:29:00      -18.714      -15.641       -4.919       12.256        6.182        6.650      150.198       38.213       44.222        0.043        0.012       24.390        6.601        0.073      333.042        2.099      863.568
01/09/2015  02:30:00       11.240       -2.405        1.204       11.968        7.989        6.886      143.241       63.827       47.419        0.019        0.013       11.495        8.328        0.525      333.130        2.243      863.559
01/09/2015  02:31:00       -4.748        4.896       -6.532       12.331       10.694        5.128      152.044      114.364       26.294        0.019        0.015        6.820        5.023        0.543      333.144        2.265      863.553
01/09/2015  02:32:00      -25.546        0.060        0.045       14.548       14.196       13.213      211.630      201.535      174.578        0.062        0.029       25.546       10.173        0.159      333.161        2.293      863.544
01/09/2015  02:33:00       -8.035      -21.989       -7.456        9.244       12.572        9.445       85.455      158.057       89.209        0.047        0.017       23.411        4.902        0.044      333.031        2.080      863.543
01/09/2015  02:34:00      -32.537      -28.900       -4.870       14.631        9.538        8.967      214.058       90.980       80.408        0.115        0.019       43.519        6.062        0.019      332.930        1.914      863.543
01/09/2015  02:35:00      -71.326      -10.079      -11.041        9.426       12.512        9.533       88.857      156.562       90.874        0.282        0.017       72.035        4.647        0.004      332.778        1.663      863.543
01/09/2015  02:36:00      -61.451       -4.996      -10.749       14.894       10.123        8.250      221.826      102.475       68.059        0.215        0.020       61.654        5.210        0.007      332.759        1.631      863.542
01/09/2015  02:37:00      -64.329       -8.545      -11.893        9.086        8.490        6.860       82.557       72.083       47.054        0.228        0.010       64.894        4.363        0.005      332.753        1.621      863.537
01/09/2015  02:38:00      -28.546      -12.778       -0.483        8.740        8.285        5.334       76.392       68.648       28.454        0.058        0.009       31.275        3.676        0.014      332.996        2.022      863.533
01/09/2015  02:39:00       11.150        8.683       -0.887       16.660       12.903        3.711      277.558      166.496       13.774        0.033        0.023       14.132        2.556        0.033      333.127        2.237      863.530
01/09/2015  02:40:00        2.769       27.141        1.248        8.513        5.940        3.983       72.477       35.286       15.864        0.043        0.006       27.282        3.612        0.018      333.431        2.741      863.530
01/09/2015  02:41:00      -24.840       -3.182        0.194       13.485       20.674        6.102      181.847      427.422       37.239        0.064        0.032       25.043        5.429        0.047      333.245        2.435      863.541
01/09/2015  02:42:00      -54.174      -35.016      -11.372       19.454       11.255        8.998      378.474      126.671       80.969        0.244        0.029       64.505        5.919        0.008      332.744        1.606      863.560
01/09/2015  02:43:00     -103.732      -13.407      -15.187       23.992       17.870       18.366      575.635      319.346      337.312        0.620        0.062      104.595       15.051        0.021      332.651        1.453      863.571
01/09/2015  02:44:00      -94.272      -14.598       -7.151       31.218       15.733       10.994      974.564      247.522      120.873        0.525        0.067       95.396       12.993        0.019      332.580        1.334      863.569
01/09/2015  02:45:00      -81.176      -13.534       -8.163       15.254       12.630        8.310      232.669      159.529       69.055        0.365        0.023       82.297        5.254        0.004      332.576        1.329      863.567
01/09/2015  02:46:00      -79.930      -11.046       -5.686       16.375       11.354       13.721      268.132      128.918      188.264        0.356        0.029       80.690       11.576        0.021      332.633        1.423      863.559
01/09/2015  02:47:00     -113.776      -13.980      -14.359       24.698       11.839       14.331      609.987      140.173      205.383        0.715        0.048      114.632        9.960        0.008      332.689        1.516      863.559
01/09/2015  02:48:00     -108.213      -14.100      -16.257        9.590        7.900       11.091       91.960       62.412      123.001        0.623        0.014      109.128        4.437        0.002      332.691        1.519      863.562
01/09/2015  02:49:00     -102.224      -20.847      -12.346        8.496       11.556        8.812       72.175      133.543       77.644        0.566        0.014      104.328        4.021        0.001      332.689        1.515      863.562
01/09/2015  02:50:00     -104.244      -29.855       -7.536        6.362        6.489        6.606       40.476       42.110       43.641        0.597        0.006      108.435        1.690        0.000      332.682        1.504      863.550
01/09/2015  02:51:00      -97.298      -42.307        0.205       25.488       16.591       15.190      649.650      275.263      230.735        0.621        0.058      106.098       15.904        0.022      332.659        1.466      863.548
01/09/2015  02:52:00     -102.190      -33.221        0.813       31.880       21.586       17.353     1016.350      465.961      301.116        0.666        0.089      107.454       18.847        0.031      332.612        1.388      863.545
01/09/2015  02:53:00      -94.000      -31.270       -3.266       16.337       12.508        9.658      266.895      156.439       93.271        0.517        0.026       99.065        5.930        0.004      332.642        1.439      863.546
01/09/2015  02:54:00      -90.414      -38.120      -10.836       13.161       13.679       10.603      173.221      187.128      112.422        0.511        0.024       98.122        7.398        0.006      332.665        1.475      863.542
01/09/2015  02:55:00      -86.749      -43.167      -10.286       19.145       20.358       10.149      366.526      414.428      103.005        0.519        0.044       96.896       11.275        0.014      332.650        1.451      863.542
01/09/2015  02:56:00      -63.266       -8.517       -3.695       28.755       21.092       15.008      826.860      444.891      225.246        0.279        0.075       63.837       16.374        0.066      332.594        1.358      863.537
01/09/2015  02:57:00      -50.816       -6.383       -4.045       29.135       27.344       16.914      848.861      747.697      286.072        0.226        0.094       51.216       15.145        0.087      332.639        1.431      863.518
01/09/2015  02:58:00      -30.423       47.046       -8.536       38.638       28.483       18.339     1492.904      811.303      336.336        0.293        0.132       56.026       19.528        0.121      332.877        1.825      863.503
01/09/2015  02:59:00       24.433       -5.594        1.751       14.396       21.309       12.141      207.244      454.068      147.402        0.072        0.040       25.065        5.701        0.052      332.964        1.971      863.486
01/09/2015  03:00:00       13.190        7.574       14.878       10.704        6.516        8.327      114.581       42.462       69.332        0.034        0.011       15.210        5.220        0.118      332.743        1.603      863.475
01/09/2015  03:01:00        4.706        0.690       -2.904        8.412       14.948        9.467       70.768      223.445       89.630        0.021        0.019        4.756        5.010        1.110      332.947        1.941      863.469
01/09/2015  03:02:00       12.081       15.791        1.776        6.429       10.533        7.281       41.338      110.946       53.015        0.030        0.010       19.882        5.565        0.078      333.002        2.031      863.466
01/09/2015  03:03:00       27.793       23.630        9.281        9.650        8.442        8.359       93.120       71.275       69.875        0.083        0.012       36.481        3.886        0.011      332.875        1.824      863.462
01/09/2015  03:04:00        9.425        5.140        5.073        9.948        7.981        5.999       98.968       63.701       35.982        0.017        0.010       10.736        4.797        0.200      332.753        1.623      863.449
01/09/2015  03:05:00       -7.330      -10.956       -0.097        7.660        5.028        4.809       58.670       25.283       23.127        0.014        0.005       13.182        2.056        0.024      332.705        1.540      863.443
01/09/2015  03:06:00       -2.413        1.427        0.967        3.503        6.636        4.427       12.271       44.033       19.598        0.004        0.004        2.803        2.021        0.520      332.739        1.599      863.436
01/09/2015  03:07:00        1.871       19.492        1.609        3.404        4.210        2.628       11.588       17.726        6.906        0.021        0.002       19.582        1.784        0.008      332.924        1.904      863.437
01/09/2015  03:08:00        0.960       27.086       -0.722        5.722       11.189        6.571       32.741      125.199       43.179        0.047        0.010       27.103        6.985        0.066      332.848        1.779      863.443
01/09/2015  03:09:00       -3.967       29.565       -0.246        5.015        5.505        4.303       25.154       30.309       18.516        0.048        0.004       29.830        3.117        0.011      332.905        1.871      863.450
01/09/2015  03:10:00      -16.489        1.165       -1.509       10.464       16.124        4.871      109.489      259.994       23.732        0.033        0.020       16.530        1.676        0.010      332.757        1.627      863.450
01/09/2015  03:11:00      -24.953      -17.748       -0.194       11.203        6.330        7.169      125.499       40.068       51.394        0.058        0.011       30.621        5.618        0.034      332.572        1.322      863.461
01/09/2015  03:12:00      -22.297       -7.273       -1.970        5.718        6.555        6.738       32.695       42.970       45.402        0.034        0.006       23.454        2.136        0.008      332.530        1.253      863.449
01/09/2015  03:13:00      -17.274      -10.108       -2.175        7.592        5.815        5.647       57.632       33.809       31.893        0.026        0.006       20.014        3.796        0.036      332.605        1.377      863.449
01/09/2015  03:14:00      -19.027        0.742       -0.786        7.002       10.806        7.108       49.023      116.771       50.520        0.029        0.011       19.041        7.724        0.165      332.729        1.580      863.441
01/09/2015  03:15:00        2.961       10.616       12.156       10.145        9.186        5.421      102.923       84.387       29.384        0.024        0.011       11.021        4.985        0.205      332.669        1.482      863.444
01/09/2015  03:16:00        8.503       16.469       20.054        9.196       11.370       10.389       84.564      129.287      107.934        0.053        0.016       18.535        5.364        0.084      332.692        1.520      863.441
01/09/2015  03:17:00       23.651       20.421        8.190       19.505       11.018       14.879      380.452      121.391      221.378        0.088        0.036       31.248       14.835        0.225      332.581        1.336      863.448
01/09/2015  03:18:00       20.304       17.066        0.110       14.275        9.735       11.974      203.766       94.768      143.371        0.057        0.022       26.524        9.645        0.132      332.519        1.234      863.449
01/09/2015  03:19:00       39.941       25.112        6.725       13.683       11.255       11.926      187.228      126.685      142.220        0.136        0.023       47.179        6.480        0.019      332.518        1.232      863.441
01/09/2015  03:20:00       50.023       35.553        9.225       16.429       17.471       13.638      269.915      305.225      185.985        0.231        0.038       61.371       11.809        0.037      332.471        1.154      863.441
01/09/2015  03:21:00       64.428       46.924        5.684       17.859       14.627       11.133      318.952      213.946      123.948        0.352        0.033       79.705        9.506        0.014      332.429        1.084      863.434
01/09/2015  03:22:00       55.135       40.279        3.236       14.111       13.505       10.759      199.106      182.378      115.761        0.258        0.025       68.281        8.057        0.014      332.431        1.090      863.416
01/09/2015  03:23:00       37.667       27.725       10.884       17.347       15.610       11.000      300.908      243.682      120.991        0.149        0.033       46.770        8.634        0.034      332.395        1.029      863.400
01/09/2015  03:24:00       45.147       31.948       11.511       21.233       15.346       15.241      450.855      235.507      232.284        0.205        0.046       55.308       10.369        0.035      332.407        1.050      863.389
01/09/2015  03:25:00       72.113       38.043       12.566       24.439       16.000       15.515      597.273      255.989      240.701        0.395        0.055       81.533        5.249        0.004      332.551        1.287      863.387
01/09/2015  03:26:00       65.226       31.564        8.708       19.849       20.315       17.350      393.996      412.705      301.021        0.322        0.055       72.462       12.778        0.031      332.534        1.257      863.388
01/09/2015  03:27:00       65.629       31.089       -2.423       15.925       17.821       11.763      253.610      317.581      138.360        0.299        0.035       72.620        3.707        0.003      332.545        1.276      863.392
01/09/2015  03:28:00       52.119       24.762       -6.634       18.382       11.322       14.543      337.882      128.184      211.488        0.203        0.034       57.702       10.356        0.032      332.580        1.335      863.396
01/09/2015  03:29:00       37.723       27.528        6.827       16.756       15.891       12.954      280.756      252.509      167.809        0.146        0.035       46.699       10.083        0.047      332.584        1.342      863.396
01/09/2015  03:30:00       44.240       29.244       12.037       16.366       10.022        9.391      267.852      100.446       88.196        0.171        0.023       53.032        8.277        0.024      332.550        1.284      863.396
01/09/2015  03:31:00       65.356       40.475        9.029       14.523       10.201        9.917      210.931      104.052       98.354        0.320        0.021       76.875        6.433        0.007      332.568        1.315      863.388
01/09/2015  03:32:00       69.141       38.602        9.334       17.993       15.543       16.995      323.745      241.591      288.840        0.361        0.043       79.187        8.192        0.011      332.541        1.271      863.383
01/09/2015  03:33:00       84.815       39.837        8.032       19.738       15.358       13.465      389.603      235.860      181.294        0.483        0.040       93.705       11.006        0.014      332.534        1.256      863.375
01/09/2015  03:34:00       79.556       47.432        1.649       16.410       20.133       11.401      269.286      405.329      129.989        0.469        0.040       92.623        6.832        0.005      332.540        1.267      863.374
01/09/2015  03:35:00       55.090       54.261        4.592       22.153       14.716       11.497      490.747      216.573      132.191        0.342        0.042       77.325       12.565        0.026      332.489        1.184      863.372
01/09/2015  03:36:00       71.585       50.796        3.314       22.932       20.055       14.203      525.875      402.209      201.718        0.442        0.056       87.776       10.321        0.014      332.512        1.222      863.369
01/09/2015  03:37:00       72.062       49.996        2.952       24.164       13.975       12.392      583.876      195.313      153.573        0.432        0.047       87.707        5.896        0.005      332.505        1.209      863.365
01/09/2015  03:38:00       88.435       41.653        8.225       20.716       14.684       15.034      429.168      215.614      226.032        0.525        0.044       97.754        8.868        0.008      332.499        1.199      863.352
01/09/2015  03:39:00      102.037       50.797        2.432       23.134       21.881       12.337      535.174      478.777      152.208        0.708        0.058      113.982        4.322        0.001      332.529        1.249      863.343
01/09/2015  03:40:00       87.746       37.353       11.440       27.327       23.110       18.601      746.774      534.067      345.980        0.543        0.081       95.365       13.647        0.020      332.517        1.230      863.335
01/09/2015  03:41:00       61.610       32.057       11.603       22.091       18.246       17.520      487.990      332.911      306.940        0.304        0.056       69.451       12.173        0.031      332.498        1.198      863.326
01/09/2015  03:42:00       74.921       42.766       24.720       17.215       10.987       14.985      296.350      120.715      224.543        0.435        0.032       86.267       10.998        0.016      332.478        1.165      863.327
01/09/2015  03:43:00       74.837       49.787       21.241       24.632       12.379       17.996      606.717      153.236      323.856        0.481        0.054       89.885       15.459        0.030      332.489        1.184      863.322
01/09/2015  03:44:00       82.204       44.607       12.184       19.656       20.809       16.000      386.343      433.030      256.005        0.499        0.054       93.527        9.399        0.010      332.519        1.232      863.320
01/09/2015  03:45:00       84.619       43.835       18.179       30.730       18.916       23.115      944.311      357.816      534.309        0.562        0.092       95.299       12.617        0.018      332.576        1.329      863.305
01/09/2015  03:46:00       70.744       42.561       24.187       18.475       12.180       16.214      341.327      148.361      262.879        0.408        0.038       82.561       10.315        0.016      332.534        1.257      863.301
01/09/2015  03:47:00       46.988       23.659       18.430       17.569       17.400       16.963      308.667      302.762      287.737        0.200        0.045       52.608       12.549        0.057      332.535        1.260      863.296
01/09/2015  03:48:00       43.826       23.962       15.633       10.552        7.612       11.939      111.347       57.939      142.535        0.153        0.016       49.949        7.478        0.022      332.588        1.349      863.303
01/09/2015  03:49:00       27.442       11.485       12.031       12.748       14.113        6.996      162.507      199.168       48.942        0.072        0.021       29.749        5.155        0.030      332.628        1.413      863.307
01/09/2015  03:50:00        9.271       -5.371        3.958       13.139       10.502        7.289      172.635      110.300       53.133        0.023        0.017       10.715        5.966        0.310      332.651        1.452      863.300
01/09/2015  03:51:00       -6.071       -7.900        4.729        7.676       10.161        7.756       58.920      103.243       60.161        0.017        0.011        9.963        5.244        0.277      332.618        1.397      863.311
01/09/2015  03:52:00      -27.803      -15.989       -5.488       15.859        7.739        5.193      251.495       59.895       26.967        0.070        0.017       32.073        2.520        0.006      332.401        1.039      863.322
01/09/2015  03:53:00      -40.271      -12.598       -7.540        4.882        6.106        5.192       23.833       37.278       26.955        0.096        0.004       42.195        3.227        0.006      332.245        0.784      863.333
01/09/2015  03:54:00      -38.375       -6.933       -6.625        8.599       10.187        5.372       73.939      103.779       28.857        0.089        0.010       38.996        5.131        0.017      332.251        0.794      863.357
01/09/2015  03:55:00      -30.767      -13.288       -8.140        6.626        6.155        6.270       43.905       37.887       39.313        0.066        0.006       33.514        4.615        0.019      332.340        0.938      863.361
01/09/2015  03:56:00      -28.643      -16.981       -3.884        5.841        5.923        4.011       34.112       35.079       16.085        0.060        0.004       33.298        2.935        0.008      332.387        1.015      863.358
01/09/2015  03:57:00      -24.803      -13.593       -6.596        6.601        6.502        4.067       43.577       42.270       16.539        0.047        0.005       28.283        3.043        0.012      332.410        1.053      863.352
01/09/2015  03:58:00      -22.755       -9.798       -8.548       11.133        7.209        5.051      123.943       51.963       25.512        0.044        0.010       24.774        3.147        0.016      332.294        0.861      863.345
01/09/2015  03:59:00      -12.849      -25.124       -5.556       10.717       11.123        7.229      114.856      123.723       52.258        0.056        0.015       28.219        4.988        0.031      332.246        0.784      863.345
01/09/2015  04:00:00      -49.839      -20.677       -9.933       16.681       12.378        7.786      278.268      153.204       60.627        0.175        0.025       53.958        7.146        0.018      332.207        0.719      863.337
01/09/2015  04:01:00      -63.925      -15.856       -8.406       13.765       16.045        8.376      189.483      257.430       70.156        0.246        0.026       65.862        8.187        0.015      332.215        0.734      863.342
01/09/2015  04:02:00      -62.765       -7.685       -9.068       23.500        7.818        9.348      552.234       61.125       87.385        0.239        0.035       63.234        7.651        0.015      332.328        0.919      863.342
01/09/2015  04:03:00      -78.352       -4.247      -14.667       11.317        8.305        7.923      128.071       68.979       62.774        0.332        0.013       78.467        1.659        0.000      332.191        0.692      863.342
01/09/2015  04:04:00      -88.135        0.361      -11.281       31.740       14.598       16.085     1007.435      213.091      258.729        0.469        0.074       88.136       16.025        0.033      332.032        0.430      863.347
01/09/2015  04:05:00      -91.691       -3.921       -6.751       35.187       17.506       17.117     1238.098      306.446      292.992        0.515        0.092       91.775       19.110        0.043      331.985        0.353      863.340
01/09/2015  04:06:00      -87.849       -8.129       -8.460       35.870       29.056       14.091     1286.621      844.274      198.550        0.509        0.116       88.224       13.176        0.022      331.989        0.361      863.332
01/09/2015  04:07:00      -70.062       -5.533        0.197       34.708       26.176       17.926     1204.671      685.204      321.338        0.357        0.111       70.280       15.195        0.047      332.005        0.385      863.323
01/09/2015  04:08:00      -89.243       -6.036        0.060       37.160       22.399       24.819     1380.852      501.732      616.004        0.525        0.125       89.447       24.884        0.077      332.043        0.448      863.319
01/09/2015  04:09:00      -63.708      -10.541        4.058       27.078       29.481       21.941      733.203      869.145      481.426        0.313        0.104       64.574       14.096        0.048      332.057        0.472      863.319
01/09/2015  04:10:00      -87.514      -11.857       -3.829       36.941       25.293       20.844     1364.664      639.751      434.461        0.513        0.122       88.314       22.797        0.067      332.010        0.395      863.330
01/09/2015  04:11:00      -87.623      -11.503       -7.702       34.892       28.290       22.764     1217.486      800.302      518.217        0.520        0.127       88.374       18.574        0.044      331.998        0.376      863.342
01/09/2015  04:12:00      -86.868       -1.173       -1.377       41.382       30.694       21.180     1712.489      942.101      448.598        0.533        0.155       86.876       20.573        0.056      332.014        0.401      863.355
01/09/2015  04:13:00     -128.035        2.895       -6.179       37.219       30.553       17.174     1385.260      933.505      294.941        0.953        0.131      128.067       12.961        0.010      332.117        0.571      863.348
01/09/2015  04:14:00     -116.786       28.732       -5.158       33.006       27.735       18.915     1089.397      769.240      357.782        0.835        0.111      120.268       13.964        0.013      332.238        0.772      863.336
01/09/2015  04:15:00     -144.800       41.657       -4.530       39.817       35.903       18.727     1585.384     1289.015      350.709        1.297        0.161      150.673       18.160        0.015      332.340        0.939      863.309
01/09/2015  04:16:00     -106.875       31.647       -4.730       36.727       25.025       17.386     1348.856      626.252      302.284        0.736        0.114      111.462       12.327        0.012      332.334        0.928      863.288
01/09/2015  04:17:00      -96.883       12.966       -9.187       41.934       36.903       20.839     1758.459     1361.815      434.283        0.660        0.178       97.747       17.792        0.033      332.340        0.938      863.280
01/09/2015  04:18:00      -49.636        3.043       -2.942       57.494       35.632       23.557     3305.617     1269.657      554.922        0.380        0.257       49.729       21.114        0.180      332.282        0.844      863.264
01/09/2015  04:19:00      -41.064        0.680        8.472       41.934       28.737       21.009     1758.443      825.840      441.373        0.239        0.151       41.070       20.326        0.245      332.183        0.680      863.241
01/09/2015  04:20:00      -33.371      -21.974        2.437       29.918       29.622       13.790      895.099      877.441      190.172        0.178        0.098       39.956       11.617        0.085      332.089        0.525      863.221
01/09/2015  04:21:00      -52.260      -19.061       -9.235       13.510       14.608       12.427      182.508      213.386      154.420        0.186        0.028       55.627        6.480        0.014      332.034        0.435      863.217
01/09/2015  04:22:00      -38.645       -9.869       -9.398       16.596       12.639        8.423      275.436      159.747       70.952        0.109        0.025       39.885        7.124        0.032      332.116        0.569      863.211
01/09/2015  04:23:00      -25.783       -4.659       -9.462        9.841       11.286        8.448       96.852      127.382       71.362        0.054        0.015       26.201        5.452        0.043      332.439        1.103      863.200
01/09/2015  04:24:00      -33.892      -12.786       -5.655       13.626       15.686       10.573      185.669      246.064      111.785        0.094        0.027       36.223        4.856        0.018      332.337        0.934      863.182
01/09/2015  04:25:00      -60.521       21.635       -6.307       15.052       18.584       11.396      226.569      345.356      129.868        0.244        0.035       64.272       10.071        0.025      332.369        0.987      863.174
01/09/2015  04:26:00      -58.209       29.255      -11.014       22.354       17.518       14.403      499.707      306.869      207.445        0.269        0.051       65.147       13.063        0.040      332.499        1.201      863.172
01/09/2015  04:27:00      -54.383       -6.825       -5.074       12.553       14.699       10.872      157.569      216.052      118.210        0.176        0.025       54.809        7.832        0.020      332.368        0.984      863.166
01/09/2015  04:28:00      -22.849      -37.929       -4.366       14.381       19.417       11.681      206.817      377.022      136.436        0.135        0.036       44.280        8.879        0.040      332.179        0.674      863.154
01/09/2015  04:29:00      -30.742      -27.852       -2.658       18.512       16.265       12.464      342.695      264.559      155.354        0.125        0.038       41.482        7.696        0.034      332.119        0.575      863.150
01/09/2015  04:30:00      -46.222      -33.658       -4.448       19.379       10.056       12.686      375.548      101.118      160.936        0.196        0.032       57.178        5.925        0.011      332.109        0.559      863.137
01/09/2015  04:31:00      -51.166      -35.491       -9.775       14.990       13.601       11.325      224.704      184.995      128.250        0.226        0.027       62.270        9.756        0.025      332.014        0.404      863.124
01/09/2015  04:32:00      -58.598      -18.608       -6.773       21.646       11.301       10.094      468.535      127.705      101.889        0.226        0.035       61.481        8.460        0.019      331.986        0.356      863.109
01/09/2015  04:33:00      -76.445      -26.517      -10.347       14.515       17.992       13.695      210.693      323.701      187.565        0.369        0.036       80.914        7.228        0.008      331.902        0.217      863.089
01/09/2015  04:34:00      -90.610      -37.222      -12.786       13.072       11.922        9.676      170.871      142.142       93.619        0.508        0.020       97.957        4.696        0.002      331.864        0.154      863.074
01/09/2015  04:35:00      -97.780      -15.430      -16.754       18.040       19.637       13.338      325.428      385.603      177.905        0.548        0.044       98.989        6.895        0.005      331.782        0.020      863.058
01/09/2015  04:36:00      -90.689      -23.925      -12.835       21.802       19.328       13.371      475.347      373.583      178.781        0.499        0.051       93.792       10.919        0.014      331.682       -0.145      863.051
01/09/2015  04:37:00      -87.825        4.174        0.266       45.156       35.575       21.663     2039.071     1265.572      469.283        0.575        0.189       87.924       20.303        0.053      331.852        0.135      863.044
01/09/2015  04:38:00      -94.866       18.220       -4.837       54.569       33.970       24.978     2977.781     1153.974      623.888        0.705        0.238       96.600       24.129        0.062      332.095        0.536      863.052
01/09/2015  04:39:00      -82.979       18.652       -6.839       44.144       35.953       24.596     1948.731     1292.598      604.980        0.556        0.192       85.049       19.345        0.052      332.139        0.607      863.054
01/09/2015  04:40:00      -37.811        7.094       -3.088       26.499       29.405       23.617      702.210      864.628      557.778        0.181        0.106       38.470       15.217        0.156      332.161        0.644      863.058
01/09/2015  04:41:00      -79.353      -36.594       -3.857       25.358       32.090       17.361      643.031     1029.776      301.401        0.481        0.099       87.384        4.448        0.003      331.978        0.342      863.052
01/09/2015  04:42:00      -78.050      -42.792       -3.959       35.027       27.507       20.791     1226.863      756.652      432.272        0.518        0.121       89.011       17.160        0.037      331.841        0.115      863.047
01/09/2015  04:43:00      -71.403      -27.844       -5.188       28.625       22.502       21.599      819.379      506.337      466.525        0.385        0.090       76.640        9.476        0.015      331.871        0.166      863.035
01/09/2015  04:44:00     -102.563      -16.841       -6.540       37.583       30.432       26.742     1412.514      926.127      715.109        0.695        0.153      103.937       21.752        0.044      331.866        0.158      863.026
01/09/2015  04:45:00     -104.669        0.386      -18.594       50.396       39.623       25.645     2539.804     1569.985      657.659        0.803        0.238      104.670       26.789        0.066      331.860        0.147      863.027
01/09/2015  04:46:00      -90.524       -0.741       -9.948       41.240       31.781       23.127     1700.727     1010.030      534.880        0.577        0.162       90.527       17.957        0.039      331.846        0.124      863.028
01/09/2015  04:47:00      -80.853      -16.242       -6.445       26.357       28.531       17.721      694.701      814.025      314.034        0.433        0.091       82.468       14.783        0.032      331.930        0.262      863.025
01/09/2015  04:48:00      -62.034      -31.682       -7.956       19.623       23.457       16.780      385.047      550.240      281.552        0.307        0.061       69.656       10.289        0.022      331.835        0.106      863.011
01/09/2015  04:49:00      -58.461      -33.258      -15.414       23.224       15.526       15.621      539.336      241.064      244.009        0.289        0.051       67.259        9.991        0.022      331.841        0.117      862.995
01/09/2015  04:50:00      -78.770      -47.206      -14.101       22.790       26.600       19.008      519.392      707.557      361.286        0.511        0.079       91.832       15.982        0.030      331.916        0.241      862.984
01/09/2015  04:51:00     -115.242      -22.444      -16.966       18.156       14.486       13.584      329.633      209.849      184.525        0.740        0.036      117.407        6.343        0.003      331.975        0.336      862.981
01/09/2015  04:52:00     -100.783      -16.930      -19.300       29.890       21.571       12.337      893.440      465.322      152.201        0.616        0.076      102.195       12.471        0.015      331.834        0.104      863.002
01/09/2015  04:53:00      -78.214      -47.035      -17.244       32.468       29.364       17.094     1054.175      862.239      292.214        0.542        0.110       91.267       12.968        0.020      331.882        0.184      863.016
01/09/2015  04:54:00     -146.605      -25.176      -24.388       23.663       39.439       22.219      559.947     1555.437      493.694        1.266        0.130      148.751       15.904        0.011      331.797        0.044      863.029
01/09/2015  04:55:00     -110.309      -32.349       -6.118       44.359       35.035       26.929     1967.682     1227.469      725.194        0.859        0.196      114.954       25.968        0.051      331.757       -0.023      863.021
01/09/2015  04:56:00      -76.599      -11.326       -0.829       36.942       37.167       20.502     1364.747     1381.377      420.348        0.458        0.158       77.432       17.098        0.049      331.905        0.221      863.008
01/09/2015  04:57:00     -141.000       27.808       -6.556       72.940       33.248       22.682     5320.276     1105.409      514.494        1.382        0.347      143.716       31.173        0.047      332.027        0.420      863.014
01/09/2015  04:58:00     -210.926       54.639      -14.948       50.846       32.314       23.489     2585.276     1044.165      551.717        2.594        0.209      217.888       14.760        0.005      332.053        0.463      863.016
01/09/2015  04:59:00     -156.228       11.375      -17.205       55.633       49.138       33.808     3095.073     2414.588     1142.984        1.574        0.333      156.641       29.453        0.035      331.981        0.347      863.006
01/09/2015  05:00:00     -100.729       -4.949       -5.858       62.354       47.248       29.590     3888.006     2232.383      875.540        0.860        0.350      100.851       30.274        0.090      331.936        0.272      863.001
01/09/2015  05:01:00     -173.113       40.322      -16.985       38.002       41.479       32.656     1444.142     1720.480     1066.396        1.806        0.212      177.747       20.601        0.013      331.951        0.296      862.996
01/09/2015  05:02:00     -175.614       39.478      -21.053       51.087       43.851       28.842     2609.847     1922.943      831.888        1.910        0.268      179.996       14.440        0.006      332.063        0.481      862.986
01/09/2015  05:03:00     -146.921        8.701       -1.704       53.701       38.541       27.230     2883.798     1485.406      741.493        1.339        0.256      147.179       27.676        0.035      332.047        0.455      862.982
01/09/2015  05:04:00     -145.716      -23.998       -9.981       51.035       38.188       30.346     2604.561     1458.333      920.854        1.345        0.249      147.679       21.585        0.021      331.911        0.230      862.981
01/09/2015  05:05:00     -168.276      -45.876      -13.629       29.474       38.652       24.643      868.738     1494.015      607.279        1.679        0.149      174.417       12.434        0.005      331.884        0.186      862.993
01/09/2015  05:06:00     -161.506      -46.039      -16.278       42.896       32.740       23.059     1840.059     1071.886      531.706        1.596        0.172      167.940       23.243        0.019      331.889        0.194      863.005
01/09/2015  05:07:00     -161.717      -63.930      -20.873       27.608       34.957       19.671      762.180     1221.992      386.963        1.652        0.119      173.895       11.291        0.004      331.932        0.265      863.005
01/09/2015  05:08:00     -123.301      -74.054        4.170       35.592       43.779       26.435     1266.797     1916.616      698.802        1.229        0.194      143.830       21.198        0.022      331.969        0.326      863.002
01/09/2015  05:09:00     -122.901       -1.603      -10.967       47.130       37.928       24.815     2221.213     1438.541      615.803        0.975        0.214      122.912       21.056        0.029      332.081        0.512      863.011
01/09/2015  05:10:00     -112.452      -14.041      -13.565       38.967       37.730       23.066     1518.428     1423.530      532.025        0.825        0.174      113.325       22.284        0.039      332.180        0.676      863.009
01/09/2015  05:11:00     -150.926        8.583      -20.247       36.463       37.263       21.453     1329.553     1388.540      460.228        1.322        0.159      151.170       16.651        0.012      332.237        0.769      863.009
01/09/2015  05:12:00     -139.995        9.118      -10.406       55.820       41.573       30.179     3115.835     1728.278      910.780        1.277        0.288      140.291       30.499        0.047      332.192        0.695      863.017
01/09/2015  05:13:00     -134.662        1.122      -16.804       28.925       39.737       19.363      836.667     1579.019      374.911        1.060        0.140      134.667       14.902        0.012      332.162        0.646      863.041
01/09/2015  05:14:00     -101.710      -34.978       -6.496       32.168       23.061       22.312     1034.757      531.813      497.833        0.684        0.103      107.556       18.543        0.030      332.198        0.706      863.047
01/09/2015  05:15:00     -119.877      -46.924       -2.085       25.876       27.324       21.403      669.583      746.609      458.104        0.923        0.094      128.734       14.949        0.013      332.196        0.703      863.039
01/09/2015  05:16:00     -146.006      -12.206       -6.448       38.020       30.013       24.313     1445.555      900.806      591.100        1.222        0.147      146.515       24.359        0.028      332.195        0.699      863.023
01/09/2015  05:17:00     -135.847      -18.524        1.698       52.285       27.322       26.958     2733.767      746.471      726.742        1.150        0.210      137.104       29.735        0.047      332.183        0.681      863.024
01/09/2015  05:18:00     -158.462      -18.761      -16.238       20.273       17.001       17.970      410.980      289.018      322.906        1.337        0.051      159.569        8.754        0.003      332.175        0.668      863.026
01/09/2015  05:19:00     -108.042      -25.259      -10.674       28.742       33.043       15.402      826.110     1091.860      237.233        0.729        0.108      110.955       10.575        0.009      332.121        0.578      863.017
01/09/2015  05:20:00      -91.871      -23.326       -5.297       34.322       34.616       25.191     1178.025     1198.239      634.602        0.601        0.151       94.786       21.784        0.053      332.082        0.513      863.000
01/09/2015  05:21:00      -84.667      -18.751       -9.944       21.234       27.929       17.243      450.885      780.026      297.321        0.457        0.076       86.718       16.515        0.036      332.156        0.635      862.994
01/09/2015  05:22:00      -69.258      -25.657       -4.626       17.593       20.656       12.934      309.531      426.654      167.293        0.319        0.045       73.857       11.081        0.023      332.110        0.560      862.992
01/09/2015  05:23:00      -48.946      -19.015       -2.608       16.623       16.041       12.501      276.338      257.312      156.274        0.173        0.034       52.510        3.952        0.006      332.079        0.510      862.993
01/09/2015  05:24:00      -44.359      -13.082       -6.716       14.146       10.434        9.260      200.117      108.863       85.739        0.129        0.020       46.248        5.516        0.014      332.057        0.473      863.005
01/09/2015  05:25:00      -42.792      -19.256       -8.430       19.498       12.826        9.308      380.181      164.517       86.638        0.145        0.032       46.925        5.182        0.012      332.105        0.552      863.008
01/09/2015  05:26:00      -56.948      -33.210       -7.346        8.703       10.086       12.259       75.742      101.723      150.291        0.236        0.016       65.924        5.795        0.008      332.153        0.631      862.999
01/09/2015  05:27:00      -58.903      -20.666      -12.200        8.406        8.053        7.633       70.654       64.847       58.266        0.212        0.010       62.423        2.849        0.002      332.189        0.690      862.982
01/09/2015  05:28:00      -52.959      -15.319       -4.212        9.592        8.644        8.259       92.003       74.714       68.212        0.165        0.012       55.130        5.088        0.009      332.273        0.828      862.965
01/09/2015  05:29:00      -36.919       -7.004       -7.446        9.480        6.903        5.797       89.872       47.658       33.600        0.082        0.009       37.577        4.370        0.014      332.254        0.797      862.942
01/09/2015  05:30:00      -18.075       -7.783       -1.419        4.985        4.451        3.124       24.848       19.811        9.758        0.022        0.003       19.679        1.952        0.010      332.351        0.956      862.918
01/09/2015  05:31:00        0.690        0.894        0.755        6.911        9.211        4.558       47.757       84.845       20.774        0.008        0.008        1.130        1.382        1.497      332.433        1.092      862.907
01/09/2015  05:32:00       -6.696       -1.282        2.417        6.485        4.831        4.038       42.054       23.339       16.302        0.007        0.004        6.818        3.507        0.265      332.362        0.974      862.905
01/09/2015  05:33:00       -4.288       -3.466       -0.415        2.924        3.233        2.015        8.551       10.452        4.060        0.003        0.001        5.514        1.823        0.109      332.340        0.937      862.916
01/09/2015  05:34:00       -0.329       -9.912        0.733        3.994        3.994        2.656       15.950       15.950        7.056        0.007        0.002        9.917        1.766        0.032      332.325        0.914      862.928
01/09/2015  05:35:00       -0.858      -11.264        7.379        6.400        7.598        5.329       40.963       57.734       28.402        0.015        0.006       11.297        5.152        0.208      332.307        0.883      862.949
01/09/2015  05:36:00       18.563       11.436       12.962       12.062        9.007        6.463      145.494       81.126       41.768        0.046        0.013       21.803        6.139        0.079      332.216        0.735      862.967
01/09/2015  05:37:00       43.590       20.628        8.953       13.222       13.825       10.518      174.811      191.134      110.630        0.144        0.024       48.225        6.979        0.021      332.071        0.499      862.990
01/09/2015  05:38:00       44.404       18.294       10.552       19.175       14.134       13.599      367.680      199.757      184.922        0.158        0.038       48.025       10.505        0.048      331.918        0.243      863.008
01/09/2015  05:39:00       46.365       41.862        5.325       12.769        8.267       12.744      163.057       68.337      162.409        0.216        0.020       62.467        6.242        0.010      331.828        0.093      863.015
01/09/2015  05:40:00       48.009       42.323        6.489        9.026        8.539       10.015       81.467       72.914      100.299        0.220        0.013       64.001        5.279        0.007      331.841        0.117      863.013
01/09/2015  05:41:00       49.160       32.478       12.129       23.164       13.205       15.026      536.577      174.362      225.786        0.228        0.047       58.920       10.548        0.032      331.802        0.052      862.998
01/09/2015  05:42:00       47.915       30.133        0.195       11.985       12.063       12.178      143.652      145.527      148.304        0.182        0.022       56.602        7.760        0.019      331.769       -0.002      862.979
01/09/2015  05:43:00       25.319       14.376        3.388       11.711       11.619       11.723      137.155      135.004      137.423        0.063        0.020       29.116        8.498        0.085      331.795        0.040      862.962
01/09/2015  05:44:00        2.432        3.842        4.208        7.083        6.118        5.580       50.167       37.433       31.131        0.008        0.006        4.547        4.318        0.902      331.828        0.095      862.951
01/09/2015  05:45:00        1.581        5.218        1.180        3.743        4.494        4.941       14.010       20.200       24.412        0.004        0.003        5.452        2.012        0.136      331.808        0.060      862.949
01/09/2015  05:46:00       -8.327       -2.623        2.063       12.300        4.990        3.692      151.302       24.896       13.627        0.014        0.009        8.730        3.517        0.162      331.877        0.174      862.963
01/09/2015  05:47:00      -42.561       -7.902       -3.685        6.916        9.595        4.235       47.829       92.065       17.935        0.102        0.008       43.288        3.807        0.008      331.750       -0.035      862.981
01/09/2015  05:48:00      -23.383       -6.113       -0.578        9.305        8.879        4.461       86.590       78.840       19.898        0.038        0.009       24.168        4.979        0.042      331.740       -0.051      862.994
01/09/2015  05:49:00        0.350      -27.844      -10.903        3.926        6.812        5.618       15.415       46.407       31.563        0.049        0.005       27.846        4.119        0.022      331.842        0.118      862.999
01/09/2015  05:50:00       -9.054      -16.178       -2.102        8.540        8.253       10.768       72.935       68.114      115.948        0.030        0.013       18.539        7.782        0.176      331.885        0.187      862.991
01/09/2015  05:51:00       -2.182        0.042        2.470        3.466        6.278        4.170       12.010       39.416       17.386        0.004        0.003        2.182        2.652        1.477      331.849        0.131      862.970
01/09/2015  05:52:00        0.228        1.396        8.758        3.789        3.377        2.817       14.353       11.405        7.933        0.006        0.002        1.415        2.391        2.855      331.816        0.075      862.961
01/09/2015  05:53:00      -21.563       -2.684        1.788       11.968        8.011        4.739      143.239       64.170       22.457        0.035        0.011       21.729        5.736        0.070      331.834        0.104      862.948
01/09/2015  05:54:00      -29.369       -5.164       -2.321       12.449        8.963        6.354      154.985       80.331       40.371        0.059        0.014       29.820        4.519        0.023      331.761       -0.015      862.945
01/09/2015  05:55:00      -42.060        9.547       -3.097        6.424        7.276        5.086       41.262       52.945       25.870        0.099        0.006       43.129        3.304        0.006      331.763       -0.014      862.950
01/09/2015  05:56:00      -34.968       11.311        1.789        9.844        7.178        7.337       96.906       51.517       53.832        0.078        0.010       36.752        4.621        0.016      331.710       -0.097      862.964
01/09/2015  05:57:00      -48.811       25.910       -6.549        6.349        4.418        6.077       40.309       19.517       36.925        0.160        0.005       55.261        3.807        0.005      331.839        0.114      862.990
01/09/2015  05:58:00      -31.716       10.971       -5.131        9.884       12.248        5.936       97.686      150.002       35.237        0.072        0.014       33.560        3.743        0.012      331.770       -0.001      863.013
01/09/2015  05:59:00      -16.718       10.139       -7.058       10.033       11.949        5.876      100.660      142.770       34.528        0.035        0.014       19.552        6.679        0.117      331.764       -0.011      863.026
01/09/2015  06:00:00       -5.585      -13.139        1.066        5.003        5.489        3.888       25.028       30.131       15.118        0.014        0.004       14.277        1.311        0.008      331.770       -0.003      863.031
01/09/2015  06:01:00      -18.218        6.811       -0.164       14.925       29.494       11.435      222.751      869.885      130.759        0.080        0.061       19.450       11.617        0.357      331.749       -0.038      863.027
01/09/2015  06:02:00      -34.121       23.714       -5.834       10.358        7.171        4.417      107.281       51.418       19.513        0.097        0.009       41.552        1.963        0.002      331.826        0.094      863.031
01/09/2015  06:03:00      -19.977       13.580       -0.772       10.428       12.652        6.004      108.748      160.085       36.054        0.044        0.015       24.155        5.175        0.046      331.820        0.081      863.033
01/09/2015  06:04:00       -8.898       39.847       -7.763       12.837       24.433        8.529      164.783      596.982       72.742        0.128        0.042       40.828       12.195        0.089      331.803        0.052      863.031
01/09/2015  06:05:00        8.392       59.117       -9.792        9.436        8.039        4.378       89.031       64.633       19.163        0.192        0.009       59.710        2.699        0.002      331.770       -0.001      863.027
01/09/2015  06:06:00       23.069       44.454       -7.192        6.044        9.583        3.394       36.532       91.833       11.522        0.135        0.007       50.083        2.473        0.002      331.746       -0.040      863.026
01/09/2015  06:07:00       22.267       27.210       -6.293        5.880        6.560        4.282       34.573       43.031       18.339        0.069        0.005       35.160        2.956        0.007      331.814        0.071      863.020
01/09/2015  06:08:00       18.031        8.086        4.376       11.128       11.256        9.097      123.824      126.687       82.752        0.037        0.017       19.761        6.897        0.122      331.798        0.045      863.014
01/09/2015  06:09:00       34.619       19.835        1.096        5.049        5.665        5.625       25.494       32.094       31.636        0.084        0.004       39.899        2.343        0.003      331.775        0.007      863.001
01/09/2015  06:10:00       39.006       17.200        5.729        9.790        8.108        7.780       95.850       65.732       60.530        0.104        0.011       42.630        3.367        0.006      331.796        0.042      863.003
01/09/2015  06:11:00       52.403       23.290        8.333        7.855        6.823        7.456       61.707       46.555       55.597        0.176        0.008       57.346        2.605        0.002      331.813        0.069      863.015
01/09/2015  06:12:00       35.477       16.475        0.166       11.138        7.332        4.433      124.045       53.754       19.649        0.086        0.010       39.116        3.704        0.009      331.800        0.050      863.027
01/09/2015  06:13:00        4.387        8.913       -2.363        8.073        4.742        3.746       65.169       22.487       14.031        0.010        0.005        9.934        2.139        0.046      331.737       -0.054      863.033
01/09/2015  06:14:00        2.514       21.212       -5.504        6.328       10.470        4.159       40.041      109.613       17.300        0.033        0.008       21.360        4.377        0.042      331.775        0.006      863.042
01/09/2015  06:15:00        7.505       21.965       -1.560        9.768       10.300        3.942       95.414      106.085       15.536        0.038        0.011       23.212        3.854        0.028      331.806        0.056      863.042
01/09/2015  06:16:00       14.688       28.623       -0.013       13.074       14.850        9.582      170.918      220.533       91.809        0.076        0.024       32.172        5.592        0.030      331.738       -0.052      863.033
01/09/2015  06:17:00       19.295       66.045      -12.073        7.723        7.810        5.408       59.637       60.998       29.249        0.251        0.007       68.806        3.380        0.002      331.771        0.001      863.030
01/09/2015  06:18:00       20.304       61.174      -10.718        7.510        6.727        6.308       56.394       45.256       39.789        0.221        0.007       64.455        2.286        0.001      331.792        0.036      863.037
01/09/2015  06:19:00       10.759       67.041      -10.958       10.239       13.222        6.240      104.836      174.822       38.939        0.252        0.016       67.899        4.447        0.004      331.827        0.093      863.043
01/09/2015  06:20:00        6.976       67.317       -7.865       10.060        8.318        7.244      101.198       69.191       52.481        0.243        0.011       67.677        4.259        0.004      331.872        0.166      863.051
01/09/2015  06:21:00       11.341       72.154      -10.392       12.643       10.646        6.584      159.837      113.329       43.349        0.288        0.016       73.040        5.516        0.006      331.819        0.080      863.052
01/09/2015  06:22:00       -9.948       77.785      -14.429       14.664       12.992        6.247      215.023      168.780       39.023        0.339        0.021       78.419        3.086        0.002      331.828        0.094      863.077
01/09/2015  06:23:00      -38.202       32.549       -8.240       18.529       31.282        9.025      343.323      978.573       81.451        0.199        0.070       50.188       10.907        0.047      331.752       -0.031      863.102
01/09/2015  06:24:00      -55.423       12.423       -5.405       12.280       11.126        8.094      150.800      123.794       65.513        0.180        0.017       56.798        3.851        0.005      331.705       -0.106      863.123
01/09/2015  06:25:00      -47.641        0.085       -6.336       10.275       21.046        9.711      105.586      442.922       94.308        0.148        0.032       47.641        6.305        0.018      331.703       -0.111      863.130
01/09/2015  06:26:00      -52.794      -23.495      -17.004       22.571       15.570       14.765      509.458      242.440      218.015        0.230        0.048       57.786        6.802        0.014      331.560       -0.347      863.126
01/09/2015  06:27:00      -46.455      -19.570       -6.251       10.872        8.813        7.946      118.195       77.673       63.132        0.142        0.013       50.409        4.451        0.008      331.538       -0.383      863.111
01/09/2015  06:28:00      -60.784      -18.539      -12.870       13.259       13.510        9.427      175.790      182.515       88.871        0.233        0.022       63.549        7.475        0.014      331.468       -0.499      863.093
01/09/2015  06:29:00      -62.766      -24.757       -8.185       16.967       11.192        8.596      287.872      125.252       73.889        0.255        0.024       67.472        6.262        0.009      331.481       -0.476      863.093
01/09/2015  06:30:00      -50.054      -14.663      -10.100       12.094       11.128        7.154      146.275      123.826       51.179        0.157        0.016       52.157        5.791        0.012      331.450       -0.528      863.092
01/09/2015  06:31:00      -37.382      -13.926       -6.925        9.666       10.036        8.356       93.423      100.731       69.823        0.095        0.013       39.892        7.564        0.036      331.668       -0.168      863.104
01/09/2015  06:32:00      -45.578      -17.552       -8.739       12.721        6.915        6.451      161.821       47.820       41.610        0.136        0.013       48.841        3.910        0.006      331.539       -0.381      863.119
01/09/2015  06:33:00      -76.481      -28.570      -15.550       11.789       13.730        8.929      138.988      188.507       79.734        0.366        0.020       81.643        6.735        0.007      331.408       -0.596      863.144
01/09/2015  06:34:00      -94.093       -8.983       -9.528       20.424       18.085        8.986      417.149      327.067       80.755        0.492        0.041       94.521        9.437        0.010      331.423       -0.574      863.156
01/09/2015  06:35:00      -62.787      -19.268       -8.891       13.183       10.188        8.498      173.797      103.799       72.216        0.237        0.017       65.677        4.668        0.005      331.525       -0.404      863.158
01/09/2015  06:36:00      -46.523      -17.899       -4.860       17.094       15.688        9.256      292.189      246.099       85.669        0.157        0.031       49.847        8.342        0.028      331.510       -0.430      863.150
01/09/2015  06:37:00      -41.344      -20.132       -7.614       20.858       13.335        9.107      435.052      177.825       82.940        0.143        0.035       45.985        9.203        0.040      331.518       -0.417      863.157
01/09/2015  06:38:00      -40.764      -26.634       -9.425       15.225       10.826       11.090      231.801      117.196      122.984        0.147        0.024       48.694        6.849        0.020      331.527       -0.400      863.165
01/09/2015  06:39:00      -46.528      -23.484       -5.935       28.299       16.092       13.439      800.847      258.957      180.598        0.200        0.062       52.119        8.376        0.026      331.523       -0.407      863.170
01/09/2015  06:40:00      -80.854      -14.420       -8.749       22.298       19.489       13.746      497.220      379.806      188.946        0.394        0.053       82.130        8.971        0.012      331.549       -0.364      863.168
01/09/2015  06:41:00      -73.818      -24.763      -10.234       11.363       13.698        9.999      129.114      187.642       99.973        0.329        0.021       77.861        5.158        0.004      331.580       -0.315      863.163
01/09/2015  06:42:00      -78.850      -25.897      -16.653       15.725       10.020        8.552      247.274      100.406       73.145        0.379        0.021       82.994        4.212        0.003      331.593       -0.293      863.158
01/09/2015  06:43:00      -90.997      -19.463      -14.645       12.255       12.611        9.472      150.184      159.032       89.722        0.464        0.020       93.055        3.140        0.001      331.605       -0.273      863.157
01/09/2015  06:44:00      -89.996      -13.060      -16.582       11.962       12.251       10.436      143.094      150.094      108.917        0.447        0.020       90.938        5.907        0.004      331.688       -0.134      863.157
01/09/2015  06:45:00      -89.387      -11.790      -11.716       15.457       11.829        8.391      238.910      139.918       70.401        0.436        0.022       90.161        4.700        0.003      331.626       -0.237      863.165
01/09/2015  06:46:00      -94.796       -8.161      -12.717       16.739       11.949       11.218      280.183      142.780      125.841        0.488        0.027       95.147        5.602        0.003      331.615       -0.255      863.182
01/09/2015  06:47:00      -86.193      -19.689      -10.085       13.697       15.921       11.905      187.612      253.463      141.719        0.425        0.029       88.413        7.336        0.007      331.592       -0.294      863.189
01/09/2015  06:48:00     -101.862      -10.956      -18.421       17.101       13.786       11.061      292.431      190.047      122.343        0.572        0.030      102.449        5.643        0.003      331.563       -0.341      863.191
01/09/2015  06:49:00      -99.986       -8.122      -18.397       19.111       15.376       13.299      365.230      236.434      176.866        0.559        0.039      100.315        3.667        0.001      331.572       -0.327      863.201
01/09/2015  06:50:00     -123.826       -7.756      -16.788       24.510       13.016       14.491      600.764      169.419      209.992        0.833        0.049      124.069       13.026        0.011      331.531       -0.395      863.210
01/09/2015  06:51:00     -105.898      -22.188      -12.562       22.479       18.492       13.227      505.322      341.952      174.965        0.644        0.051      108.198        5.567        0.003      331.562       -0.342      863.222
01/09/2015  06:52:00      -83.025       -7.592      -13.960       17.250       15.475       11.314      297.579      239.490      128.014        0.391        0.033       83.371        7.821        0.009      331.645       -0.205      863.223
01/09/2015  06:53:00     -101.341        1.483      -14.941       15.390       12.109       10.998      236.858      146.624      120.949        0.550        0.025      101.352        4.986        0.002      331.763       -0.012      863.222
01/09/2015  06:54:00      -90.018      -15.784      -14.185       15.973       14.472       11.592      255.125      209.435      134.381        0.458        0.030       91.391        9.069        0.010      331.786        0.026      863.227
01/09/2015  06:55:00      -83.960      -24.360      -12.609       13.366       15.217        7.732      178.641      231.554       59.786        0.414        0.023       87.422        6.137        0.005      331.742       -0.046      863.242
01/09/2015  06:56:00      -97.357      -17.700      -17.454       19.062       15.956       13.128      363.360      254.601      172.349        0.544        0.040       98.953        6.804        0.005      331.682       -0.144      863.259
01/09/2015  06:57:00     -105.052        2.137      -13.670       35.836       20.144       22.321     1284.232      405.778      498.235        0.671        0.109      105.073       20.613        0.038      331.576       -0.321      863.273
01/09/2015  06:58:00      -93.159        8.499      -11.849       35.277       26.995       19.982     1244.453      728.732      399.279        0.563        0.119       93.546       16.512        0.031      331.580       -0.314      863.278
01/09/2015  06:59:00      -65.875       -0.439      -10.626       23.582       20.143       18.500      556.127      405.750      342.247        0.288        0.065       65.876       12.909        0.038      331.601       -0.279      863.275
01/09/2015  07:00:00      -70.235       -9.442      -11.679       14.159       15.606       11.660      200.469      243.556      135.960        0.287        0.029       70.867        4.598        0.004      331.570       -0.329      863.273
01/09/2015  07:01:00      -98.785       -4.457      -12.028       24.124       15.389       18.148      581.982      236.820      329.361        0.554        0.057       98.886       14.419        0.021      331.619       -0.250      863.285
01/09/2015  07:02:00     -120.918        9.143      -11.866       45.896       29.874       24.033     2106.402      892.461      577.604        0.921        0.179      121.263       24.876        0.042      331.531       -0.395      863.304
01/09/2015  07:03:00      -79.781       23.100       -8.849       51.299       36.221       23.354     2631.600     1311.967      545.407        0.573        0.224       83.057       26.273        0.100      331.559       -0.349      863.319
01/09/2015  07:04:00      -53.425      -22.668      -10.812       28.997       22.391       13.906      840.853      501.359      193.387        0.251        0.077       58.035        7.239        0.016      331.566       -0.337      863.322
01/09/2015  07:05:00      -46.841      -19.902      -16.993       18.849       18.061       15.318      355.301      326.205      234.649        0.190        0.046       50.894        4.453        0.008      331.746       -0.040      863.319
01/09/2015  07:06:00      -47.871      -13.478       -3.675       14.303       14.238       10.534      204.581      202.715      110.961        0.150        0.026       49.732        6.331        0.016      331.719       -0.083      863.319
01/09/2015  07:07:00      -70.901      -12.940      -14.538       17.322       21.146       12.357      300.039      447.144      152.706        0.315        0.045       72.072        8.726        0.015      331.611       -0.260      863.329
01/09/2015  07:08:00      -65.717      -28.014      -11.727       16.804       19.875        9.842      282.360      394.999       96.870        0.301        0.039       71.439        6.895        0.009      331.653       -0.193      863.322
01/09/2015  07:09:00      -27.948      -32.864        1.158       14.466       12.998       10.126      209.251      168.946      102.541        0.117        0.024       43.140        6.567        0.023      331.817        0.077      863.322
01/09/2015  07:10:00      -35.605      -24.397       -2.535       18.324       11.029       16.571      335.760      121.644      274.608        0.130        0.037       43.162       12.159        0.079      331.792        0.033      863.318
01/09/2015  07:11:00      -24.334      -24.429       -5.777       12.819       11.098       10.395      164.334      123.168      108.054        0.081        0.020       34.481        6.178        0.032      331.826        0.093      863.321
01/09/2015  07:12:00      -53.515      -24.329      -11.197       11.275       14.668        8.500      127.120      215.155       72.254        0.200        0.021       58.785        5.661        0.009      331.855        0.139      863.322
01/09/2015  07:13:00      -51.644      -16.373       -9.705        9.789       12.562       10.664       95.828      157.808      113.731        0.170        0.018       54.177        7.946        0.022      331.848        0.127      863.321
01/09/2015  07:14:00      -55.451      -20.575      -10.841        7.476        9.774        9.659       55.894       95.527       93.298        0.193        0.012       59.146        4.806        0.007      331.857        0.143      863.313
01/09/2015  07:15:00      -53.903      -35.680      -10.567       12.876       10.706        8.153      165.798      114.612       66.471        0.232        0.017       64.642        7.284        0.013      331.809        0.065      863.309
01/09/2015  07:16:00      -58.735      -35.463       -7.269       17.652       12.935       12.430      311.596      167.305      154.498        0.270        0.032       68.610       10.851        0.025      331.830        0.097      863.308
01/09/2015  07:17:00      -77.215      -24.311       -9.709       16.181       18.691        9.546      261.809      349.351       91.127        0.367        0.035       80.952        3.125        0.001      331.759       -0.020      863.313
01/09/2015  07:18:00      -86.720       -8.735      -14.138       10.781        9.581        8.907      116.226       91.790       79.341        0.404        0.014       87.159        5.117        0.003      331.786        0.024      863.310
01/09/2015  07:19:00      -97.781      -14.802      -10.967       17.364       14.362       11.607      301.499      206.253      134.727        0.527        0.032       98.895        8.727        0.008      331.761       -0.016      863.309
01/09/2015  07:20:00      -95.709      -17.962      -16.597       14.880       13.352       11.309      221.421      178.280      127.885        0.514        0.026       97.380        5.741        0.003      331.726       -0.073      863.311
01/09/2015  07:21:00     -101.232      -13.361      -12.360       19.438       17.526       12.371      377.828      307.174      153.039        0.571        0.042      102.109        5.058        0.002      331.731       -0.064      863.322
01/09/2015  07:22:00     -102.318      -11.817      -16.715       17.439       15.650       12.571      304.133      244.935      158.035        0.580        0.035      102.998        9.991        0.009      331.767       -0.005      863.341
01/09/2015  07:23:00      -91.213      -10.297      -13.309       21.200       18.511       13.481      449.427      342.661      181.725        0.479        0.049       91.792       10.573        0.013      331.716       -0.089      863.350
01/09/2015  07:24:00     -120.951       -4.876      -11.010       28.756       18.418       17.919      826.926      339.217      321.094        0.813        0.074      121.049       12.905        0.011      331.737       -0.054      863.364
01/09/2015  07:25:00     -116.221       -9.797       -8.779       32.061       25.092       23.642     1027.915      629.603      558.965        0.795        0.111      116.633       15.797        0.018      331.726       -0.072      863.367
01/09/2015  07:26:00      -83.485      -27.450      -10.298       16.505       19.451       15.882      272.424      378.331      252.231        0.437        0.045       87.882        8.770        0.010      331.742       -0.046      863.374
01/09/2015  07:27:00      -48.509      -24.460      -13.681       22.063       15.637       12.114      486.797      244.501      146.749        0.201        0.044       54.327        8.686        0.026      331.829        0.096      863.388
01/09/2015  07:28:00      -57.536      -14.105      -10.977       16.923       16.982       13.553      286.400      288.391      183.686        0.219        0.038       59.239        7.946        0.018      331.837        0.111      863.403
01/09/2015  07:29:00      -64.374      -22.325      -16.954       11.571       21.017       11.147      133.889      441.694      124.263        0.281        0.035       68.135        9.905        0.021      331.864        0.153      863.416
01/09/2015  07:30:00      -61.054      -24.228       -8.596       16.616       17.508       13.079      276.083      306.524      171.048        0.257        0.038       65.685        9.165        0.019      331.863        0.153      863.427
01/09/2015  07:31:00      -81.128      -23.904      -20.575       13.979       13.731       11.773      195.416      188.543      138.594        0.405        0.026       84.576        8.339        0.010      331.951        0.297      863.447
01/09/2015  07:32:00      -75.039      -22.773      -12.776       12.945       11.895        7.540      167.573      141.495       56.853        0.334        0.018       78.418        3.961        0.003      331.947        0.291      863.456
01/09/2015  07:33:00      -59.994      -27.125       -7.744       15.992       13.486        9.122      255.751      181.871       83.210        0.246        0.026       65.841        9.024        0.019      331.999        0.375      863.473
01/09/2015  07:34:00      -52.116      -32.476      -10.404       13.201       12.460        8.063      174.263      155.259       65.018        0.214        0.020       61.407        3.298        0.003      332.046        0.456      863.490
01/09/2015  07:35:00      -70.966      -35.003       -8.673       10.659       12.878        9.830      113.606      165.850       96.632        0.336        0.019       79.129        4.207        0.003      332.051        0.463      863.508
01/09/2015  07:36:00      -75.655      -40.416       -6.037       12.563       15.835        9.819      157.841      250.745       96.407        0.395        0.025       85.773        6.739        0.006      332.116        0.570      863.534
01/09/2015  07:37:00      -59.744      -29.729       -0.499       28.225       13.316       11.000      796.671      177.311      121.005        0.277        0.055       66.732       11.801        0.031      332.108        0.556      863.567
01/09/2015  07:38:00      -31.840      -18.850        0.013       13.768        9.447       10.210      189.564       89.241      104.241        0.088        0.019       37.001        8.540        0.053      332.105        0.551      863.586
01/09/2015  07:39:00      -48.531      -22.767       -6.685       10.109       13.226        7.554      102.185      174.936       57.059        0.163        0.017       53.606        4.007        0.006      332.041        0.447      863.595
01/09/2015  07:40:00      -38.315      -17.572       -3.080        7.967        9.363        5.857       63.478       87.668       34.299        0.099        0.009       42.152        4.619        0.012      332.062        0.480      863.596
01/09/2015  07:41:00      -33.024      -11.312       -9.176       11.441        7.534        9.524      130.896       56.756       90.704        0.079        0.014       34.907        8.413        0.058      332.158        0.640      863.593
01/09/2015  07:42:00      -48.748       -1.104      -11.708        8.825        9.313       10.388       77.878       86.732      107.915        0.139        0.014       48.760        3.759        0.006      332.231        0.760      863.598
01/09/2015  07:43:00      -51.811       -9.057       -7.880       13.637        8.628       10.197      185.973       74.449      103.978        0.160        0.018       52.597       10.027        0.036      332.213        0.729      863.610
01/09/2015  07:44:00      -59.791      -28.177       -2.724       13.014       13.886       12.101      169.352      192.810      146.433        0.244        0.025       66.098        8.322        0.016      332.171        0.660      863.624
01/09/2015  07:45:00      -23.618      -26.769       -0.771       16.628       13.982       11.199      276.496      195.487      125.424        0.094        0.030       35.698        4.447        0.016      332.189        0.691      863.647
01/09/2015  07:46:00      -16.974        3.969        2.680        9.842       11.071        7.352       96.865      122.570       54.053        0.029        0.014       17.432        5.145        0.087      332.182        0.679      863.661
01/09/2015  07:47:00      -33.690       -0.824       -2.861       10.925        7.720        5.344      119.357       59.600       28.561        0.068        0.010       33.700        3.438        0.010      332.134        0.599      863.681
01/09/2015  07:48:00      -36.196      -11.935       -9.529        7.940        8.679        5.588       63.037       75.331       31.224        0.086        0.008       38.113        3.822        0.010      332.188        0.688      863.701
01/09/2015  07:49:00      -46.050      -12.265       -4.683       14.427       11.219       11.296      208.133      125.876      127.601        0.138        0.023       47.655        6.167        0.017      332.083        0.514      863.715
01/09/2015  07:50:00      -24.095      -11.592        2.718        8.250        7.359        8.017       68.067       54.152       64.276        0.045        0.009       26.738        5.652        0.045      332.091        0.527      863.724
01/09/2015  07:51:00      -36.321      -11.567       -4.740       14.478        8.179        6.093      209.599       66.898       37.122        0.089        0.016       38.119        6.231        0.027      332.087        0.522      863.747
01/09/2015  07:52:00      -34.659       -8.387       -1.258       15.953       10.694        8.468      254.512      114.368       71.702        0.086        0.022       35.660        8.444        0.056      332.070        0.495      863.766
01/09/2015  07:53:00      -55.384        3.501       -4.021       20.843        9.552        8.928      434.411       91.239       79.710        0.185        0.030       55.494        8.362        0.023      332.103        0.549      863.778
01/09/2015  07:54:00      -54.075       -7.004       -2.316       10.893       10.146        7.673      118.664      102.949       58.878        0.163        0.014       54.527        3.995        0.005      332.071        0.496      863.793
01/09/2015  07:55:00      -38.979        7.418       -6.624       12.226       15.056        7.422      149.465      226.676       55.091        0.102        0.022       39.679        4.995        0.016      332.073        0.498      863.804
01/09/2015  07:56:00      -69.690      -14.270       -6.350       12.539       10.126        7.969      157.232      102.535       63.500        0.271        0.016       71.136        5.580        0.006      332.102        0.547      863.835
01/09/2015  07:57:00      -64.627      -19.849       -0.292       24.124       18.357       14.026      581.950      336.983      196.735        0.284        0.056       67.606       10.914        0.026      332.124        0.584      863.857
01/09/2015  07:58:00      -80.212      -34.038       -0.948       14.692       18.945       10.885      215.849      358.899      118.483        0.414        0.035       87.135        8.542        0.010      332.125        0.584      863.867
01/09/2015  07:59:00      -58.596      -18.098        0.557       21.659       15.574        9.432      469.094      242.550       88.966        0.228        0.040       61.327        5.324        0.008      332.182        0.678      863.873
01/09/2015  08:00:00      -35.284      -17.092        2.775       18.278       17.832       10.793      334.103      317.969      116.493        0.116        0.038       39.205       10.255        0.068      332.224        0.747      863.878
01/09/2015  08:01:00      -33.785      -19.123        3.594       19.579        9.685        8.726      383.351       93.800       76.137        0.104        0.028       38.822        7.101        0.033      332.256        0.801      863.893
01/09/2015  08:02:00      -51.970      -19.846       -0.876       14.867       12.456       12.866      221.019      155.143      165.521        0.182        0.027       55.630        9.351        0.028      332.229        0.757      863.899
01/09/2015  08:03:00      -43.824       -0.811       -2.903       10.953       14.084        8.492      119.959      198.358       72.110        0.116        0.020       43.831        6.683        0.023      332.227        0.752      863.895
01/09/2015  08:04:00      -19.682        8.224       -1.522       10.538       12.008        8.430      111.050      144.198       71.069        0.039        0.016       21.331        3.722        0.030      332.224        0.748      863.885
01/09/2015  08:05:00       -3.778        4.797        2.436        4.129        4.765        6.007       17.049       22.705       36.090        0.006        0.004        6.106        3.240        0.282      332.357        0.967      863.875
01/09/2015  08:06:00        9.639       11.434       15.559        8.966        5.796        5.271       80.389       33.591       27.786        0.030        0.007       14.954        4.082        0.075      332.394        1.026      863.875
01/09/2015  08:07:00       22.574       19.104        2.144       20.612        8.353        5.696      424.850       69.772       32.442        0.070        0.026       29.572        4.785        0.026      332.410        1.053      863.884
01/09/2015  08:08:00       35.978       39.217        5.536       10.660       11.815       11.190      113.638      139.605      125.207        0.162        0.019       53.220        8.128        0.023      332.387        1.016      863.880
01/09/2015  08:09:00       65.388       61.745        4.628       22.398       13.241       15.140      501.670      175.314      229.214        0.451        0.045       89.934       11.759        0.017      332.338        0.935      863.873
01/09/2015  08:10:00       74.149       68.851        6.155       15.043       17.351       18.542      226.285      301.056      343.803        0.557        0.044      101.186        8.957        0.008      332.303        0.879      863.872
01/09/2015  08:11:00      105.803       60.187       -5.075       18.756       18.685       18.740      351.785      349.124      351.201        0.795        0.053      121.724        5.248        0.002      332.239        0.774      863.872
01/09/2015  08:12:00      108.807       46.434       -0.600       19.959       19.547       18.641      398.347      382.086      347.482        0.756        0.056      118.300       12.770        0.012      332.217        0.738      863.884
01/09/2015  08:13:00       62.558       42.363       -2.657       31.414       20.878       18.533      986.817      435.885      343.460        0.374        0.088       75.552        9.380        0.015      332.234        0.764      863.896
01/09/2015  08:14:00       73.042       54.358        0.795       22.012       15.206       14.277      484.532      231.212      203.833        0.460        0.046       91.049        6.393        0.005      332.146        0.619      863.919
01/09/2015  08:15:00       83.439       40.799        9.727       23.233       15.769       20.333      539.759      248.649      413.449        0.496        0.060       92.880        8.118        0.008      332.187        0.687      863.931
01/09/2015  08:16:00      100.297       55.008        7.140       14.940       22.863       21.285      223.199      522.713      453.044        0.717        0.060      114.391       10.976        0.009      332.095        0.534      863.948
01/09/2015  08:17:00      102.599       65.966        3.519       13.289       17.503       18.605      176.598      306.344      346.142        0.786        0.041      121.976        6.857        0.003      332.024        0.419      863.969
01/09/2015  08:18:00       78.938       57.957        4.973       15.379       11.055       13.225      236.510      122.214      174.900        0.507        0.027       97.930        6.503        0.004      332.059        0.477      863.980
01/09/2015  08:19:00       92.523       54.140        8.836       18.058       20.856       18.101      326.097      434.985      327.636        0.633        0.054      107.199        6.897        0.004      332.057        0.472      863.996
01/09/2015  08:20:00       47.473       52.362       36.743       22.441       16.382       22.138      503.580      268.379      490.111        0.380        0.063       70.678        7.271        0.011      332.143        0.615      864.010
01/09/2015  08:21:00        5.122       49.549       59.939       26.464       28.950       27.458      700.338      838.128      753.915        0.418        0.115       49.813       20.615        0.171      332.206        0.718      864.020
01/09/2015  08:22:00       94.686       67.315       36.546       27.432       23.827       22.869      752.504      567.715      522.987        0.834        0.092      116.176       17.853        0.024      332.025        0.417      864.033
01/09/2015  08:23:00       88.147       47.716       15.506       14.363       15.780       19.577      206.293      249.023      383.243        0.556        0.042      100.233       11.610        0.013      331.982        0.350      864.043
01/09/2015  08:24:00       68.207       24.360        6.601       20.575       20.194       17.341      423.320      407.790      300.700        0.321        0.057       72.427       13.230        0.033      332.105        0.552      864.061
01/09/2015  08:25:00       71.448       37.073       11.494       24.378       18.692       19.497      594.295      349.375      380.117        0.397        0.066       80.494       11.087        0.019      332.158        0.637      864.068
01/09/2015  08:26:00       68.539       49.097        6.949       16.987       18.496       15.653      288.568      342.105      245.028        0.402        0.044       84.310        7.363        0.008      332.115        0.567      864.098
01/09/2015  08:27:00       67.038       53.900       14.393       21.495       16.457       18.486      462.034      270.847      341.726        0.434        0.054       86.019       13.094        0.023      332.139        0.607      864.110
01/09/2015  08:28:00       57.944       49.651       24.648       26.615       16.302       21.307      708.362      265.760      453.987        0.393        0.071       76.307       14.537        0.036      332.187        0.687      864.119
01/09/2015  08:29:00       13.060       38.187       42.608       26.616       32.997       31.644      708.405     1088.777     1001.328        0.312        0.140       40.359       23.001        0.325      332.285        0.849      864.132
01/09/2015  08:30:00       43.336       62.370       40.500       42.237       21.758       30.720     1783.970      473.432      943.696        0.530        0.160       75.948       29.650        0.152      332.213        0.730      864.131
01/09/2015  08:31:00       74.848       57.178       31.389        9.516       13.763       13.978       90.557      189.423      195.386        0.517        0.024       94.189        9.895        0.011      332.138        0.606      864.131
01/09/2015  08:32:00       77.414       37.836       11.984       15.410       13.533       14.991      237.480      183.155      224.724        0.411        0.032       86.166        7.408        0.007      332.178        0.674      864.134
01/09/2015  08:33:00       65.308       56.283       23.085        9.976       13.044       16.004       99.526      170.157      256.129        0.425        0.026       86.214       10.386        0.015      332.166        0.652      864.132
01/09/2015  08:34:00       70.426       57.643       24.325       19.227       12.962       21.785      369.672      168.009      474.566        0.494        0.051       91.008       15.944        0.031      332.221        0.742      864.131
01/09/2015  08:35:00       64.765       46.417       21.707       21.221       13.542       21.214      450.343      183.380      450.014        0.395        0.054       79.681        6.513        0.007      332.254        0.798      864.126
01/09/2015  08:36:00       54.748       40.107       28.530       21.871       16.543       20.932      478.358      273.664      438.129        0.330        0.060       67.867       12.959        0.036      332.288        0.854      864.127
01/09/2015  08:37:00       31.926       48.461       38.244       24.732       22.056       16.807      611.664      486.473      282.477        0.311        0.069       58.032       14.114        0.059      332.328        0.919      864.146
01/09/2015  08:38:00        8.213       20.476       32.696       25.528       28.435       21.236      651.686      808.568      450.977        0.173        0.096       22.062       19.171        0.755      332.368        0.986      864.165
01/09/2015  08:39:00       12.669       17.014       11.407       21.874       17.882       20.658      478.483      319.758      426.746        0.090        0.061       21.213       13.216        0.388      332.375        0.995      864.183
01/09/2015  08:40:00       11.138       25.375       28.834       17.297       16.500       11.529      299.180      272.265      132.920        0.115        0.035       27.712        7.669        0.077      332.410        1.054      864.197
01/09/2015  08:41:00       15.120       28.580       34.867       14.646       16.420        7.786      214.500      269.604       60.615        0.140        0.027       32.333        2.787        0.007      332.446        1.116      864.204
01/09/2015  08:42:00       18.898       46.515       40.212       21.125       24.310       16.019      446.256      590.997      256.601        0.272        0.065       50.207       10.640        0.045      332.443        1.108      864.209
01/09/2015  08:43:00       18.789       54.823       38.950       16.919       18.258       16.087      286.261      333.353      258.791        0.288        0.044       57.953       10.671        0.034      332.464        1.144      864.201
01/09/2015  08:44:00       10.319       37.663       49.213       16.881       21.580       12.583      284.964      465.703      158.343        0.243        0.045       39.051       11.531        0.087      332.496        1.196      864.199
01/09/2015  08:45:00        6.022       30.416       38.109       12.218       19.754        9.747      149.283      390.209       95.006        0.152        0.032       31.007       10.947        0.125      332.518        1.232      864.209
01/09/2015  08:46:00        2.804       11.605       26.466       10.134       13.204        7.088      102.706      174.334       50.243        0.059        0.016       11.939        5.455        0.209      332.581        1.337      864.220
01/09/2015  08:47:00       -8.403       12.749       25.228        6.871       13.541       11.769       47.207      183.357      138.518        0.062        0.018       15.269        8.976        0.346      332.666        1.478      864.229
01/09/2015  08:48:00      -16.088        5.977       12.667       10.110        9.703        5.147      102.218       94.152       26.495        0.034        0.011       17.163        3.103        0.033      332.638        1.429      864.235
01/09/2015  08:49:00      -24.911        1.517        4.756        7.977       11.143        7.801       63.625      124.156       60.863        0.045        0.012       24.957        7.409        0.088      332.545        1.277      864.237
01/09/2015  08:50:00      -25.559       -7.008       -1.650        6.871        6.631        5.472       47.208       43.973       29.948        0.041        0.006       26.503        3.770        0.020      332.581        1.338      864.248
01/09/2015  08:51:00      -33.347        0.935       -0.953        8.568        7.409        7.149       73.408       54.890       51.105        0.065        0.009       33.361        4.877        0.021      332.567        1.315      864.253
01/09/2015  08:52:00      -26.265       -5.847        0.268        6.305        5.789        5.973       39.753       33.516       35.678        0.042        0.005       26.908        4.415        0.027      332.553        1.291      864.251
01/09/2015  08:53:00       -6.404        4.780        5.127        7.943        7.142       10.047       63.094       51.006      100.933        0.015        0.011        7.991        7.544        0.891      332.704        1.540      864.250
01/09/2015  08:54:00        5.285       12.956       17.920        8.388       13.205        7.944       70.361      174.374       63.107        0.041        0.015       13.993        7.750        0.307      332.767        1.645      864.265
01/09/2015  08:55:00       -4.797        5.626       22.649        6.165       11.897       10.681       38.010      141.537      114.086        0.043        0.015        7.393        8.105        1.202      332.859        1.797      864.280
01/09/2015  08:56:00      -12.395       -7.617        3.464        6.471        8.869        6.166       41.871       78.660       38.022        0.019        0.008       14.548        4.549        0.098      332.771        1.650      864.299
01/09/2015  08:57:00      -29.245      -21.272        1.703       16.995       12.313        9.389      288.847      151.602       88.153        0.092        0.026       36.163        2.742        0.006      332.702        1.536      864.319
01/09/2015  08:58:00      -37.154      -13.691       -4.452       13.402        8.682        9.938      179.617       75.376       98.762        0.097        0.018       39.597        3.513        0.008      332.694        1.523      864.328
01/09/2015  08:59:00        0.986       14.408       11.390       11.359       10.163        8.742      129.037      103.287       76.415        0.032        0.015       14.441        5.880        0.166      332.823        1.737      864.325
01/09/2015  09:00:00       -2.822        9.990        0.231       15.118        9.750        9.676      228.562       95.054       93.625        0.026        0.021       10.381        9.357        0.812      332.760        1.632      864.329
01/09/2015  09:01:00        0.211        2.666       11.703       26.818       18.658       19.484      719.214      348.131      379.639        0.080        0.072        2.675       17.411       42.377      332.875        1.823      864.324
01/09/2015  09:02:00      -48.325      -20.554        4.180       22.855       19.095       11.374      522.369      364.621      129.372        0.190        0.051       52.515       12.844        0.060      332.765        1.640      864.324
01/09/2015  09:03:00      -18.756      -19.339        4.543       19.892       17.486       10.837      395.686      305.756      117.447        0.078        0.041       26.940       11.240        0.174      332.861        1.800      864.345
01/09/2015  09:04:00      -18.106       -7.337        1.108       15.151        9.880        7.610      229.565       97.609       57.906        0.038        0.019       19.536        6.229        0.102      332.902        1.868      864.358
01/09/2015  09:05:00      -39.831      -15.695        8.106       22.140       15.601       10.838      490.182      243.378      117.470        0.137        0.043       42.812        8.183        0.037      332.913        1.885      864.364
01/09/2015  09:06:00      -51.005      -25.431        4.680       33.126       15.641       11.936     1097.314      244.635      142.458        0.238        0.074       56.994        9.120        0.026      332.918        1.894      864.384
01/09/2015  09:07:00      -22.781      -16.352        4.504       11.971       14.840       10.631      143.300      220.222      113.013        0.064        0.024       28.042        6.777        0.058      333.041        2.097      864.393
01/09/2015  09:08:00      -10.634       -3.909       -0.317       11.070        7.265        6.030      122.555       52.778       36.364        0.017        0.011       11.330        3.288        0.084      333.187        2.338      864.379
01/09/2015  09:09:00      -12.648      -18.918        0.471       12.115       14.643        9.563      146.772      214.426       91.453        0.049        0.023       22.756        3.403        0.022      333.150        2.278      864.377
01/09/2015  09:10:00      -27.895      -18.534       -2.746       14.721        9.234        7.425      216.716       85.264       55.125        0.074        0.018       33.491        8.782        0.069      333.111        2.211      864.366
01/09/2015  09:11:00      -27.859      -27.784        4.982       13.868       12.069       10.752      192.333      145.658      115.614        0.101        0.023       39.346        7.186        0.033      333.170        2.308      864.356
01/09/2015  09:12:00      -23.990       10.070        7.483       20.691       19.688       14.658      428.102      387.610      214.850        0.088        0.052       26.018       12.057        0.215      333.358        2.620      864.348
01/09/2015  09:13:00      -37.815       47.604       -3.010       28.579       44.119       20.249      816.734     1946.454      410.005        0.344        0.159       60.796       27.755        0.208      333.361        2.625      864.342
01/09/2015  09:14:00      -57.499       56.039       -8.004       18.477       37.551       17.499      341.410     1410.052      306.227        0.428        0.103       80.290       13.293        0.027      333.155        2.283      864.333
01/09/2015  09:15:00      -55.121       41.910       -4.870       25.093       37.054       22.070      629.682     1373.028      487.095        0.365        0.124       69.244       21.187        0.094      333.207        2.370      864.324
01/09/2015  09:16:00      -11.610       73.377       -0.679       23.988       33.964       17.697      575.440     1153.571      313.200        0.378        0.102       74.290       15.132        0.041      333.341        2.593      864.314
01/09/2015  09:17:00       -1.310       79.387       -0.457       17.651       39.047       15.851      311.541     1524.655      251.270        0.420        0.104       79.398       16.055        0.041      333.393        2.679      864.305
01/09/2015  09:18:00      -12.742       19.936        9.506       15.953       16.130       15.455      254.514      260.175      238.869        0.070        0.038       23.660        9.245        0.153      333.597        3.017      864.305
01/09/2015  09:19:00      -67.908       36.176      -11.148       13.255       13.805       16.725      175.698      190.585      279.741        0.335        0.032       76.943        8.704        0.013      333.206        2.370      864.312
01/09/2015  09:20:00      -52.197       36.880       -8.448       16.762       21.216       16.111      280.963      450.122      259.563        0.257        0.050       63.911        4.171        0.004      333.298        2.520      864.321
01/09/2015  09:21:00      -37.543       -2.887      -15.749       23.366       15.324       10.081      545.980      234.823      101.635        0.127        0.044       37.654        5.971        0.025      333.255        2.448      864.322
01/09/2015  09:22:00      -33.552      -21.660       -9.233       33.695       20.147       12.966     1135.361      405.910      168.120        0.169        0.085       39.936       10.083        0.064      333.345        2.599      864.312
01/09/2015  09:23:00      -13.995       -9.543       -4.330       21.826       22.956       19.060      476.366      526.974      363.284        0.084        0.068       16.939       14.691        0.752      333.564        2.962      864.302
01/09/2015  09:24:00      -25.008       11.665        3.415       19.600       26.897       20.484      384.179      723.461      419.609        0.115        0.076       27.595        2.419        0.008      333.710        3.202      864.301
01/09/2015  09:25:00      -42.817       12.060       -5.294       30.099       46.132       22.324      905.960     2128.143      498.353        0.277        0.177       44.483       12.468        0.079      333.500        2.855      864.303
01/09/2015  09:26:00      -14.826       44.291       -6.463       15.363       25.902       12.458      236.022      670.907      155.212        0.164        0.053       46.707        5.821        0.016      333.637        3.084      864.314
01/09/2015  09:27:00       -5.045       29.443       12.623       16.900       20.103       14.465      285.600      404.118      209.229        0.098        0.045       29.872        9.817        0.108      334.010        3.700      864.318
01/09/2015  09:28:00       -8.779       11.301        9.336       22.864       28.043       19.785      522.759      786.423      391.440        0.100        0.085       14.310        6.946        0.236      333.977        3.647      864.317
01/09/2015  09:29:00       12.552      -24.973       13.130       50.781       28.862       33.244     2578.660      833.016     1105.181        0.273        0.226       27.950       24.408        0.763      333.899        3.517      864.318
01/09/2015  09:30:00      -36.542      -36.982       -4.024       35.241       23.953       23.510     1241.904      573.724      552.701        0.254        0.118       51.990       15.733        0.092      333.598        3.017      864.316
01/09/2015  09:31:00      -22.322       -9.284        6.914       26.404       19.722       11.963      697.177      388.956      143.108        0.093        0.061       24.176       13.979        0.334      333.767        3.297      864.313
01/09/2015  09:32:00       -9.016      -21.273        6.460       18.144       12.918       11.900      329.197      166.876      141.604        0.061        0.032       23.105        9.917        0.184      333.848        3.432      864.319
01/09/2015  09:33:00      -14.875       -2.800        1.026       16.965       10.859       13.021      287.797      117.927      169.535        0.040        0.029       15.136        9.649        0.406      333.918        3.548      864.309
01/09/2015  09:34:00      -22.212      -22.156       -1.858       19.496       16.774       12.566      380.084      281.362      157.915        0.090        0.041       31.373        6.443        0.042      333.781        3.322      864.298
01/09/2015  09:35:00      -22.383       -1.149       -6.706       15.074        8.184        8.229      227.231       66.976       67.719        0.045        0.018       22.412        8.014        0.128      333.831        3.404      864.297
01/09/2015  09:36:00       -4.043        8.737       22.187       16.922       14.456       15.044      286.370      208.967      226.312        0.065        0.036        9.627       11.006        1.307      334.320        4.215      864.289
01/09/2015  09:37:00       32.670       29.454       19.178       21.616       21.546       18.288      467.269      464.224      334.452        0.178        0.063       43.987        9.877        0.050      334.019        3.716      864.287
01/09/2015  09:38:00       58.771       22.652       16.827       23.792       23.151       17.852      566.037      535.961      318.709        0.284        0.071       62.985       13.527        0.046      333.730        3.237      864.300
01/09/2015  09:39:00       35.939       36.893       23.515       21.561       19.967       25.359      464.883      398.687      643.092        0.236        0.075       51.504       15.329        0.089      333.877        3.480      864.298
01/09/2015  09:40:00       14.606       27.763       12.957       19.102       25.138       18.765      364.872      631.906      352.111        0.125        0.067       31.371       12.445        0.157      334.115        3.876      864.299
01/09/2015  09:41:00        4.548       42.760        5.452       14.972       21.444       22.437      224.154      459.825      503.404        0.153        0.059       43.001       16.252        0.143      334.118        3.880      864.299
01/09/2015  09:42:00       -9.854       -4.240       13.050       11.458       20.683       20.852      131.283      427.768      434.797        0.064        0.050       10.728       17.427        2.639      334.460        4.450      864.304
01/09/2015  09:43:00       16.388      -75.855       11.007       44.450       35.605       29.490     1975.811     1267.683      869.639        0.513        0.206       77.605       17.826        0.053      334.283        4.155      864.301
01/09/2015  09:44:00       31.339       -1.114       19.285       42.401       34.220       28.084     1797.880     1170.996      788.687        0.256        0.188       31.359       19.686        0.394      334.469        4.462      864.296
01/09/2015  09:45:00       13.114       32.942       54.670       31.382       35.725       24.467      984.840     1276.254      598.611        0.355        0.143       35.457       25.509        0.518      334.632        4.735      864.281
01/09/2015  09:46:00       21.231       -3.029       19.801       29.567       29.058       32.130      874.188      844.360     1032.344        0.180        0.138       21.446       24.903        1.348      334.408        4.361      864.270
01/09/2015  09:47:00        3.944      -22.865       19.027       33.254       52.700       28.304     1105.845     2777.326      801.131        0.279        0.234       23.203       30.490        1.727      334.444        4.421      864.248
01/09/2015  09:48:00       61.572       69.734       53.079       43.999       29.080       24.270     1935.940      845.623      589.022        0.742        0.169       93.026       26.073        0.079      334.152        3.937      864.233
01/09/2015  09:49:00       23.178       31.612      -22.755       37.601       30.233       14.223     1413.815      914.039      202.304        0.229        0.127       39.199        8.182        0.044      334.192        4.002      864.227
01/09/2015  09:50:00       -0.170       39.756       -1.491       39.380       18.423       18.615     1550.754      339.424      346.521        0.191        0.112       39.756        8.059        0.041      334.344        4.255      864.203
01/09/2015  09:51:00       41.307       81.597      -17.509       30.965       20.630       18.869      958.857      425.612      356.042        0.521        0.087       91.457       13.807        0.023      334.356        4.276      864.190
01/09/2015  09:52:00       18.283       56.586       16.853       25.760       27.939       27.633      663.582      780.607      763.580        0.301        0.110       59.466       18.584        0.098      334.676        4.807      864.185
01/09/2015  09:53:00       23.650       46.793       52.216       32.094       36.138       33.016     1030.030     1305.980     1090.062        0.445        0.171       52.430       27.102        0.267      334.625        4.721      864.173
01/09/2015  09:54:00       23.420       50.160       44.599       29.791       25.626       25.357      887.529      656.691      642.998        0.362        0.109       55.358       14.142        0.065      334.530        4.563      864.175
01/09/2015  09:55:00       19.440       25.554       19.841       24.707       23.495       22.534      610.417      551.993      507.771        0.155        0.084       32.107       13.507        0.177      334.557        4.607      864.166
01/09/2015  09:56:00       47.251       40.507       -0.358       24.613       24.704       25.957      605.809      610.288      673.774        0.288        0.094       62.237       17.809        0.082      334.500        4.513      864.143
01/09/2015  09:57:00       51.226       52.540        1.908       16.735       17.926       16.124      280.073      321.338      259.976        0.312        0.043       73.380        6.302        0.007      334.553        4.601      864.131
01/09/2015  09:58:00       42.407       39.018       18.552       27.702       30.245       30.188      767.407      914.744      911.314        0.313        0.130       57.626       14.857        0.066      334.640        4.744      864.118
01/09/2015  09:59:00       27.533       22.634       20.024       14.928       29.061       17.207      222.847      844.562      296.096        0.152        0.068       35.643       15.091        0.179      334.710        4.863      864.115
01/09/2015  10:00:00       -0.671       59.453        2.065       20.406       36.138       19.091      416.392     1305.933      364.450        0.281        0.104       59.457       19.237        0.105      334.681        4.815      864.108
01/09/2015  10:01:00       -7.618       45.325        4.680       16.444       37.558       20.855      270.409     1410.609      434.914        0.212        0.106       45.961       19.415        0.178      334.795        5.003      864.110
01/09/2015  10:02:00       -4.049       63.697       -8.647       12.806       31.263       19.978      164.002      977.376      399.113        0.284        0.077       63.825       18.272        0.082      334.491        4.501      864.107
01/09/2015  10:03:00       34.545       30.126        3.504       39.151       26.827       19.967     1532.791      719.664      398.686        0.238        0.133       45.837       15.119        0.109      334.686        4.823      864.097
01/09/2015  10:04:00       51.421       43.808        5.189       20.231       15.327       23.303      409.288      234.918      543.012        0.289        0.059       67.552        8.371        0.015      334.596        4.673      864.095
01/09/2015  10:05:00       47.198       47.388       -4.940       21.147       12.694       19.370      447.187      161.127      375.200        0.274        0.049       66.882       13.688        0.042      334.453        4.436      864.100
01/09/2015  10:06:00       10.505        7.937       11.640       14.281       15.572       16.680      203.934      242.485      278.211        0.052        0.036       13.166       13.763        1.093      334.880        5.145      864.112
01/09/2015  10:07:00       -4.809        6.673        2.128        5.774       10.151        6.755       33.336      103.051       45.626        0.013        0.009        8.225        3.434        0.174      335.134        5.566      864.120
01/09/2015  10:08:00      -17.779      -22.568       -2.276       24.940       20.055       15.459      622.005      402.214      238.976        0.105        0.063       28.730       13.665        0.226      334.927        5.223      864.131
01/09/2015  10:09:00       22.220        8.054        9.377       12.651       22.387       22.578      160.035      501.197      509.748        0.091        0.059       23.634        9.696        0.168      335.125        5.552      864.133
01/09/2015  10:10:00      -64.203      -32.090       14.621       47.582       36.615       28.679     2264.072     1340.666      822.511        0.490        0.221       71.776       31.018        0.187      334.988        5.323      864.124
01/09/2015  10:11:00      -15.714      -71.027        0.946       22.454       40.330       17.738      504.175     1626.542      314.641        0.387        0.122       72.745       16.250        0.050      334.759        4.944      864.122
01/09/2015  10:12:00      -48.591       -0.771        5.341       39.682       18.501       25.642     1574.672      342.269      657.497        0.248        0.129       48.597       25.627        0.278      335.009        5.358      864.102
01/09/2015  10:13:00      -28.353        8.357      -21.582       41.067       35.415       26.123     1686.465     1254.240      682.409        0.248        0.181       29.559       13.385        0.205      335.013        5.365      864.100
01/09/2015  10:14:00      -25.310      -15.446       -2.784       31.079       51.262       26.193      965.922     2627.839      686.064        0.258        0.214       29.651       23.714        0.640      335.061        5.445      864.093
01/09/2015  10:15:00      -24.828      -79.431      -18.524       56.867       48.846       32.102     3233.852     2385.972     1030.542        0.696        0.333       83.221       41.318        0.246      334.836        5.071      864.085
01/09/2015  10:16:00      -28.814       -0.483       -0.134       35.618       39.170       29.293     1268.662     1534.295      858.081        0.225        0.183       28.818       22.456        0.607      334.817        5.040      864.067
01/09/2015  10:17:00        1.414      -27.837       -5.201       32.253       25.734       25.287     1040.240      662.233      639.416        0.157        0.117       27.873       13.245        0.226      334.844        5.084      864.053
01/09/2015  10:18:00      -26.076      -20.111       -3.032       26.411       22.648       17.135      697.563      512.951      293.593        0.130        0.075       32.931       10.404        0.100      334.943        5.249      864.034
01/09/2015  10:19:00      -39.533      -33.714       -2.800       42.388       28.256       23.863     1796.747      798.395      569.440        0.294        0.158       51.956       21.652        0.174      334.824        5.051      864.028
01/09/2015  10:20:00      -67.974      -15.903       -2.881       32.686       28.493       18.850     1068.394      811.834      355.309        0.356        0.112       69.810       17.548        0.063      334.728        4.892      864.020
01/09/2015  10:21:00      -36.353      -26.596       -0.068       27.670       22.489       15.301      765.618      505.740      234.116        0.177        0.075       45.043       12.729        0.080      334.765        4.955      864.002
01/09/2015  10:22:00      -68.541      -32.343       -3.065       30.636       13.414       10.486      938.584      179.922      109.953        0.349        0.061       75.789       10.600        0.020      334.737        4.908      863.980
01/09/2015  10:23:00      -41.821      -21.615        4.669       20.303       19.775       13.191      412.221      391.044      174.011        0.161        0.049       47.077       10.023        0.045      334.821        5.045      863.953
01/09/2015  10:24:00      -41.948      -35.162       -0.120       21.097       23.114       13.878      445.070      534.271      192.609        0.208        0.059       54.736        7.656        0.020      334.873        5.133      863.927
01/09/2015  10:25:00      -49.638      -18.729        3.738       29.787       19.593       14.504      887.254      383.896      210.358        0.215        0.074       53.053       16.814        0.100      334.968        5.291      863.899
01/09/2015  10:26:00      -82.458      -27.138       -6.572       30.373       23.951       14.055      922.499      573.651      197.554        0.464        0.085       86.809        3.927        0.002      334.699        4.844      863.888
01/09/2015  10:27:00      -18.832      -18.122       -8.822       35.440       27.670       13.095     1256.015      765.616      171.481        0.148        0.110       26.136       12.356        0.224      334.791        4.996      863.874
01/09/2015  10:28:00      -27.384      -30.186        4.181       22.249       19.419       16.431      494.998      377.079      269.993        0.141        0.057       40.756       14.019        0.118      334.907        5.189      863.867
01/09/2015  10:29:00      -53.669      -51.470       -5.431       11.429        8.987       11.719      130.625       80.758      137.340        0.295        0.017       74.361        3.730        0.003      334.750        4.929      863.861
01/09/2015  10:30:00      -33.567      -39.724        0.795       25.206       28.337       14.755      635.335      802.984      217.716        0.218        0.083       52.007       19.043        0.134      334.907        5.189      863.853
01/09/2015  10:31:00      -16.875      -74.294        2.498       21.018       35.517       17.105      441.756     1261.478      292.597        0.390        0.100       76.187       12.525        0.027      334.913        5.200      863.819
01/09/2015  10:32:00      -71.945      -68.550        7.316       39.047       38.332       27.793     1524.704     1469.374      772.472        0.685        0.188       99.374       30.810        0.096      335.023        5.382      863.801
01/09/2015  10:33:00      -25.450      -35.437       16.781       29.509       28.226       15.395      870.771      796.691      236.998        0.204        0.095       43.629       15.998        0.134      335.080        5.477      863.775
01/09/2015  10:34:00      -38.797        2.157        3.954       26.130       24.340       15.670      682.802      592.430      245.534        0.152        0.076       38.857       16.003        0.170      335.257        5.772      863.768
01/09/2015  10:35:00      -44.711      -12.909        0.611       23.200       13.519       13.898      538.256      182.770      193.155        0.154        0.046       46.537       13.290        0.082      335.103        5.516      863.767
01/09/2015  10:36:00      -54.490      -13.741       -2.124       25.902       26.410       14.482      670.938      697.464      209.716        0.237        0.079       56.196       13.019        0.054      335.074        5.466      863.762
01/09/2015  10:37:00      -45.187       11.771       18.239       33.031       26.986       20.168     1091.029      728.221      406.766        0.237        0.111       46.695       15.419        0.109      335.220        5.709      863.748
01/09/2015  10:38:00      -36.540      -41.049       -1.807       34.473       28.172       17.156     1188.420      793.671      294.343        0.265        0.114       54.956       16.843        0.094      335.085        5.485      863.720
01/09/2015  10:39:00      -77.612      -28.924       -0.988       32.441       27.396       17.675     1052.438      750.550      312.401        0.449        0.106       82.827       12.558        0.023      334.944        5.251      863.702
01/09/2015  10:40:00      -62.815      -47.100        7.156       32.004       27.162       22.135     1024.251      737.781      489.945        0.423        0.113       78.512       21.857        0.078      335.159        5.608      863.675
01/09/2015  10:41:00      -65.167      -69.764       -5.944       25.012       22.879       13.416      625.580      523.439      179.981        0.524        0.066       95.466       10.196        0.011      334.970        5.293      863.662
01/09/2015  10:42:00      -18.634       -0.686        9.513       13.452       15.671       10.238      180.950      245.571      104.825        0.048        0.027       18.647        8.715        0.218      335.390        5.992      863.641
01/09/2015  10:43:00       19.805       17.915        3.953       15.207       20.502       14.319      231.240      420.347      205.038        0.079        0.043       26.706        6.801        0.065      335.357        5.938      863.622
01/09/2015  10:44:00       31.392       30.414       -0.698       38.779       32.270       20.908     1503.823     1041.384      437.135        0.245        0.149       43.709       18.391        0.177      335.322        5.879      863.578
01/09/2015  10:45:00      125.587       50.177       20.666       63.223       55.807       39.458     3997.143     3114.443     1556.968        1.369        0.433      135.240       31.009        0.053      335.257        5.770      863.558
01/09/2015  10:46:00      160.753       84.310       11.159       41.421       40.368       38.988     1715.713     1629.584     1520.067        1.897        0.243      181.520       18.047        0.010      335.013        5.365      863.536
01/09/2015  10:47:00      112.360       80.468       24.272       45.164       34.999       39.670     2039.810     1224.902     1573.676        1.226        0.242      138.203       25.041        0.033      335.076        5.470      863.518
01/09/2015  10:48:00      117.841       65.012        8.609       46.360       34.210       33.476     2149.269     1170.329     1120.664        1.131        0.222      134.585       20.844        0.024      335.076        5.470      863.503
01/09/2015  10:49:00       39.139       18.052        6.875       52.346       36.426       29.965     2740.058     1326.886      897.917        0.343        0.248       43.102       12.275        0.081      335.402        6.012      863.500
01/09/2015  10:50:00        5.317        6.260       10.775       39.214       31.402       25.991     1537.744      986.076      675.531        0.169        0.160        8.213       19.166        5.445      335.611        6.359      863.496
01/09/2015  10:51:00       -2.360       -5.632       37.111       20.429       45.623       22.403      417.329     2081.495      501.906        0.221        0.150        6.107       18.813        9.491      335.837        6.736      863.492
01/09/2015  10:52:00       33.955       44.602       19.492       28.994       30.965       38.389      840.633      958.851     1473.750        0.340        0.164       56.056       17.728        0.100      335.771        6.627      863.493
01/09/2015  10:53:00       34.242       16.934       29.895       50.812       58.006       49.544     2581.829     3364.728     2454.614        0.538        0.420       38.201       49.359        1.669      335.792        6.662      863.491
01/09/2015  10:54:00       58.005       89.198       89.044       50.854       43.479       36.085     2586.112     1890.464     1302.144        1.251        0.289      106.400       39.008        0.134      335.467        6.120      863.494
01/09/2015  10:55:00      113.197       50.859       27.201       35.339       52.284       37.838     1248.866     2733.647     1431.746        1.078        0.271      124.097       28.306        0.052      335.210        5.692      863.492
01/09/2015  10:56:00       33.228       39.367       34.155       35.689       29.708       29.059     1273.687      882.582      844.416        0.341        0.150       51.516       17.573        0.116      335.800        6.674      863.482
01/09/2015  10:57:00       44.826       38.263       46.162       37.345       36.633       34.706     1394.669     1341.954     1204.536        0.477        0.197       58.936       22.034        0.140      335.592        6.329      863.466
01/09/2015  10:58:00       38.055       58.400       52.230       47.216       32.825       31.103     2229.393     1077.468      967.394        0.593        0.214       69.704       23.390        0.113      335.761        6.610      863.453
01/09/2015  10:59:00      -16.921       23.424       45.796       20.067       41.447       32.504      402.676     1717.827     1056.521        0.305        0.159       28.896       30.020        1.079      336.060        7.109      863.429
01/09/2015  11:00:00       48.291      -51.064       24.133       53.077       43.719       42.807     2817.184     1911.393     1832.478        0.604        0.328       70.282       27.047        0.148      335.790        6.658      863.413
01/09/2015  11:01:00       55.769      -58.220       15.458       63.639       67.871       51.236     4049.898     4606.525     2625.165        0.901        0.564       80.621       49.632        0.379      335.802        6.679      863.379
01/09/2015  11:02:00       92.726      -46.747       24.926       37.229       60.208       50.269     1385.962     3624.948     2526.958        0.947        0.377      103.843       46.782        0.203      335.526        6.218      863.356
01/09/2015  11:03:00       36.917      -38.771       18.384       41.825       64.416       47.473     1749.341     4149.415     2253.677        0.568        0.408       53.536       42.539        0.631      335.718        6.539      863.310
01/09/2015  11:04:00       74.417      -61.982       -3.656       39.863       50.013       40.458     1589.072     2501.292     1636.839        0.756        0.286       96.849       33.210        0.118      335.623        6.380      863.296
01/09/2015  11:05:00       31.716        7.200       19.802       36.818       25.923       32.009     1355.576      671.984     1024.552        0.225        0.153       32.523       17.535        0.291      335.732        6.561      863.274
01/09/2015  11:06:00        8.083       -6.308       34.685       48.465       55.362       42.590     2348.839     3064.997     1813.893        0.427        0.361       10.253       38.882       14.381      335.870        6.791      863.261
01/09/2015  11:07:00       86.452       82.987       56.830       52.005       40.645       40.788     2704.522     1651.994     1663.628        1.180        0.301      119.836       32.280        0.073      335.536        6.235      863.258
01/09/2015  11:08:00       93.156       59.067       45.798       47.899       33.745       35.887     2294.331     1138.749     1287.890        0.949        0.236      110.304       23.765        0.046      335.618        6.373      863.245
01/09/2015  11:09:00       85.459       75.054       16.170       30.869       16.831       22.179      952.887      283.288      491.930        0.746        0.086      113.738       12.154        0.011      335.384        5.982      863.221
01/09/2015  11:10:00       53.808       48.599       23.660       43.290       37.377       39.181     1873.991     1397.032     1535.184        0.531        0.240       72.507       26.603        0.135      335.585        6.317      863.206
01/09/2015  11:11:00       37.237       41.159       22.237       36.702       30.377       37.852     1347.041      922.783     1432.801        0.364        0.185       55.504       23.577        0.180      335.893        6.830      863.183
01/09/2015  11:12:00       39.782       33.224       -3.481       33.771       34.589       34.382     1140.496     1196.396     1182.136        0.311        0.176       51.831       20.848        0.162      335.934        6.899      863.176
01/09/2015  11:13:00       66.219       39.827       17.306       62.275       38.778       35.017     3878.217     1503.738     1226.184        0.644        0.330       77.273       24.273        0.099      335.956        6.935      863.171
01/09/2015  11:14:00      114.341       68.653       -3.760       50.563       38.378       32.171     2556.573     1472.885     1034.993        1.143        0.253      133.368       22.409        0.028      335.645        6.417      863.161
01/09/2015  11:15:00       35.537       31.684        8.734       34.083       37.585       25.372     1161.634     1412.614      643.728        0.278        0.161       47.610       22.088        0.215      336.170        7.292      863.156
01/09/2015  11:16:00      -26.694       -9.361       15.982       29.238       56.899       23.813      854.848     3237.505      567.073        0.286        0.233       28.288       17.953        0.403      336.158        7.271      863.150
01/09/2015  11:17:00       28.986       20.950        4.237       30.025       36.706       27.873      901.525     1347.337      776.916        0.216        0.151       35.764       19.172        0.287      336.229        7.390      863.132
01/09/2015  11:18:00       56.439       52.790       -0.946       38.322       35.614       36.409     1468.567     1268.358     1325.617        0.502        0.203       77.279       20.946        0.073      336.144        7.249      863.122
01/09/2015  11:19:00       56.066       54.699       42.584       62.649       46.346       48.334     3924.928     2147.949     2336.191        0.818        0.420       78.329       39.748        0.258      336.290        7.493      863.109
01/09/2015  11:20:00       64.601       73.872       23.732       42.799       38.301       39.380     1831.722     1466.994     1550.762        0.752        0.242       98.135       29.415        0.090      336.149        7.257      863.101
01/09/2015  11:21:00       64.618       63.666       -5.441       41.108       47.418       29.503     1689.899     2248.483      870.442        0.653        0.240       90.713       25.680        0.080      336.084        7.149      863.101
01/09/2015  11:22:00       58.779       78.736        9.576       51.148       40.300       42.266     2616.137     1624.113     1786.395        0.789        0.301       98.256       32.595        0.110      336.011        7.027      863.095
01/09/2015  11:23:00       53.707       29.843       17.161       46.401       32.587       27.788     2153.082     1061.891      772.166        0.403        0.199       61.442       13.155        0.046      335.985        6.982      863.083
01/09/2015  11:24:00       74.689       57.917       33.628       44.796       40.558       33.583     2006.703     1644.953     1127.810        0.742        0.239       94.514       17.754        0.035      335.964        6.948      863.047
01/09/2015  11:25:00      121.942       84.297       12.280       27.163       23.852       31.286      737.842      568.934      978.809        1.221        0.114      148.242       19.078        0.017      335.784        6.650      863.021
01/09/2015  11:26:00      107.943       79.242       14.719       32.417       27.884       24.412     1050.880      777.544      595.962        1.029        0.121      133.907       12.743        0.009      335.761        6.610      862.991
01/09/2015  11:27:00       71.927       67.721       19.295       52.209       48.242       40.762     2725.800     2327.280     1661.558        0.842        0.336       98.791       13.777        0.019      336.184        7.314      862.963
01/09/2015  11:28:00       43.702       61.696        7.682       33.317       35.482       29.707     1110.037     1258.995      882.498        0.451        0.163       75.606       24.791        0.108      336.209        7.358      862.939
01/09/2015  11:29:00       68.283       64.538        2.330       48.639       33.911       30.176     2365.783     1149.964      910.582        0.663        0.221       93.956       17.957        0.037      336.106        7.184      862.919
01/09/2015  11:30:00       73.587       44.499        1.772       46.151       34.639       28.721     2129.889     1199.846      824.869        0.578        0.208       85.995       16.521        0.037      336.094        7.165      862.882
01/09/2015  11:31:00       34.011       83.512       83.859       61.068       59.661       35.016     3729.320     3559.481     1226.142        1.184        0.426       90.172       26.924        0.089      336.353        7.598      862.858
01/09/2015  11:32:00       45.126       59.581       59.279       52.388       37.754       31.369     2744.555     1425.372      984.013        0.713        0.258       74.741       18.151        0.059      336.226        7.384      862.841
01/09/2015  11:33:00        6.821       97.276      109.031       42.940       46.460       43.196     1843.880     2158.571     1865.875        1.363        0.293       97.515       34.136        0.123      336.314        7.532      862.833
01/09/2015  11:34:00      100.599       61.587       50.613       56.276       42.385       29.882     3167.020     1796.522      892.946        1.116        0.293      117.954       22.950        0.038      335.922        6.878      862.823
01/09/2015  11:35:00      106.176       58.084       38.301       56.855       52.948       38.655     3232.445     2803.460     1494.243        1.182        0.377      121.025       34.678        0.082      336.062        7.112      862.816
01/09/2015  11:36:00       97.087       60.739       18.788       33.065       26.993       25.270     1093.326      728.639      638.553        0.796        0.123      114.521       17.704        0.024      335.899        6.839      862.806
01/09/2015  11:37:00       59.574       79.360        6.300       50.538       29.956       25.529     2554.098      897.385      651.714        0.699        0.205       99.232       21.825        0.048      335.969        6.957      862.804
01/09/2015  11:38:00       52.131       66.653       29.796       39.830       47.997       51.896     1586.425     2303.754     2693.150        0.731        0.329       84.618       39.010        0.213      336.182        7.312      862.771
01/09/2015  11:39:00       65.913      106.528       85.978       69.426       38.940       40.665     4819.996     1516.352     1653.647        1.554        0.399      125.271       45.997        0.135      336.057        7.104      862.754
01/09/2015  11:40:00       43.016       30.712       55.393       41.033       26.633       18.558     1683.742      709.338      344.406        0.430        0.137       52.854       12.230        0.054      336.169        7.291      862.740
01/09/2015  11:41:00       12.316       23.342       56.051       33.477       32.505       22.493     1120.685     1056.568      505.955        0.326        0.134       26.392       27.180        1.061      336.415        7.702      862.725
01/09/2015  11:42:00       15.500       31.822       41.284       25.495       35.136       21.299      650.004     1234.525      453.668        0.265        0.117       35.396       17.199        0.236      336.579        7.976      862.718
01/09/2015  11:43:00       19.737       32.414       39.995       41.705       36.411       36.081     1739.279     1325.782     1301.811        0.370        0.218       37.950       14.214        0.140      336.555        7.935      862.695
01/09/2015  11:44:00       27.307      -17.466       21.617       34.916       47.453       33.307     1219.158     2251.747     1109.352        0.305        0.229       32.415       28.070        0.750      336.604        8.017      862.687
01/09/2015  11:45:00       79.039       63.997       20.779       59.769       42.279       42.636     3572.356     1787.518     1817.828        0.897        0.359      101.699       22.592        0.049      336.445        7.751      862.670
01/09/2015  11:46:00       80.153       68.427       38.188       68.157       44.670       45.195     4645.314     1995.411     2042.618        1.062        0.434      105.389       23.854        0.051      336.484        7.816      862.620
01/09/2015  11:47:00      113.585       81.737       44.423       51.011       38.028       33.077     2602.088     1446.095     1094.071        1.335        0.257      139.938       11.376        0.007      336.084        7.147      862.602
01/09/2015  11:48:00      128.147       73.582       27.083       54.045       43.151       43.232     2920.822     1861.968     1868.969        1.461        0.333      147.770       26.242        0.032      336.054        7.099      862.565
01/09/2015  11:49:00       31.247       38.252       29.784       61.142       41.893       24.697     3738.329     1754.984      609.928        0.471        0.305       49.392       15.052        0.093      336.459        7.776      862.545
01/09/2015  11:50:00       -6.801       47.010       73.327       30.743       41.891       37.533      945.127     1754.865     1408.711        0.587        0.205       47.500       34.667        0.533      336.967        8.623      862.533
01/09/2015  11:51:00       97.372       58.797       27.381       63.050       65.104       57.681     3975.246     4238.530     3327.150        1.261        0.577      113.747       25.537        0.050      336.510        7.861      862.520
01/09/2015  11:52:00      117.554       67.887       35.676       46.186       44.000       51.314     2133.144     1935.973     2633.123        1.320        0.335      135.748       33.418        0.061      336.296        7.502      862.527
01/09/2015  11:53:00       46.136       13.160        5.299       31.502       24.881       23.207      992.367      619.076      538.582        0.224        0.108       47.976       13.031        0.074      336.504        7.850      862.527
01/09/2015  11:54:00       32.882       32.935       22.505       18.876       31.274       23.473      356.295      978.078      550.993        0.228        0.094       46.539       13.264        0.081      336.550        7.929      862.500
01/09/2015  11:55:00      119.296       67.372       42.396       57.676       41.208       39.148     3326.577     1698.067     1532.540        1.356        0.328      137.005       29.193        0.045      336.396        7.670      862.496
01/09/2015  11:56:00       98.755       75.169       63.007       57.223       49.836       40.343     3274.469     2483.600     1627.538        1.338        0.369      124.109       30.487        0.060      336.393        7.664      862.483
01/09/2015  11:57:00       61.604       86.127       62.492       70.215       61.914       58.853     4930.106     3833.327     3463.644        1.367        0.611      105.891       52.724        0.248      336.502        7.845      862.464
01/09/2015  11:58:00       30.682       27.332       52.494       44.153       39.037       30.723     1949.504     1523.898      943.874        0.443        0.221       41.091       28.111        0.468      336.731        8.229      862.456
01/09/2015  11:59:00       46.527       36.730       31.250       37.162       42.130       35.068     1380.990     1774.951     1229.735        0.444        0.219       59.278       31.610        0.284      336.495        7.835      862.424
01/09/2015  12:00:00       16.576       17.485       36.469       33.498       46.831       30.467     1122.092     2193.141      928.244        0.308        0.212       24.093       33.225        1.902      336.853        8.434      862.393
01/09/2015  12:01:00       89.265       64.830       -6.710       32.523       24.362       26.445     1057.770      593.503      699.358        0.728        0.118      110.323       12.370        0.013      336.552        7.931      862.360
01/09/2015  12:02:00       44.261       60.111       15.620       33.628       17.447       36.388     1130.837      304.393     1324.105        0.429        0.138       74.648       16.997        0.052      336.584        7.985      862.326
01/09/2015  12:03:00      122.789      108.343       51.084       80.357       59.574       50.608     6457.258     3549.118     2561.140        2.099        0.628      163.754       42.162        0.066      336.911        8.528      862.288
01/09/2015  12:04:00       84.392       56.042       37.028       70.124       52.274       47.210     4917.403     2732.536     2228.740        1.075        0.494      101.305       36.466        0.130      336.898        8.509      862.266
01/09/2015  12:05:00      124.005       91.751       37.487       51.779       43.663       39.683     2681.054     1906.426     1574.701        1.568        0.308      154.258       23.321        0.023      336.535        7.901      862.261
01/09/2015  12:06:00       96.279       49.366       18.425       32.964       29.941       26.909     1086.648      896.486      724.092        0.738        0.135      108.197       18.042        0.028      336.513        7.865      862.255
01/09/2015  12:07:00       58.076       40.234       27.010       39.867       31.113       30.763     1589.400      968.035      946.361        0.461        0.175       70.651        5.448        0.006      336.761        8.279      862.224
01/09/2015  12:08:00      107.177       74.354       53.149       79.398       53.388       48.710     6304.035     2850.252     2372.705        1.568        0.576      130.443       50.239        0.148      336.757        8.271      862.209
01/09/2015  12:09:00      139.571       85.741       21.651       51.267       44.016       28.190     2628.296     1937.436      794.689        1.633        0.268      163.803       14.712        0.008      336.574        7.967      862.193
01/09/2015  12:10:00      100.443       52.947        7.859       38.986       37.243       25.280     1519.886     1387.035      639.069        0.825        0.177      113.544       19.503        0.030      336.443        7.747      862.178
01/09/2015  12:11:00       27.668       13.047        6.279       34.172       20.985       24.492     1167.751      440.389      599.845        0.159        0.110       30.590       11.870        0.151      336.773        8.300      862.154
01/09/2015  12:12:00       52.645       64.566       40.622       46.234       39.021       45.644     2137.618     1522.641     2083.353        0.717        0.287       83.309       29.362        0.124      336.845        8.421      862.116
01/09/2015  12:13:00       34.025       62.426       14.572       25.878       30.244       36.264      669.668      914.718     1315.072        0.408        0.145       71.097       25.980        0.134      336.994        8.668      862.103
01/09/2015  12:14:00       36.033       42.319        3.714       41.700       40.729       44.090     1738.909     1658.861     1943.935        0.422        0.267       55.581       29.220        0.276      337.023        8.716      862.077
01/09/2015  12:15:00      112.182       80.392       30.274       79.466       73.697       54.540     6314.837     5431.286     2974.656        1.734        0.736      138.013       46.218        0.112      336.901        8.511      862.054
01/09/2015  12:16:00      182.416       91.545       13.904       76.054       72.980       47.213     5784.286     5326.145     2229.086        2.759        0.667      204.098       33.780        0.027      336.763        8.279      862.038
01/09/2015  12:17:00      132.979       88.818       37.975       64.913       32.826       48.730     4213.635     1077.521     2374.596        1.734        0.383      159.912       37.943        0.056      336.817        8.372      862.018
01/09/2015  12:18:00       45.370       72.672       61.940       56.289       54.238       40.628     3168.420     2941.721     1650.663        0.947        0.388       85.672       39.361        0.211      337.120        8.881      861.991
01/09/2015  12:19:00       84.855       58.946       22.235       33.774       37.348       25.216     1140.650     1394.837      635.838        0.717        0.159      103.320       13.178        0.016      336.765        8.287      861.980
01/09/2015  12:20:00       30.405       88.523      107.652       47.742       89.118       49.326     2279.290     7942.013     2433.041        1.650        0.633       93.599       58.859        0.395      337.225        9.055      861.944
01/09/2015  12:21:00       67.944       88.364       88.727       56.843       61.363       47.518     3231.168     3765.429     2257.972        1.477        0.463      111.465       44.450        0.159      337.043        8.751      861.923
01/09/2015  12:22:00      105.121      102.742       76.078       93.404       52.194       52.811     8724.329     2724.212     2788.984        2.081        0.712      146.991       47.269        0.103      336.954        8.601      861.907
01/09/2015  12:23:00       83.061       84.068       79.024       73.725       60.180       59.117     5435.438     3621.689     3494.818        1.638        0.628      118.180       54.605        0.213      337.043        8.750      861.896
01/09/2015  12:24:00       56.077       65.238       85.846       61.403       46.003       31.371     3770.271     2116.282      984.112        1.082        0.344       86.027       22.815        0.070      337.098        8.841      861.887
01/09/2015  12:25:00      126.450       66.282       36.211       39.814       48.476       36.694     1585.148     2349.916     1346.454        1.349        0.264      142.769       32.982        0.053      336.727        8.223      861.896
01/09/2015  12:26:00       75.818       -4.815       43.905       50.252       78.347       52.794     2525.254     6138.323     2787.211        0.957        0.573       75.971       55.706        0.538      337.147        8.925      861.890
01/09/2015  12:27:00       88.599       39.786       10.878       55.378       47.391       49.485     3066.671     2245.913     2448.808        0.865        0.388       97.122       42.528        0.192      336.826        8.390      861.883
01/09/2015  12:28:00       55.524       39.887       26.156       38.305       18.735       23.922     1467.311      351.005      572.242        0.387        0.120       68.366        8.605        0.016      336.943        8.585      861.856
01/09/2015  12:29:00       26.485       64.726       76.146       57.094       63.428       48.578     3259.680     4023.112     2359.785        1.016        0.482       69.935       41.609        0.354      337.164        8.951      861.836
01/09/2015  12:30:00       72.816       72.753       77.911       65.430       44.467       52.790     4281.076     1977.334     2786.810        1.285        0.452      102.933       40.776        0.157      337.024        8.719      861.839
01/09/2015  12:31:00       18.499       37.295       70.963       41.584       44.474       29.826     1729.253     1977.903      889.564        0.568        0.230       41.631       25.584        0.378      337.361        9.284      861.834
01/09/2015  12:32:00       54.602       31.493       22.415       38.237       42.800       35.666     1462.057     1831.834     1272.052        0.452        0.228       63.033       21.678        0.118      337.059        8.776      861.822
01/09/2015  12:33:00       35.434      -22.124       26.613       36.417       41.493       39.603     1326.176     1721.642     1568.381        0.353        0.231       41.774       20.023        0.230      337.261        9.115      861.802
01/09/2015  12:34:00       66.536        2.493       64.937       71.809       98.011       59.452     5156.504     9606.207     3534.522        1.347        0.915       66.583       61.426        0.851      337.169        8.962      861.788
01/09/2015  12:35:00       59.926       49.260       75.228       76.743       60.142       45.427     5889.468     3617.018     2063.583        1.162        0.579       77.574       40.138        0.268      337.140        8.912      861.782
01/09/2015  12:36:00      141.806      -59.682        0.658       70.130       52.338       46.609     4918.150     2739.299     2172.439        1.675        0.491      153.854       41.764        0.074      336.987        8.655      861.787
01/09/2015  12:37:00       58.404       35.924       62.486       47.632       80.455       52.562     2268.845     6472.967     2762.806        1.005        0.575       68.568       52.475        0.586      337.142        8.917      861.781
01/09/2015  12:38:00       79.779      -43.276       12.662       81.579       73.163       48.200     6655.118     5352.784     2323.250        1.136        0.717       90.760       57.934        0.407      337.041        8.746      861.769
01/09/2015  12:39:00       75.589      -36.732        7.446       63.498       95.600       54.922     4031.972     9139.419     3016.382        1.165        0.809       84.041       66.609        0.628      337.114        8.870      861.748
01/09/2015  12:40:00       99.903     -121.752      -18.674       52.671       82.682       34.849     2774.253     6836.347     1214.464        1.799        0.541      157.494       27.697        0.031      337.055        8.769      861.734
01/09/2015  12:41:00       49.847       36.980       59.032       57.152       68.840       49.316     3266.398     4738.898     2432.054        0.889        0.522       62.066       49.669        0.640      337.130        8.896      861.726
01/09/2015  12:42:00        7.456       32.965       72.510       33.783       40.332       25.317     1141.295     1626.704      640.933        0.490        0.170       33.797       21.532        0.406      337.358        9.278      861.706
01/09/2015  12:43:00       28.938      -24.562       32.001       43.695       81.625       49.031     1909.278     6662.694     2404.075        0.672        0.549       37.956       44.495        1.374      337.293        9.169      861.690
01/09/2015  12:44:00       67.203       34.274       51.790       61.202       57.044       41.862     3745.635     3253.988     1752.386        0.856        0.438       75.439       33.946        0.202      337.210        9.030      861.669
01/09/2015  12:45:00       80.279       83.850       68.381       69.876       40.492       42.046     4882.638     1639.630     1767.837        1.322        0.415      116.085       45.090        0.151      337.072        8.800      861.663
01/09/2015  12:46:00       47.576       69.024       85.392       53.774       71.095       42.978     2891.670     5054.452     1847.138        1.205        0.490       83.832       46.915        0.313      337.062        8.784      861.661
01/09/2015  12:47:00       29.349       43.396       69.433       45.109       56.095       50.671     2034.795     3146.667     2567.580        0.766        0.387       52.388       37.177        0.504      337.267        9.126      861.660
01/09/2015  12:48:00       20.481        0.648       64.566       46.141       72.286       40.569     2129.015     5225.286     1645.824        0.679        0.450       20.492       42.652        4.332      337.223        9.051      861.664
01/09/2015  12:49:00       77.009      -71.974       18.240       53.121       86.332       46.359     2821.839     7453.274     2149.192        1.193        0.621      105.407       39.841        0.143      337.165        8.954      861.667
01/09/2015  12:50:00      100.692     -156.590       -3.445       72.101       78.522       52.202     5198.615     6165.745     2725.055        2.438        0.704      186.171       50.753        0.074      337.089        8.826      861.658
01/09/2015  12:51:00      104.798      -91.707        4.397       68.124       89.344       58.854     4640.910     7982.424     3463.772        1.775        0.804      139.258       45.423        0.106      337.032        8.730      861.646
01/09/2015  12:52:00      121.650     -133.943      -10.472       48.027       63.422       46.100     2306.547     4022.331     2125.235        2.065        0.423      180.941       46.084        0.065      336.810        8.359      861.635
01/09/2015  12:53:00       64.743      -24.568       48.125       59.339       60.532       52.820     3521.067     3664.082     2789.967        0.854        0.499       69.248       39.284        0.322      336.985        8.653      861.612
01/09/2015  12:54:00       54.822       38.902       58.137       63.563       57.835       43.325     4040.201     3344.857     1877.073        0.858        0.463       67.222       45.559        0.459      336.885        8.486      861.601
01/09/2015  12:55:00       54.927      -30.604       41.981       53.652       64.022       35.943     2878.539     4098.832     1291.911        0.699        0.413       62.878       38.415        0.373      336.974        8.635      861.580
01/09/2015  12:56:00      103.704      -80.257       16.336       51.552       64.455       37.496     2657.606     4154.389     1405.981        1.284        0.411      131.133       45.197        0.119      336.730        8.230      861.559
01/09/2015  12:57:00       92.577      -72.595       -4.901       44.435       54.756       36.384     1974.509     2998.239     1323.784        1.008        0.315      117.646       40.402        0.118      336.754        8.268      861.543
01/09/2015  12:58:00       86.883      -96.165      -15.394       35.817       34.848       26.633     1282.827     1214.390      709.309        1.012        0.160      129.601       22.647        0.031      336.749        8.260      861.527
01/09/2015  12:59:00       94.604     -109.696       -7.900       36.006       33.360       20.322     1296.397     1112.902      412.980        1.193        0.141      144.856       20.934        0.021      336.738        8.242      861.515
01/09/2015  13:00:00      153.499     -140.830      -20.405       19.696       37.558       20.471      387.936     1410.607      419.051        2.301        0.111      208.315       11.141        0.003      336.677        8.138      861.511
01/09/2015  13:01:00      101.311     -112.357       -0.401       61.802       75.008       44.417     3819.491     5626.151     1972.891        1.715        0.571      151.288       53.383        0.125      336.800        8.344      861.515
01/09/2015  13:02:00       17.412       20.806       58.876       34.895       71.975       40.958     1217.649     5180.452     1677.584        0.614        0.404       27.130       50.568        3.474      336.961        8.614      861.527
01/09/2015  13:03:00       76.212      -86.748      -11.677       55.873       71.255       41.375     3121.818     5077.286     1711.880        1.169        0.496      115.471       37.713        0.107      336.962        8.613      861.532
01/09/2015  13:04:00       73.532      -97.966      -14.914       59.051       58.136       44.138     3486.980     3379.790     1948.168        1.202        0.441      122.492       43.441        0.126      336.865        8.454      861.530
01/09/2015  13:05:00       10.837       16.590       64.216       28.625       48.033       25.178      819.372     2307.195      633.939        0.414        0.188       19.816       17.017        0.737      337.026        8.722      861.521
01/09/2015  13:06:00       14.073       19.537       45.539       30.643       46.795       26.008      938.985     2189.752      676.442        0.323        0.190       24.078       27.364        1.292      336.944        8.583      861.507
01/09/2015  13:07:00       50.409       13.886       40.656       46.938       53.021       39.751     2203.154     2811.188     1580.143        0.549        0.330       52.287       39.806        0.580      336.897        8.507      861.494
01/09/2015  13:08:00       84.752     -118.259      -14.380       63.453       68.121       26.913     4026.300     4640.478      724.293        1.538        0.470      145.493       20.272        0.019      336.767        8.290      861.462
01/09/2015  13:09:00       66.950      -44.294        2.936       47.953       59.863       40.538     2299.511     3583.587     1643.327        0.699        0.376       80.276       44.555        0.308      336.780        8.313      861.451
01/09/2015  13:10:00       22.483      -42.673       37.941       38.044       69.224       36.766     1447.354     4792.016     1351.764        0.568        0.380       48.233       33.642        0.486      336.928        8.559      861.451
01/09/2015  13:11:00       19.643      -20.069       36.786       41.023       61.647       42.681     1682.895     3800.378     1821.647        0.472        0.365       28.082       42.738        2.316      336.964        8.618      861.461
01/09/2015  13:12:00       97.012      -92.393      -13.092       63.271       85.429       39.883     4003.166     7298.054     1590.664        1.550        0.645      133.969       45.858        0.117      336.795        8.336      861.463
01/09/2015  13:13:00      145.580     -135.082      -35.980       35.430       43.417       28.935     1255.297     1885.040      837.217        2.236        0.199      198.597       17.863        0.008      336.659        8.108      861.468
01/09/2015  13:14:00      100.054      -47.823        3.797       57.275       79.860       51.474     3280.390     6377.630     2649.536        1.231        0.615      110.896       58.663        0.280      336.779        8.309      861.472
01/09/2015  13:15:00       76.577      -90.923        3.966       65.511       66.444       43.867     4291.628     4414.773     1924.356        1.239        0.532      118.874       48.876        0.169      336.841        8.412      861.483
01/09/2015  13:16:00      113.302     -123.882        2.559       58.408       65.056       39.028     3411.497     4232.247     1523.207        1.868        0.458      167.881       35.394        0.044      336.819        8.375      861.474
01/09/2015  13:17:00       25.646       48.045       46.901       34.605       31.247       24.400     1197.481      976.369      595.362        0.397        0.138       54.461       21.816        0.160      336.938        8.575      861.479
01/09/2015  13:18:00       50.758       12.637       36.590       61.906       65.069       39.927     3832.336     4233.962     1594.191        0.687        0.483       52.308       31.715        0.368      336.932        8.564      861.483
01/09/2015  13:19:00       19.050        5.257       46.860       44.876       43.522       38.860     2013.847     1894.167     1510.066        0.400        0.271       19.762       32.188        2.653      337.058        8.775      861.473
01/09/2015  13:20:00       21.168       25.595       51.091       35.975       39.409       34.742     1294.166     1553.085     1206.982        0.388        0.203       33.215       30.831        0.862      336.965        8.619      861.468
01/09/2015  13:21:00        8.738       28.558       55.388       24.187       35.637       24.732      585.013     1270.013      611.677        0.321        0.123       29.865       21.985        0.542      337.000        8.679      861.464
01/09/2015  13:22:00       18.135      -16.846       43.850       43.514       96.474       43.092     1893.489     9307.271     1856.933        0.779        0.653       24.752       59.933        5.863      337.011        8.695      861.457
01/09/2015  13:23:00       15.231       11.488       74.869       37.133       63.531       33.971     1378.881     4036.140     1154.026        0.627        0.328       19.078       28.826        2.283      337.078        8.809      861.441
01/09/2015  13:24:00       32.739       19.322       51.366       39.649       39.635       27.227     1572.038     1570.964      741.293        0.398        0.194       38.015       11.337        0.089      336.918        8.543      861.435
01/09/2015  13:25:00       42.742       14.509       38.520       59.033       49.637       42.827     3484.871     2463.828     1834.113        0.565        0.389       45.138       40.424        0.802      336.968        8.625      861.413
01/09/2015  13:26:00       52.255      -18.183       25.558       48.132       42.977       24.722     2316.692     1847.057      611.201        0.424        0.239       55.328       22.257        0.162      336.886        8.489      861.399
01/09/2015  13:27:00       18.049       39.379       42.568       25.151       21.003       13.076      632.560      441.140      170.981        0.247        0.062       43.318        9.126        0.044      336.949        8.592      861.363
01/09/2015  13:28:00       23.561       42.239       17.801       31.043       21.673       16.512      963.694      469.708      272.659        0.218        0.085       48.366       12.759        0.070      336.867        8.457      861.332
01/09/2015  13:29:00       -3.996       48.437        2.028       20.345       25.806       20.042      413.919      665.932      401.672        0.192        0.074       48.602       16.815        0.120      336.899        8.510      861.319
01/09/2015  13:30:00       -3.128       11.389        7.049       15.165       22.290       18.342      229.975      496.836      336.423        0.063        0.053       11.810       11.240        0.906      337.071        8.798      861.306
01/09/2015  13:31:00       31.331       34.723        8.865       30.568       31.382       18.835      934.387      984.823      354.743        0.227        0.114       46.768       17.119        0.134      337.014        8.703      861.288
01/09/2015  13:32:00       51.439       63.118        0.303       43.807       31.784       24.583     1919.018     1010.227      604.324        0.508        0.177       81.424       16.384        0.040      336.863        8.450      861.265
01/09/2015  13:33:00       79.977       34.756       16.204       45.190       38.609       25.195     2042.095     1490.649      634.793        0.602        0.208       87.202       21.103        0.059      336.813        8.367      861.272
01/09/2015  13:34:00       28.665       -0.131       27.059       32.101       40.504       28.924     1030.472     1640.549      836.611        0.253        0.175       28.665       30.150        1.106      336.928        8.559      861.277
01/09/2015  13:35:00        8.901      -30.400        7.885       21.422       27.857       21.188      458.900      775.994      448.920        0.137        0.084       31.676       16.432        0.269      336.955        8.603      861.282
01/09/2015  13:36:00       15.623       77.951       65.743       27.508       39.473       25.155      756.685     1558.082      632.754        0.679        0.147       79.502       13.354        0.028      336.996        8.672      861.294
01/09/2015  13:37:00       74.756       48.471       15.252       38.013       26.474       31.409     1445.017      700.873      986.528        0.565        0.157       89.095       20.752        0.054      336.826        8.390      861.306
01/09/2015  13:38:00       54.947       44.605       26.621       23.674       30.856       22.176      560.479      952.101      491.785        0.386        0.100       70.772        9.964        0.020      336.957        8.607      861.314
01/09/2015  13:39:00       45.061       34.998       20.886       29.335       26.939       27.123      860.562      725.689      735.648        0.301        0.116       57.056       23.271        0.166      336.940        8.577      861.320
01/09/2015  13:40:00       -4.085        7.090       26.158        9.435       14.928       12.303       89.017      222.849      151.364        0.061        0.023        8.182        7.659        0.876      337.217        9.041      861.311
01/09/2015  13:41:00        2.123       26.947        8.398       16.624       19.999       19.898      276.356      399.944      395.927        0.094        0.054       27.030       16.812        0.387      337.059        8.779      861.305
01/09/2015  13:42:00       15.746       -0.425       32.162       19.986       22.290       13.545      399.459      496.846      183.461        0.118        0.054       15.752       12.624        0.642      337.216        9.041      861.294
01/09/2015  13:43:00       12.238      -32.955       16.630       21.376       29.116       22.678      456.931      847.749      514.279        0.167        0.091       35.154       20.540        0.341      337.206        9.023      861.287
01/09/2015  13:44:00        9.168      -11.777      -14.524       19.376       18.801       16.557      375.429      353.462      274.124        0.072        0.050       14.925       11.400        0.583      336.996        8.672      861.284
01/09/2015  13:45:00      -35.686       13.027      -17.564       20.319       10.769        8.543      412.880      115.970       72.987        0.118        0.030       37.989        3.723        0.010      336.897        8.507      861.278
01/09/2015  13:46:00       34.101       47.250       19.905       56.420       20.084       17.318     3183.260      403.385      299.903        0.384        0.194       58.270       10.753        0.034      336.913        8.534      861.274
01/09/2015  13:47:00       57.207       54.352       -1.000       20.563       21.969       18.061      422.823      482.640      326.197        0.373        0.062       78.910       13.071        0.027      336.866        8.455      861.274
01/09/2015  13:48:00       68.016       60.227       18.927       20.496       16.736       23.057      420.089      280.109      531.639        0.492        0.062       90.848        9.375        0.011      336.837        8.407      861.283
01/09/2015  13:49:00       38.103       26.395       41.725       20.659       24.516       14.762      426.786      601.034      217.911        0.257        0.062       46.352       12.762        0.076      337.007        8.690      861.298
01/09/2015  13:50:00       24.301       -1.150       11.658       11.344       22.944       16.216      128.684      526.430      262.964        0.082        0.046       24.329        8.924        0.135      336.955        8.604      861.319
01/09/2015  13:51:00       34.061       63.113       70.182       36.863       35.826       38.335     1358.879     1283.537     1469.566        0.709        0.206       71.718       32.846        0.210      337.006        8.688      861.333
01/09/2015  13:52:00       79.222       59.403       51.751       41.435       54.110       31.687     1716.861     2927.914     1004.076        0.906        0.282       99.020       29.359        0.088      336.988        8.659      861.347
01/09/2015  13:53:00       72.560       89.921       69.047       30.746       32.815       29.038      945.335     1076.821      843.203        1.049        0.143      115.546       18.255        0.025      337.076        8.806      861.350
01/09/2015  13:54:00       95.860       65.606       38.320       28.009       20.522       29.098      784.519      421.169      846.718        0.851        0.103      116.161       17.438        0.023      336.927        8.555      861.350
01/09/2015  13:55:00       60.679       38.634       13.979       31.271       23.576       29.241      977.890      555.834      855.007        0.388        0.119       71.934       17.463        0.059      336.960        8.611      861.328
01/09/2015  13:56:00       67.113       29.237        4.006       16.212       18.964       20.115      262.843      359.651      404.595        0.320        0.051       73.205       13.033        0.032      336.925        8.553      861.305
01/09/2015  13:57:00       18.315       34.153       -1.539       32.749       15.769       22.466     1072.468      248.649      504.699        0.166        0.091       38.754       15.876        0.168      336.989        8.658      861.280
01/09/2015  13:58:00       17.906       29.535        3.427       27.363       17.150       15.212      748.715      294.127      231.396        0.124        0.064       34.539        8.342        0.058      337.042        8.747      861.260
01/09/2015  13:59:00       18.508       74.653       -7.022       23.007       34.316       16.688      529.345     1177.588      278.504        0.397        0.099       76.914       16.022        0.043      337.030        8.728      861.258
01/09/2015  14:00:00       21.624       63.260       -2.355       19.607       29.059       25.038      384.450      844.454      626.895        0.317        0.093       66.854       21.512        0.104      337.066        8.790      861.253
01/09/2015  14:01:00       51.659       35.258       -1.276       33.045       33.724       19.705     1091.943     1137.299      388.304        0.326        0.131       62.544       13.283        0.045      337.167        8.959      861.255
01/09/2015  14:02:00       34.448       72.257       -5.054       27.528       31.737       24.504      757.792     1007.260      600.460        0.440        0.118       80.048       19.346        0.058      337.070        8.796      861.260
01/09/2015  14:03:00       17.677       57.055       -2.385       25.433       35.218       23.168      646.823     1240.287      536.767        0.300        0.121       59.731       21.771        0.133      337.044        8.751      861.270
01/09/2015  14:04:00       16.887       58.173       -0.689       21.187       27.171       23.499      448.896      738.258      552.192        0.270        0.087       60.575       21.729        0.129      337.100        8.846      861.268
01/09/2015  14:05:00       40.203       38.088        7.980       24.534       27.640       24.237      601.899      763.970      587.412        0.254        0.098       55.381       10.670        0.037      337.108        8.859      861.261
01/09/2015  14:06:00       64.535       35.154        7.506       43.985       22.816       26.007     1934.716      520.566      676.354        0.429        0.157       73.489        9.685        0.017      337.162        8.951      861.260
01/09/2015  14:07:00       92.915       53.484       12.108       33.031       37.537       25.223     1091.031     1409.015      636.178        0.739        0.157      107.209       20.242        0.036      337.068        8.792      861.256
01/09/2015  14:08:00      101.011       75.393       10.041       32.489       24.385       29.466     1055.513      594.641      868.258        0.925        0.126      126.045       17.703        0.020      337.004        8.684      861.251
01/09/2015  14:09:00       97.205       72.685        8.294       15.783       14.816       19.430      249.106      219.509      377.511        0.782        0.042      121.375        9.185        0.006      336.968        8.624      861.246
01/09/2015  14:10:00       66.866       51.703        8.661       21.831       15.391       18.075      476.587      236.896      326.692        0.413        0.052       84.524       13.836        0.027      336.979        8.643      861.254
01/09/2015  14:11:00       42.548       31.478       -1.818        7.556       10.000        8.203       57.087       99.991       67.290        0.151        0.011       52.926        4.314        0.007      336.962        8.615      861.261
01/09/2015  14:12:00       53.769       45.211        3.796       12.538       22.118       18.275      157.199      489.208      333.960        0.296        0.049       70.251        4.658        0.004      337.028        8.726      861.274
01/09/2015  14:13:00       16.957       32.815       -8.602       24.551       12.420        9.974      602.737      154.253       99.472        0.115        0.043       36.937        4.723        0.016      336.986        8.651      861.285
01/09/2015  14:14:00        2.942       32.767       -8.414       26.403       26.211       12.460      697.124      687.036      155.246        0.135        0.077       32.899        8.994        0.075      337.082        8.815      861.305
01/09/2015  14:15:00       13.029       21.654       13.490       13.475       17.544       11.055      181.579      307.795      122.207        0.072        0.031       25.271        4.778        0.036      337.254        9.106      861.314
01/09/2015  14:16:00        7.204       -8.612        5.933       19.826       24.726       17.589      393.065      611.392      309.388        0.074        0.066       11.228        9.149        0.664      337.333        9.237      861.326
01/09/2015  14:17:00       13.793      -13.349       22.771       20.466       36.681       22.193      418.842     1345.486      492.543        0.157        0.113       19.194       18.495        0.928      337.386        9.324      861.344
01/09/2015  14:18:00        4.191       -6.149       14.822       10.335       14.592       11.967      106.807      212.918      143.211        0.037        0.023        7.441       10.467        1.979      337.455        9.441      861.361
01/09/2015  14:19:00      -14.857        9.321        6.114       12.410        8.981       13.182      153.998       80.651      173.772        0.038        0.020       17.539       10.942        0.389      337.362        9.285      861.375
01/09/2015  14:20:00       27.830       -2.371       16.982       27.734       16.268       20.102      769.188      264.647      404.070        0.125        0.072       27.931       19.371        0.481      337.366        9.291      861.391
01/09/2015  14:21:00       36.784      -11.780       15.341       34.230       22.516       18.844     1171.699      506.956      355.088        0.188        0.102       38.624       15.763        0.167      337.405        9.357      861.398
01/09/2015  14:22:00       -4.669       15.941       21.163        9.544       13.773       11.237       91.093      189.687      126.265        0.057        0.020       16.611        7.192        0.187      337.491        9.499      861.395
01/09/2015  14:23:00       -0.083      -35.594        4.126       25.535       32.188       19.492      652.038     1036.090      379.927        0.168        0.103       35.594       20.576        0.334      337.527        9.560      861.392
01/09/2015  14:24:00      -48.607       -0.018       -0.808       11.615       28.532       16.533      134.910      814.088      273.341        0.179        0.061       48.607       18.096        0.139      337.357        9.277      861.387
01/09/2015  14:25:00      -23.794       -3.510       -0.352       13.242       18.563       11.935      175.354      344.595      142.443        0.062        0.033       24.051       11.467        0.227      337.415        9.373      861.386
01/09/2015  14:26:00      -17.277      -26.687      -10.598       19.233       20.182       17.666      369.917      407.312      312.104        0.111        0.054       31.791       12.961        0.166      337.413        9.369      861.385
01/09/2015  14:27:00      -14.200      -48.869       -2.737       21.585       30.771       20.238      465.924      946.861      409.592        0.221        0.091       50.890       11.093        0.048      337.435        9.407      861.391
01/09/2015  14:28:00       -0.556        9.248       27.654       25.716       20.112       14.569      661.308      404.504      212.244        0.106        0.064        9.264        8.689        0.880      337.632        9.738      861.393
01/09/2015  14:29:00      -18.694       -4.244       24.440       20.859       25.958       17.913      435.082      673.798      320.883        0.120        0.071       19.170       10.353        0.292      337.527        9.562      861.404
01/09/2015  14:30:00       23.517        4.923       35.952       24.899       39.779       21.872      619.945     1582.370      478.400        0.227        0.134       24.027       17.565        0.534      337.422        9.386      861.402
01/09/2015  14:31:00       20.987       42.224       33.609       19.189       17.707       21.689      368.203      313.540      470.423        0.225        0.058       47.152       16.745        0.126      337.260        9.114      861.407
01/09/2015  14:32:00        3.110       19.211        6.052       20.223       22.480       18.443      408.963      505.349      340.150        0.083        0.063       19.461        9.785        0.253      337.276        9.141      861.410
01/09/2015  14:33:00        0.500        3.567       13.535       19.568       26.161       22.028      382.920      684.376      485.242        0.087        0.078        3.602       18.434       26.196      337.409        9.364      861.405
01/09/2015  14:34:00        2.145       -6.470       18.449       22.345       29.482       14.733      499.317      869.203      217.048        0.099        0.079        6.816       18.885        7.677      337.529        9.564      861.402
01/09/2015  14:35:00      -23.196        7.828        2.305       20.264       22.528       13.929      410.613      507.527      194.024        0.086        0.056       24.481       10.516        0.185      337.449        9.430      861.398
01/09/2015  14:36:00      -40.388      -24.039       -4.077       20.220       17.177       10.172      408.857      295.049      103.464        0.152        0.040       47.001        4.702        0.010      337.288        9.160      861.395
01/09/2015  14:37:00      -53.757      -41.165        2.853       24.477       22.068       17.525      599.126      487.009      307.142        0.299        0.070       67.708       12.485        0.034      337.254        9.106      861.384
01/09/2015  14:38:00      -36.710      -21.227        1.736       30.578       25.247       18.743      935.031      637.416      351.296        0.186        0.096       42.405       18.534        0.191      337.399        9.347      861.381
01/09/2015  14:39:00      -36.694       -3.732        3.544       22.940       18.478       16.485      526.256      341.419      271.765        0.126        0.057       36.883       18.726        0.258      337.335        9.241      861.364
01/09/2015  14:40:00      -55.338       18.359       -3.268       20.205       11.356        9.171      408.235      128.955       84.111        0.202        0.031       58.304        6.917        0.014      337.250        9.097      861.351
01/09/2015  14:41:00      -54.927       25.715       -5.925       15.887       27.743       16.436      252.391      769.695      270.153        0.250        0.065       60.648        5.850        0.009      337.314        9.204      861.340
01/09/2015  14:42:00       -6.613       91.456      -17.314       22.175       22.307       13.153      491.731      497.609      172.997        0.493        0.058       91.695        8.291        0.008      337.212        9.035      861.329
01/09/2015  14:43:00        3.738      106.301      -12.175       13.915       21.904       14.384      193.630      479.794      206.902        0.617        0.044      106.367       13.216        0.015      337.231        9.062      861.326
01/09/2015  14:44:00      -16.121       82.993       -4.094       17.008       21.174       15.872      289.271      448.322      251.926        0.408        0.049       84.544       11.190        0.018      337.358        9.277      861.329
01/09/2015  14:45:00      -18.474       50.794        0.251       24.393       33.199       16.198      595.007     1102.151      262.387        0.244        0.098       54.049       15.841        0.086      337.388        9.329      861.325
01/09/2015  14:46:00      -39.227       54.885       -9.862       26.693       32.691       20.615      712.532     1068.686      424.968        0.343        0.110       67.462       17.493        0.067      337.280        9.149      861.329
01/09/2015  14:47:00      -40.138        5.693      -10.038       13.651       15.941        9.454      186.339      254.116       89.375        0.114        0.026       40.540        6.522        0.026      337.241        9.083      861.325
01/09/2015  14:48:00       -6.413       58.268      -12.353       16.751       19.383        9.228      280.600      375.719       85.157        0.217        0.037       58.620        6.325        0.012      337.303        9.184      861.313
01/09/2015  14:49:00       -1.056       78.762      -11.668       10.137       14.910       11.815      102.764      222.316      139.591        0.340        0.023       78.769        6.666        0.007      337.252        9.099      861.300
01/09/2015  14:50:00      -14.818       32.930        1.986       13.393       21.186       16.712      179.362      448.848      279.284        0.111        0.045       36.111       13.579        0.141      337.401        9.349      861.292
01/09/2015  14:51:00       -8.461       30.232        2.745       19.744       17.050       10.981      389.825      290.696      120.574        0.090        0.040       31.394        9.650        0.094      337.438        9.411      861.292
01/09/2015  14:52:00       25.691       35.251        4.448       18.520       15.296       17.119      342.981      233.957      293.066        0.140        0.044       43.619       11.636        0.071      337.406        9.359      861.291
01/09/2015  14:53:00       20.349      115.061      -14.960       23.699       27.130       20.108      561.658      736.019      404.318        0.779        0.085      116.847       12.085        0.011      337.313        9.203      861.288
01/09/2015  14:54:00       10.803      113.102      -13.355       18.775       29.319       18.204      352.488      859.575      331.386        0.731        0.077      113.617       10.367        0.008      337.305        9.189      861.284
01/09/2015  14:55:00       -7.760      116.601      -13.944       14.823       26.470       13.006      219.721      700.642      169.155        0.747        0.054      116.859       14.835        0.016      337.336        9.240      861.277
01/09/2015  14:56:00      -21.123       81.213      -15.016       17.507       37.761       15.183      306.498     1425.869      230.530        0.461        0.098       83.915       13.005        0.024      337.359        9.279      861.270
01/09/2015  14:57:00      -33.689      135.589      -22.133       18.724       30.836       10.581      350.586      950.835      111.960        1.071        0.071      139.711        9.652        0.005      337.287        9.158      861.280
01/09/2015  14:58:00       -6.144       70.523       -5.747       22.696       41.750       19.956      515.109     1743.069      398.222        0.385        0.133       70.790       23.941        0.114      337.378        9.311      861.278
01/09/2015  14:59:00      -44.457      131.812      -17.652       27.719       24.917       13.766      768.358      620.844      189.509        1.062        0.079      139.107        6.089        0.002      337.345        9.253      861.283
01/09/2015  15:00:00      -78.959       75.762      -27.652       21.463       19.344       13.070      460.671      374.187      170.832        0.687        0.050      109.427       12.523        0.013      337.309        9.195      861.287
01/09/2015  15:01:00      -42.585       18.743       -8.809       23.471       14.756       14.128      550.911      217.753      199.588        0.161        0.048       46.527        8.187        0.031      337.373        9.303      861.286
01/09/2015  15:02:00       29.673       22.796        6.831       19.648       15.540       22.624      386.041      241.486      511.826        0.129        0.057       37.419       14.012        0.140      337.486        9.493      861.284
01/09/2015  15:03:00       64.799       22.151        9.663       33.770       22.247       21.354     1140.417      494.930      455.987        0.344        0.105       68.481       15.919        0.054      337.431        9.400      861.294
01/09/2015  15:04:00       73.338       35.438        4.320       18.092       19.259       15.077      327.331      370.916      227.303        0.379        0.046       81.451        6.608        0.007      337.417        9.377      861.300
01/09/2015  15:05:00       75.565       42.968        8.238       29.298       30.554       26.845      858.376      933.519      720.679        0.507        0.126       86.927       18.466        0.045      337.447        9.427      861.308
01/09/2015  15:06:00       68.209       58.703       31.835       33.499       20.947       32.808     1122.150      438.770     1076.337        0.587        0.132       89.992       24.585        0.075      337.472        9.468      861.321
01/09/2015  15:07:00       48.176       61.037       35.960       60.547       36.656       51.210     3665.930     1343.691     2622.461        0.748        0.382       77.759       47.413        0.372      337.576        9.644      861.324
01/09/2015  15:08:00       58.949       62.301       37.302       29.701       24.710       37.505      882.127      610.585     1406.623        0.582        0.145       85.769       15.770        0.034      337.506        9.526      861.333
01/09/2015  15:09:00        1.097       44.939       61.957       17.407       27.113       24.019      303.016      735.124      576.907        0.374        0.081       44.952       18.763        0.174      337.631        9.736      861.340
01/09/2015  15:10:00       20.652       51.214       52.319       31.400       23.078       25.883      985.934      532.589      669.947        0.399        0.109       55.222       16.915        0.094      337.540        9.584      861.352
01/09/2015  15:11:00       25.661       26.281       28.597       31.734       24.780       26.449     1007.071      614.052      699.557        0.224        0.116       36.731       21.505        0.343      337.526        9.558      861.368
01/09/2015  15:12:00        7.341       26.649       53.410       18.539       27.078       13.378      343.690      733.229      178.959        0.244        0.063       27.642       15.068        0.297      337.600        9.684      861.385
01/09/2015  15:13:00        4.358       25.617       46.025       24.569       23.866       19.600      603.659      569.573      384.155        0.218        0.078       25.985       17.731        0.466      337.605        9.691      861.398
01/09/2015  15:14:00       -1.199       45.931       52.381       14.509       24.600       31.747      210.515      605.169     1007.844        0.334        0.091       45.947       18.861        0.169      337.577        9.646      861.407
01/09/2015  15:15:00       10.054       54.961       59.918       32.357       30.291       27.826     1047.001      917.567      774.272        0.472        0.137       55.873       16.127        0.083      337.575        9.642      861.419
01/09/2015  15:16:00       60.055       46.671       32.745       30.473       24.152       28.128      928.623      583.323      791.206        0.458        0.115       76.058       21.133        0.077      337.479        9.481      861.423
01/09/2015  15:17:00       69.268       48.295       -1.475       10.512       21.044       19.852      110.502      442.862      394.087        0.404        0.047       84.442        5.927        0.005      337.394        9.339      861.420
01/09/2015  15:18:00       44.642       46.766       19.199       41.126       22.617       41.405     1691.338      511.548     1714.373        0.423        0.196       64.652       25.317        0.153      337.510        9.532      861.408
01/09/2015  15:19:00       63.467       89.957       68.222       60.286       42.257       40.306     3634.343     1785.688     1624.602        1.191        0.352      110.093       41.535        0.142      337.541        9.584      861.393
01/09/2015  15:20:00       82.619       66.495       38.985       47.308       23.451       32.608     2238.073      549.952     1063.266        0.831        0.193      106.054       24.006        0.051      337.432        9.400      861.384
01/09/2015  15:21:00       30.988       59.339       74.651       34.772       28.999       17.859     1209.068      840.962      318.947        0.621        0.118       66.943       18.749        0.078      337.470        9.465      861.377
01/09/2015  15:22:00       54.670       88.182       68.283       35.283       31.373       32.454     1244.860      984.263     1053.280        0.935        0.164      103.754       22.976        0.049      337.426        9.391      861.373
01/09/2015  15:23:00       71.591       98.048       71.644       50.618       35.519       28.363     2562.198     1261.571      804.468        1.225        0.231      121.403       21.063        0.030      337.423        9.387      861.367
01/09/2015  15:24:00       74.872      107.694       60.980       37.709       30.015       45.457     1421.994      900.873     2066.307        1.265        0.219      131.163       33.560        0.065      337.435        9.407      861.368
01/09/2015  15:25:00       98.053      102.435       44.051       35.874       23.325       33.968     1286.954      544.060     1153.841        1.252        0.149      141.801       23.769        0.028      337.400        9.349      861.375
01/09/2015  15:26:00       35.999       23.050       31.374       37.148       27.988       24.171     1380.004      783.337      584.241        0.278        0.137       42.746       18.815        0.194      337.488        9.495      861.374
01/09/2015  15:27:00        8.484       50.525       59.635       26.661       22.553       19.876      710.783      508.648      395.039        0.390        0.081       51.232       18.419        0.129      337.497        9.511      861.360
01/09/2015  15:28:00       42.524       44.155       -2.013       19.943       13.577       14.103      397.706      184.345      198.905        0.227        0.039       61.303       10.923        0.032      337.412        9.367      861.351
01/09/2015  15:29:00       52.898       47.142       17.557       24.235       17.532       22.297      587.314      307.361      497.136        0.336        0.070       70.855       14.766        0.043      337.467        9.460      861.340
01/09/2015  15:30:00       49.378       53.667       51.185       40.253       26.809       21.005     1620.322      718.744      441.226        0.536        0.139       72.927       16.190        0.049      337.508        9.529      861.326
01/09/2015  15:31:00       28.393       53.801       58.256       27.670       37.235       24.629      765.618     1386.432      606.594        0.493        0.138       60.833       23.413        0.148      337.543        9.588      861.320
01/09/2015  15:32:00       57.435       56.352       32.905       21.924       15.898       19.882      480.640      252.754      395.283        0.434        0.056       80.463       16.063        0.040      337.460        9.448      861.320
01/09/2015  15:33:00       45.526       46.550       17.079       30.509       15.678       13.982      930.790      245.787      195.495        0.295        0.069       65.111        6.882        0.011      337.460        9.450      861.326
01/09/2015  15:34:00       28.833       30.119        3.415       19.812       10.567       10.791      392.508      111.665      116.449        0.119        0.031       41.695       11.619        0.078      337.460        9.449      861.333
01/09/2015  15:35:00       10.004       29.214       -0.009       13.722       18.047        9.929      188.306      325.700       98.578        0.078        0.031       30.880       10.080        0.107      337.456        9.443      861.335
01/09/2015  15:36:00        6.516       27.003       24.039       14.942       18.221       20.076      223.258      332.018      403.048        0.115        0.048       27.778        9.991        0.129      337.542        9.586      861.330
01/09/2015  15:37:00       42.620       30.886       18.809       34.448       22.161       26.469     1186.652      491.096      700.622        0.275        0.119       52.635       24.881        0.223      337.542        9.588      861.318
01/09/2015  15:38:00       50.978       43.031       10.267       33.237       33.754       21.559     1104.718     1139.300      464.795        0.363        0.135       66.711       10.959        0.027      337.519        9.547      861.311
01/09/2015  15:39:00       65.064       56.408       -0.551       27.965       20.128       15.216      782.048      405.144      231.513        0.442        0.071       86.111       10.615        0.015      337.490        9.497      861.299
01/09/2015  15:40:00       29.163       34.043       -2.782       21.851       21.947       13.758      477.469      481.650      189.284        0.158        0.057       44.827       10.576        0.056      337.494        9.506      861.291
01/09/2015  15:41:00       24.308       51.276       -5.978       18.378       19.571       15.852      337.746      383.007      251.274        0.211        0.049       56.746        8.346        0.022      337.472        9.468      861.290
01/09/2015  15:42:00       23.993       47.288       -3.751       10.963       10.431       12.453      120.187      108.799      155.089        0.160        0.019       53.027        3.659        0.005      337.446        9.425      861.284
01/09/2015  15:43:00       56.292       36.500        5.136       20.309       16.787        9.324      412.437      281.809       86.943        0.265        0.039       67.090        3.270        0.002      337.457        9.444      861.290
01/09/2015  15:44:00       57.412       43.501        8.020        8.320       12.023       10.242       69.229      144.545      104.896        0.279        0.016       72.031        4.191        0.003      337.431        9.399      861.290
01/09/2015  15:45:00        9.427       57.138       54.586       21.639       23.329       24.658      468.225      544.231      608.007        0.398        0.081       57.911       19.117        0.109      337.527        9.560      861.291
01/09/2015  15:46:00       16.335       66.702       62.788       27.963       30.706       19.983      781.925      942.880      399.306        0.539        0.106       68.673       13.944        0.041      337.528        9.563      861.296
01/09/2015  15:47:00       66.226       72.248       37.899       23.631       20.852       28.996      558.412      434.805      840.756        0.644        0.092       98.009       16.674        0.029      337.438        9.412      861.298
01/09/2015  15:48:00       78.305       61.382       18.165       21.926       13.762       17.848      480.748      189.403      318.538        0.561        0.049       99.495        7.473        0.006      337.524        9.555      861.288
01/09/2015  15:49:00       26.776       61.871       61.787       32.372       34.005       27.937     1047.923     1156.329      780.486        0.567        0.149       67.416       11.645        0.030      337.590        9.666      861.279
01/09/2015  15:50:00       93.954       59.067       31.921       22.487       20.915       22.445      505.661      437.421      503.786        0.739        0.072      110.979       16.159        0.021      337.442        9.419      861.280
01/09/2015  15:51:00       84.482       32.785       19.971       35.813       27.968       25.344     1282.549      782.223      642.322        0.566        0.135       90.620       18.493        0.042      337.426        9.392      861.289
01/09/2015  15:52:00       91.607       46.550        9.622       32.666       28.269       27.785     1067.081      799.129      772.027        0.664        0.132      102.755       17.256        0.028      337.409        9.363      861.295
01/09/2015  15:53:00       69.952       59.183       36.928       45.680       28.420       26.341     2086.661      807.720      693.847        0.667        0.179       91.629       26.542        0.084      337.433        9.404      861.295
01/09/2015  15:54:00       59.702       24.376       17.846       28.694       22.789       22.103      823.325      519.352      488.522        0.315        0.092       64.487       14.269        0.049      337.441        9.417      861.298
01/09/2015  15:55:00       60.487       49.038       33.876       41.790       19.699       25.710     1746.376      388.059      661.029        0.500        0.140       77.868       25.123        0.104      337.445        9.424      861.299
01/09/2015  15:56:00       81.846       47.536       24.161       29.840       20.598       20.698      890.434      424.290      428.391        0.564        0.087       94.649       14.304        0.023      337.423        9.387      861.295
01/09/2015  15:57:00       53.041       53.442       33.465       29.699       23.489       25.897      882.028      551.748      670.631        0.445        0.105       75.296       18.137        0.058      337.459        9.446      861.291
01/09/2015  15:58:00       74.396       64.900       45.276       25.980       18.432       19.847      674.962      339.740      393.901        0.660        0.070       98.726        7.386        0.006      337.452        9.435      861.284
01/09/2015  15:59:00       22.407       76.851       69.710       41.765       34.545       28.648     1744.352     1193.351      820.719        0.751        0.188       80.051       25.361        0.100      337.486        9.493      861.268
01/09/2015  16:00:00       63.975       62.203       56.068       37.379       26.767       24.427     1397.213      716.493      596.677        0.691        0.136       89.230       22.807        0.065      337.456        9.442      861.256
01/09/2015  16:01:00       34.933       34.901       47.531       38.582       23.568       21.100     1488.553      555.448      445.212        0.359        0.124       49.380       19.218        0.151      337.472        9.467      861.242
01/09/2015  16:02:00       42.897       34.318       42.974       30.346       35.214       26.308      920.862     1240.038      692.120        0.386        0.143       54.935       25.159        0.210      337.452        9.434      861.237
01/09/2015  16:03:00       88.606       53.563       21.283       20.767       15.084       18.695      431.286      227.538      349.494        0.609        0.050      103.538        6.139        0.004      337.394        9.337      861.226
01/09/2015  16:04:00       60.480       13.738       30.460       26.814       23.111       18.113      719.016      534.137      328.084        0.318        0.079       62.021        9.042        0.021      337.403        9.353      861.233
01/09/2015  16:05:00       46.270       21.986        9.124       17.885       20.575       13.414      319.873      423.320      179.927        0.182        0.046       51.228        7.511        0.021      337.396        9.342      861.239
01/09/2015  16:06:00       47.266       43.613       21.676        9.512        7.711       10.393       90.469       59.458      108.016        0.243        0.013       64.313        6.162        0.009      337.369        9.295      861.231
01/09/2015  16:07:00       54.648       37.674       10.074        7.779        8.832        9.345       60.511       78.001       87.338        0.237        0.011       66.376        4.712        0.005      337.385        9.323      861.218
01/09/2015  16:08:00       31.600       26.910        5.968       19.395       15.258       11.413      376.151      232.815      130.261        0.125        0.037       41.506        6.816        0.027      337.395        9.341      861.201
01/09/2015  16:09:00       53.237       43.891        4.362       13.994       12.925       11.922      195.833      167.049      142.131        0.264        0.025       68.997        5.951        0.007      337.404        9.354      861.191
01/09/2015  16:10:00       42.316       42.346       18.699       18.560       10.442       10.519      344.481      109.032      110.657        0.225        0.028       59.865        7.108        0.014      337.393        9.339      861.187
01/09/2015  16:11:00       41.250       36.900        6.279       13.953       12.549       14.287      194.674      157.479      204.131        0.183        0.028       55.346        6.894        0.016      337.410        9.364      861.178
01/09/2015  16:12:00       35.523       26.497        0.790       21.831       16.732       14.077      476.573      279.949      198.173        0.146        0.048       44.316        6.182        0.019      337.402        9.351      861.177
01/09/2015  16:13:00       31.976       33.045       -2.077       17.764       12.161        8.740      315.573      147.895       76.391        0.133        0.027       45.983        4.619        0.010      337.390        9.334      861.181
01/09/2015  16:14:00       22.678       20.775        0.943       14.693       14.627       14.276      215.871      213.936      203.811        0.079        0.032       30.756        8.714        0.080      337.401        9.350      861.186
01/09/2015  16:15:00       46.241       24.510        1.161       19.822       14.279       14.051      392.897      203.895      197.433        0.177        0.040       52.335        9.573        0.033      337.387        9.329      861.174
01/09/2015  16:16:00       47.236       38.243       -4.823       14.388       14.207        9.299      207.019      201.848       86.464        0.211        0.025       60.777        7.200        0.014      337.378        9.313      861.172
01/09/2015  16:17:00       42.039       27.236        0.980       12.418       14.263       13.465      154.208      203.429      181.294        0.152        0.027       50.090        5.078        0.010      337.379        9.315      861.182
01/09/2015  16:18:00       36.291       31.419       -4.825       13.997       18.573       16.295      195.906      344.943      265.532        0.157        0.040       48.002        7.295        0.023      337.375        9.308      861.179
01/09/2015  16:19:00       48.434       23.448        0.290        6.500        7.210        9.414       42.246       51.978       88.631        0.154        0.009       53.811        5.026        0.009      337.364        9.287      861.172
01/09/2015  16:20:00       52.436       28.685        6.743       11.505        9.264       14.102      132.373       85.818      198.875        0.202        0.021       59.769        5.996        0.010      337.342        9.250      861.169
01/09/2015  16:21:00       41.932       12.530        2.132       13.524       12.236       12.701      182.909      149.710      161.325        0.121        0.025       43.764        9.614        0.048      337.350        9.263      861.158
01/09/2015  16:22:00       27.391       13.294        5.683       13.637       10.012       11.235      185.965      100.230      126.227        0.069        0.021       30.447        7.322        0.058      337.344        9.255      861.154
01/09/2015  16:23:00       19.853        0.275        2.474       19.336       16.012       10.049      373.895      256.370      100.982        0.057        0.037       19.855       12.451        0.393      337.348        9.260      861.142
01/09/2015  16:24:00        6.699        2.840       -2.555        8.186        5.829        5.580       67.004       33.978       31.141        0.010        0.007        7.276        4.468        0.377      337.322        9.219      861.124
01/09/2015  16:25:00        1.801       20.322       -2.903        4.678       14.710        6.541       21.884      216.379       42.778        0.035        0.014       20.402        4.519        0.049      337.330        9.230      861.112
01/09/2015  16:26:00        5.254       34.396       -6.848        5.944        6.370        4.749       35.334       40.572       22.555        0.068        0.005       34.795        1.842        0.003      337.364        9.287      861.106
01/09/2015  16:27:00       17.418       40.304       -5.057        5.082        7.117        4.225       25.828       50.658       17.852        0.102        0.005       43.907        2.922        0.004      337.351        9.265      861.105
01/09/2015  16:28:00        8.088       36.363       -3.723        5.564        5.679        3.543       30.957       32.248       12.555        0.074        0.004       37.252        2.137        0.003      337.378        9.315      861.095
01/09/2015  16:29:00        7.915       17.002       -1.949        5.892       12.093        3.586       34.719      146.241       12.857        0.027        0.010       18.754        4.215        0.051      337.387        9.330      861.089
01/09/2015  16:30:00       16.522       16.919        4.706       16.378       12.204        5.638      268.238      148.935       31.792        0.052        0.022       23.648        4.541        0.037      337.362        9.286      861.075
01/09/2015  16:31:00       19.406       22.186        5.789       11.180        8.570        8.065      124.987       73.443       65.049        0.058        0.013       29.476        5.105        0.030      337.362        9.286      861.074
01/09/2015  16:32:00        6.498        6.120       21.430       13.927       12.972        8.117      193.960      168.280       65.892        0.048        0.021        8.926        6.535        0.536      337.389        9.329      861.067
01/09/2015  16:33:00       -5.704       12.263       22.348        4.994        9.293        5.639       24.938       86.351       31.796        0.041        0.007       13.525        5.298        0.153      337.406        9.356      861.051
01/09/2015  16:34:00       -5.495       19.140       26.763        5.637        9.966        6.951       31.770       99.325       48.311        0.065        0.009       19.913        5.555        0.078      337.398        9.344      861.047
01/09/2015  16:35:00        0.269       22.205       31.710       15.965       12.086        8.199      254.888      146.067       67.223        0.098        0.023       22.207        6.489        0.085      337.391        9.333      861.038
01/09/2015  16:36:00       34.693        8.317       18.195       16.185       13.632       14.928      261.939      185.823      222.843        0.114        0.034       35.676        9.112        0.065      337.345        9.255      861.039
01/09/2015  16:37:00        2.642       16.885       26.964       14.729       18.435       13.901      216.932      339.860      193.250        0.088        0.038       17.090        9.805        0.329      337.396        9.340      861.042
01/09/2015  16:38:00       11.333        3.023       15.158       17.224       19.854       14.924      296.676      394.170      222.718        0.064        0.046       11.729        9.387        0.641      337.347        9.259      861.046
01/09/2015  16:39:00       23.727       20.823       20.424       14.895       21.736       19.413      221.851      472.450      376.847        0.124        0.054       31.569       15.355        0.237      337.293        9.170      861.033
01/09/2015  16:40:00       65.543       53.588       37.133       38.977       26.796       28.970     1519.179      718.004      839.263        0.581        0.154       84.661       23.095        0.074      337.303        9.187      861.017
01/09/2015  16:41:00       59.663       33.073       35.943       41.168       29.061       23.588     1694.827      844.516      556.373        0.452        0.155       68.217       21.009        0.095      337.350        9.265      860.995
01/09/2015  16:42:00        7.799       34.623       47.915       16.161       21.028       11.334      261.185      442.197      128.470        0.219        0.042       35.490       10.851        0.093      337.354        9.270      860.997
01/09/2015  16:43:00       14.054       33.258       37.403       21.062       26.417       18.547      443.617      697.844      343.992        0.209        0.074       36.105       18.940        0.275      337.352        9.269      860.998
01/09/2015  16:44:00       54.545       30.671       26.256       28.692       20.184       20.370      823.250      407.385      414.952        0.313        0.082       62.577       13.779        0.048      337.342        9.252      860.983
01/09/2015  16:45:00       25.716       12.779       27.063       20.352       22.115       14.438      414.213      489.064      208.443        0.133        0.056       28.716        7.251        0.064      337.302        9.184      860.986
01/09/2015  16:46:00       10.337       26.364       37.369       22.590       26.070       12.919      510.330      679.657      166.908        0.178        0.068       28.318       13.348        0.222      337.304        9.186      860.983
01/09/2015  16:47:00       44.368        5.663       18.120       32.659       22.421       21.112     1066.596      502.692      445.727        0.217        0.101       44.728       13.610        0.093      337.291        9.167      860.973
01/09/2015  16:48:00       38.262       17.566       27.059       26.878       22.593       19.238      722.438      510.455      370.084        0.205        0.080       42.102       12.486        0.088      337.251        9.102      860.969
01/09/2015  16:49:00       40.452       35.484       41.152       20.239       16.288       12.657      409.629      265.288      160.206        0.271        0.042       53.810        9.180        0.029      337.262        9.117      860.976
01/09/2015  16:50:00       61.423       24.050        8.298       25.669       20.942       14.698      658.872      438.559      216.034        0.287        0.066       65.964        2.365        0.001      337.255        9.105      860.972
01/09/2015  16:51:00       75.925       51.628       23.865       23.471       21.888       20.920      550.889      479.077      437.664        0.523        0.073       91.815       12.250        0.018      337.197        9.010      860.958
01/09/2015  16:52:00      101.986       62.902       21.404       17.442       17.943       14.350      304.225      321.937      205.929        0.782        0.042      119.824        4.710        0.002      337.220        9.048      860.955
01/09/2015  16:53:00      101.979       70.763       14.542       18.514       16.121       18.714      342.765      259.893      350.198        0.829        0.048      124.125        9.600        0.006      337.191        8.999      860.964
01/09/2015  16:54:00       78.983       38.300       14.686       25.596       25.867       20.824      655.131      669.099      433.620        0.484        0.088       87.780       11.772        0.018      337.198        9.011      860.966
01/09/2015  16:55:00       68.114       49.108       14.215       23.169       17.344       16.473      536.781      300.821      271.344        0.418        0.055       83.971        9.169        0.012      337.159        8.945      860.971
01/09/2015  16:56:00       75.879       61.125       16.567       15.628       14.354       15.088      244.227      206.048      227.649        0.522        0.034       97.436       10.159        0.011      337.186        8.991      860.979
01/09/2015  16:57:00       67.153       40.534       10.326       17.580       11.423       11.997      309.064      130.487      143.927        0.342        0.029       78.438        7.011        0.008      337.198        9.010      860.977
01/09/2015  16:58:00       73.654       51.920        4.728       13.172       11.623       12.401      173.493      135.098      153.778        0.430        0.023       90.115        5.607        0.004      337.211        9.031      860.981
01/09/2015  16:59:00       57.754       36.533        2.821       14.025       15.026       13.542      196.704      225.788      183.392        0.264        0.030       68.339        9.437        0.019      337.182        8.985      860.997
01/09/2015  17:00:00       62.851       48.888        1.628       22.770       12.464       11.006      518.495      155.354      121.126        0.357        0.040       79.626        5.346        0.005      337.176        8.973      860.991
01/09/2015  17:01:00       84.199       47.845       12.794       24.098       16.450       14.319      580.703      270.592      205.023        0.530        0.053       96.843        8.307        0.007      337.183        8.985      860.986
01/09/2015  17:02:00       80.763       44.439        8.056       27.230       17.901       15.315      741.477      320.444      234.544        0.493        0.065       92.182       11.721        0.016      337.143        8.919      860.974
01/09/2015  17:03:00      112.227       49.365        7.037       17.453       18.617       15.411      304.604      346.582      237.497        0.798        0.044      122.604       10.114        0.007      337.194        9.005      860.962
01/09/2015  17:04:00       89.759       37.976       11.308       16.280       17.382       13.425      265.044      302.121      180.226        0.519        0.037       97.462        9.093        0.009      337.161        8.947      860.968
01/09/2015  17:05:00       62.753       26.449        9.585       24.773       22.900       18.519      613.721      524.408      342.939        0.310        0.074       68.099       18.387        0.073      337.150        8.930      860.963
01/09/2015  17:06:00       74.617       30.245       10.628       19.908       14.818       16.697      396.347      219.569      278.795        0.374        0.045       80.514        8.417        0.011      337.138        8.908      860.969
01/09/2015  17:07:00       70.958       44.772        5.230       18.824       13.038       12.286      354.329      169.990      150.942        0.387        0.034       83.902        8.822        0.011      337.111        8.862      860.968
01/09/2015  17:08:00       80.038       46.417       12.963       11.931       15.446        9.816      142.352      238.588       96.356        0.460        0.024       92.523        8.139        0.008      337.133        8.901      860.960
01/09/2015  17:09:00       72.733       49.328       13.914        9.828       10.849       10.848       96.595      117.701      117.689        0.412        0.017       87.882        5.858        0.004      337.140        8.911      860.965
01/09/2015  17:10:00       76.397       54.487       14.713       18.269       11.284       14.517      333.767      127.322      210.733        0.485        0.034       93.837       11.727        0.016      337.134        8.903      860.953
01/09/2015  17:11:00       81.484       50.414        8.355       15.104       12.176       10.548      228.141      148.254      111.253        0.487        0.024       95.819        5.840        0.004      337.110        8.859      860.941
01/09/2015  17:12:00       66.211       46.658        7.814       12.739       12.006       11.229      162.292      144.137      126.091        0.353        0.022       80.999        5.064        0.004      337.090        8.827      860.956
01/09/2015  17:13:00       51.765       45.582        0.453       16.650        8.585        8.843      277.210       73.694       78.201        0.259        0.021       68.973        1.645        0.001      337.073        8.800      860.961
01/09/2015  17:14:00       46.678       40.452        0.020       13.772        9.233       10.964      189.675       85.251      120.218        0.211        0.020       61.767        6.632        0.012      337.069        8.792      860.962
01/09/2015  17:15:00       36.978       28.920       -1.073       18.312       14.397       12.817      335.347      207.267      164.281        0.146        0.035       46.943        7.851        0.028      337.071        8.798      860.969
01/09/2015  17:16:00       35.887       19.717        4.681       10.654        6.210       11.141      113.502       38.568      124.113        0.099        0.014       40.947        8.104        0.039      337.128        8.893      860.962
01/09/2015  17:17:00        6.191       13.923        1.807        8.582        7.280        6.586       73.658       52.992       43.377        0.020        0.009       15.237        5.399        0.126      337.156        8.939      860.971
01/09/2015  17:18:00      -25.649       12.428       -4.997       18.513       11.600        5.082      342.722      134.549       25.829        0.067        0.025       28.502        5.584        0.038      337.152        8.933      860.981
01/09/2015  17:19:00      -52.640       19.067      -10.826        8.725       14.713        7.632       76.125      216.479       58.243        0.180        0.018       55.987        5.219        0.009      337.013        8.702      860.989
01/09/2015  17:20:00      -59.143       18.209      -11.088       14.626       15.440       12.953      213.927      238.393      167.780        0.229        0.031       61.882       10.334        0.028      336.923        8.550      860.997
01/09/2015  17:21:00      -40.068       12.581       -3.089       19.908       20.316       12.301      396.345      412.740      151.314        0.137        0.048       41.996        8.074        0.037      336.842        8.415      861.007
01/09/2015  17:22:00      -51.756       50.581      -12.444       22.903       20.347       13.489      524.551      414.002      181.942        0.326        0.056       72.368       13.086        0.033      336.967        8.624      861.005
01/09/2015  17:23:00      -69.283       23.073      -15.179       12.800       13.879       13.865      163.851      192.623      192.245        0.306        0.027       73.024        9.659        0.017      336.895        8.504      861.002
01/09/2015  17:24:00      -59.022        9.308       -4.457        9.951       12.501        8.791       99.013      156.280       77.275        0.196        0.017       59.751        6.581        0.012      336.852        8.433      861.014
01/09/2015  17:25:00      -52.184       -5.101       -5.091       15.124       20.969       10.302      228.733      439.708      106.123        0.177        0.039       52.432        5.659        0.012      336.797        8.342      861.014
01/09/2015  17:26:00      -56.575      -17.860       -9.699       15.543       14.720       10.896      241.594      216.675      118.719        0.210        0.029       59.328        8.611        0.021      336.601        8.013      861.016
01/09/2015  17:27:00      -35.009       -1.411       -3.296       19.386       13.007       13.834      375.828      169.188      191.391        0.099        0.037       35.037       11.360        0.105      336.525        7.886      861.031
01/09/2015  17:28:00      -61.600        3.375       -7.166       28.276       19.742        9.698      799.558      389.766       94.042        0.257        0.064       61.693        4.194        0.005      336.560        7.944      861.035
01/09/2015  17:29:00      -71.737       41.668      -18.119       18.764       29.605       11.592      352.081      876.473      134.363        0.429        0.068       82.960        7.116        0.007      336.718        8.210      861.045
01/09/2015  17:30:00      -77.320       75.077      -21.553       24.238       31.303       16.123      587.495      979.866      259.947        0.695        0.091      107.773       14.776        0.019      336.725        8.221      861.060
01/09/2015  17:31:00      -97.643       41.992      -12.705       25.389       27.692       19.098      644.622      766.826      364.747        0.662        0.089      106.290       13.982        0.017      336.656        8.105      861.063
01/09/2015  17:32:00      -98.398       37.887      -19.785       19.357       21.286       13.722      374.687      453.076      188.299        0.626        0.051      105.440       10.030        0.009      336.694        8.169      861.049
01/09/2015  17:33:00      -53.841       -6.278      -14.949       18.973       10.363       10.267      359.970      107.391      105.409        0.187        0.029       54.205       10.263        0.036      336.573        7.965      861.038
01/09/2015  17:34:00      -96.301       -5.269       -8.486       27.356       34.275       17.229      748.338     1174.807      296.855        0.580        0.111       96.445       18.272        0.036      336.340        7.577      861.045
01/09/2015  17:35:00      -88.862       -2.243      -12.518       43.644       29.700       21.444     1904.801      882.099      459.840        0.565        0.162       88.890       24.722        0.077      336.147        7.252      861.057
01/09/2015  17:36:00      -41.268       15.464       -3.876       39.223       23.520       18.978     1538.462      553.195      360.167        0.220        0.123       44.071       16.075        0.133      336.243        7.415      861.055
01/09/2015  17:37:00      -43.805       20.097       -4.990       22.401       31.943       15.607      501.827     1020.329      243.578        0.206        0.088       48.195        9.857        0.042      336.434        7.733      861.049
01/09/2015  17:38:00      -53.806       38.257      -14.144       19.300       18.614       12.755      372.473      346.470      162.687        0.272        0.044       66.020       11.011        0.028      336.621        8.047      861.043
01/09/2015  17:39:00      -66.824       23.804      -13.309       12.843       12.538        9.062      164.952      157.202       82.120        0.281        0.020       70.937        6.231        0.008      336.504        7.851      861.019
01/09/2015  17:40:00      -52.612       31.409       -8.171       15.126       13.830        8.880      228.803      191.266       78.857        0.216        0.025       61.275        5.281        0.007      336.606        8.022      861.010
01/09/2015  17:41:00      -41.301       38.430       -7.630       16.540       24.362       11.082      273.575      593.528      122.814        0.212        0.049       56.415       10.979        0.038      336.672        8.131      860.996
01/09/2015  17:42:00      -38.241        7.838       -3.676       16.593       23.667       11.469      275.336      560.116      131.536        0.125        0.048       39.036        9.103        0.054      336.511        7.861      860.987
01/09/2015  17:43:00      -54.520       -6.300       -6.672       19.479       16.434       10.045      379.429      270.080      100.911        0.190        0.038       54.883        7.895        0.021      336.371        7.627      860.989
01/09/2015  17:44:00      -64.217       -8.888      -11.927       14.033       17.412        9.901      196.913      303.171       98.034        0.247        0.030       64.829        7.850        0.015      336.353        7.598      860.992
01/09/2015  17:45:00      -66.454      -16.237      -18.138       11.429       10.269        6.839      130.623      105.456       46.775        0.265        0.014       68.409        1.768        0.001      336.174        7.298      860.980
01/09/2015  17:46:00      -72.131       -2.135      -10.639       22.098       12.778       11.821      488.300      163.277      139.743        0.306        0.040       72.162        9.535        0.017      336.163        7.279      860.986
01/09/2015  17:47:00      -92.717       -7.573      -15.370       15.388       13.022       11.099      236.797      169.575      123.182        0.471        0.026       93.025        6.897        0.005      336.202        7.344      860.989
01/09/2015  17:48:00      -99.092       -9.362      -13.940       11.420       16.069        8.854      130.416      258.203       78.391        0.528        0.023       99.534        4.680        0.002      336.162        7.278      860.992
01/09/2015  17:49:00      -64.611       26.364      -11.105       23.396       20.440       15.446      547.372      417.774      238.594        0.310        0.060       69.783        3.725        0.003      336.402        7.680      860.996
01/09/2015  17:50:00      -82.392       33.425      -14.919       20.629       22.266       15.568      425.536      495.784      242.357        0.465        0.058       88.914       13.182        0.022      336.557        7.938      860.998
01/09/2015  17:51:00      -71.405       33.068       -7.199       25.126       26.260       14.183      631.295      689.609      201.147        0.388        0.076       78.690        5.332        0.005      336.590        7.995      860.990
01/09/2015  17:52:00      -67.110       24.335      -18.758       24.825       20.895       11.671      616.283      436.590      136.221        0.332        0.059       71.386       12.575        0.031      336.622        8.048      860.992
01/09/2015  17:53:00      -67.139       -4.796      -14.731       22.074       15.335       13.144      487.249      235.152      172.764        0.282        0.045       67.310       13.069        0.038      336.400        7.679      860.987
01/09/2015  17:54:00      -99.191      -18.856       -7.398       22.855       17.873       14.705      522.369      319.437      216.234        0.565        0.053      100.967       13.292        0.017      336.207        7.354      860.992
01/09/2015  17:55:00      -91.944      -19.692       -4.466       19.411       14.999       14.111      376.795      224.975      199.107        0.483        0.040       94.029        9.640        0.011      336.193        7.330      861.015
01/09/2015  17:56:00      -84.575      -16.706        0.488       15.583       13.160       12.519      242.835      173.185      156.734        0.400        0.029       86.209        9.231        0.011      336.244        7.416      861.025
01/09/2015  17:57:00      -47.304        3.155       -4.456       30.332       24.944       14.058      920.009      622.180      197.619        0.200        0.087       47.409       14.347        0.092      336.290        7.492      861.027
01/09/2015  17:58:00      -30.979       -6.432       -7.745       27.898       17.480       13.179      778.296      305.547      173.695        0.116        0.063       31.640       11.687        0.136      336.356        7.603      861.036
01/09/2015  17:59:00      -42.557       -7.333        6.607       30.287       22.603       17.584      917.305      510.881      309.213        0.182        0.087       43.184       16.410        0.144      336.320        7.543      861.053
01/09/2015  18:00:00      -53.885        3.694       -0.446       27.506       18.026       15.017      756.594      324.920      225.523        0.211        0.065       54.011       13.318        0.061      336.240        7.408      861.053
01/09/2015  18:01:00      -12.283      -33.354       -0.824       15.575       12.952        7.219      242.568      167.759       52.112        0.086        0.023       35.544        7.184        0.041      336.296        7.505      861.041
01/09/2015  18:02:00      -12.412      -37.806        2.896       14.347       14.109        8.075      205.845      199.073       65.211        0.103        0.024       39.792        6.280        0.025      336.378        7.642      861.041
01/09/2015  18:03:00      -14.962      -14.225        1.287       10.378       11.081        5.193      107.698      122.791       26.967        0.034        0.013       20.645        6.519        0.100      336.475        7.801      861.055
01/09/2015  18:04:00        6.657        8.304       11.151        5.903        5.213        4.311       34.848       27.180       18.586        0.016        0.004       10.643        2.989        0.079      336.367        7.621      861.051
01/09/2015  18:05:00      -14.437       10.361       -1.717       11.669        5.929        6.909      136.173       35.154       47.736        0.027        0.011       17.770        6.399        0.130      336.446        7.754      861.057
01/09/2015  18:06:00      -68.481       12.937       -6.627       18.864       12.610        5.868      355.852      159.022       34.431        0.273        0.027       69.692        3.535        0.003      336.417        7.706      861.064
01/09/2015  18:07:00      -80.149       21.617       -5.669       10.934        9.868        7.648      119.552       97.378       58.486        0.360        0.014       83.013        7.693        0.009      336.377        7.639      861.057
01/09/2015  18:08:00      -51.843       16.330       -4.118        8.392        7.931        4.774       70.425       62.906       22.793        0.156        0.008       54.354        3.476        0.004      336.537        7.904      861.035
01/09/2015  18:09:00      -52.559       13.498       -4.949        5.092        7.263        5.029       25.927       52.758       25.294        0.154        0.005       54.264        3.801        0.005      336.510        7.859      861.029
01/09/2015  18:10:00      -52.600       -8.990       -7.185       10.862       11.701        8.494      117.976      136.902       72.154        0.161        0.016       53.362        6.308        0.014      336.406        7.686      861.040
01/09/2015  18:11:00      -71.894       -7.979      -10.343       13.167       11.524        8.900      173.360      132.804       79.218        0.286        0.019       72.335        6.811        0.009      336.358        7.605      861.064
01/09/2015  18:12:00      -84.112      -18.006       -7.463        6.754        5.709        5.474       45.622       32.595       29.963        0.378        0.005       86.018        3.899        0.002      336.331        7.562      861.079
01/09/2015  18:13:00      -64.658      -22.858       -5.225       12.880       10.391        7.632      165.898      107.983       58.254        0.253        0.017       68.580        4.767        0.005      336.304        7.515      861.072
01/09/2015  18:14:00      -73.009      -14.891       -7.999       14.290       11.560        8.471      204.214      133.639       71.762        0.301        0.020       74.512        8.620        0.013      336.410        7.694      861.060
01/09/2015  18:15:00      -79.489       -4.109       -8.484       17.916        8.770        8.518      320.978       76.910       72.563        0.344        0.024       79.595        8.919        0.013      336.350        7.592      861.056
01/09/2015  18:16:00     -105.300        0.347      -13.530       10.862       11.475        8.155      117.979      131.666       66.497        0.579        0.016      105.301        4.365        0.002      336.268        7.456      861.050
01/09/2015  18:17:00      -97.191      -21.810      -11.907        8.345       12.292        7.937       69.646      151.087       63.000        0.517        0.014       99.608        4.038        0.002      336.306        7.520      861.056
01/09/2015  18:18:00      -97.994      -42.897       -8.211       10.903       10.174        7.185      118.882      103.510       51.625        0.589        0.014      106.972        4.111        0.001      336.355        7.603      861.059
01/09/2015  18:19:00      -91.441      -31.170        0.158       30.738       18.559       14.679      944.799      344.443      215.469        0.542        0.075       96.608       16.359        0.029      336.392        7.663      861.060
01/09/2015  18:20:00      -24.331      -20.763        6.332       24.044       15.788       11.399      578.121      249.250      129.932        0.101        0.048       31.985        9.947        0.097      336.336        7.570      861.059
01/09/2015  18:21:00       13.035       -5.011       -0.847        8.807        7.372       11.741       77.572       54.350      137.854        0.023        0.013       13.965        5.732        0.168      336.397        7.670      861.056
01/09/2015  18:22:00      -25.903        7.650       -7.294       24.195        9.131        7.801      585.407       83.367       60.849        0.076        0.036       27.009       10.666        0.156      336.461        7.778      861.052
01/09/2015  18:23:00      -62.076       21.112       -8.568        9.892        7.726        8.659       97.842       59.695       74.973        0.230        0.012       65.568        3.103        0.002      336.537        7.905      861.055
01/09/2015  18:24:00      -79.473      -10.384      -11.238        9.612       20.020        7.736       92.395      400.820       59.845        0.355        0.028       80.149        5.429        0.005      336.621        8.045      861.054
01/09/2015  18:25:00      -66.127      -32.993       -7.043       24.247       17.279       14.933      587.933      298.550      222.981        0.331        0.055       73.901       13.257        0.032      336.231        7.394      861.056
01/09/2015  18:26:00      -94.002      -38.872      -10.638       30.367       20.648       13.688      922.185      426.349      187.359        0.600        0.077      101.722        7.268        0.005      336.037        7.070      861.064
01/09/2015  18:27:00      -86.624      -27.266      -13.820       25.230       10.900        9.533      636.539      118.814       90.876        0.464        0.042       90.813        9.126        0.010      336.019        7.038      861.068
01/09/2015  18:28:00      -69.747      -22.284       -5.108       24.715       24.879       13.345      610.820      618.953      178.101        0.340        0.070       73.220        9.282        0.016      336.033        7.063      861.067
01/09/2015  18:29:00      -68.076       -4.170        2.018       19.620       15.801       11.715      384.956      249.681      137.230        0.271        0.039       68.203       11.265        0.027      336.098        7.171      861.069
01/09/2015  18:30:00      -69.917       -3.120       -5.406       21.926       14.130       12.382      480.745      199.656      153.323        0.288        0.042       69.987       12.877        0.034      336.154        7.263      861.085
01/09/2015  18:31:00      -47.847        1.812       -5.593       12.525       12.214        9.114      156.880      149.175       83.061        0.136        0.019       47.881        5.568        0.014      336.173        7.296      861.093
01/09/2015  18:32:00      -20.347      -13.576       -7.057        7.015       11.833        5.599       49.207      140.027       31.353        0.043        0.011       24.460        2.492        0.010      336.265        7.450      861.102
01/09/2015  18:33:00      -11.880      -21.381       -1.020       15.139       12.136        8.089      229.177      147.282       65.433        0.052        0.022       24.459        5.643        0.053      336.256        7.435      861.114
01/09/2015  18:34:00       -8.990      -13.148       -2.704       16.080       10.559       10.747      258.579      111.486      115.503        0.037        0.024       15.928       11.148        0.490      336.245        7.417      861.123
01/09/2015  18:35:00        7.878      -12.802       10.735       14.855        9.094        9.479      220.666       82.694       89.849        0.037        0.020       15.032        8.233        0.300      336.271        7.462      861.134
01/09/2015  18:36:00      -10.485       -5.861       -2.144       13.928        6.938        8.584      193.993       48.137       73.691        0.023        0.016       12.012        7.114        0.351      336.257        7.438      861.147
01/09/2015  18:37:00      -41.557      -15.976       -4.954       10.152        8.970        4.459      103.068       80.460       19.885        0.111        0.010       44.522        3.338        0.006      336.249        7.425      861.160
01/09/2015  18:38:00      -49.608      -13.673       -6.166        5.140        8.565        5.982       26.416       73.355       35.789        0.141        0.007       51.458        4.177        0.007      336.225        7.383      861.172
01/09/2015  18:39:00      -26.711      -19.000       -5.481       12.404       14.288        7.486      153.848      204.159       56.042        0.076        0.021       32.780        4.550        0.019      336.195        7.335      861.180
01/09/2015  18:40:00      -21.352        0.988       -0.118        7.680        6.837        5.362       58.977       46.741       28.752        0.030        0.007       21.375        3.069        0.021      336.218        7.372      861.184
01/09/2015  18:41:00        1.724        2.859        0.078       14.875        7.330        3.869      221.276       53.723       14.970        0.015        0.014        3.339        5.267        2.488      336.326        7.553      861.189
01/09/2015  18:42:00       10.407       10.089        4.876        6.867        8.173        5.351       47.151       66.800       28.636        0.019        0.007       14.495        3.409        0.055      336.340        7.576      861.195
01/09/2015  18:43:00       17.162       10.244        5.775       13.444        7.347        7.194      180.744       53.979       51.755        0.036        0.014       19.987        3.530        0.031      336.334        7.566      861.203
01/09/2015  18:44:00       36.130        8.623        9.317       17.812        8.481        6.186      317.282       71.931       38.265        0.095        0.021       37.145        7.448        0.040      336.388        7.656      861.210
01/09/2015  18:45:00       16.083        4.603        6.579       10.623        8.839        6.570      112.846       78.131       43.169        0.028        0.012       16.729        3.552        0.045      336.344        7.581      861.219
01/09/2015  18:46:00        2.913        1.705        4.375        9.333        6.108        5.793       87.097       37.308       33.562        0.009        0.008        3.375        3.556        1.110      336.372        7.630      861.223
01/09/2015  18:47:00      -20.339       -4.883       -4.237       14.443        8.537        5.876      208.587       72.875       34.529        0.039        0.016       20.917        6.514        0.097      336.296        7.503      861.221
01/09/2015  18:48:00      -45.469       -0.304       -6.410        5.432        6.623        4.866       29.503       43.867       23.677        0.110        0.005       45.470        2.075        0.002      336.132        7.226      861.215
01/09/2015  18:49:00      -46.419        3.918       -9.209        9.131        7.438        8.497       83.382       55.319       72.194        0.123        0.011       46.584        4.872        0.011      336.203        7.345      861.207
01/09/2015  18:50:00      -42.743       -0.895       -6.988        8.551       11.919        5.826       73.121      142.061       33.945        0.106        0.012       42.753        2.594        0.004      336.253        7.431      861.196
01/09/2015  18:51:00      -48.701      -22.606       -7.914        9.257        7.848        6.303       85.700       61.589       39.729        0.157        0.009       53.692        2.011        0.001      336.100        7.174      861.196
01/09/2015  18:52:00      -66.137      -25.365       -4.985       12.766       10.716        8.266      162.961      114.843       68.325        0.269        0.017       70.834        5.434        0.006      336.049        7.089      861.208
01/09/2015  18:53:00      -53.468       -2.884       -8.131       13.317       18.371       10.163      177.346      337.506      103.294        0.178        0.031       53.546        8.473        0.025      336.016        7.033      861.221
01/09/2015  18:54:00      -72.444        3.520       -5.297       14.966       11.910        9.279      223.967      141.839       86.104        0.287        0.023       72.529        4.074        0.003      335.987        6.987      861.219
01/09/2015  18:55:00      -59.349      -11.508       -8.141       12.696       17.862       10.265      161.178      319.054      105.373        0.215        0.029       60.455        6.134        0.010      335.975        6.968      861.225
01/09/2015  18:56:00      -39.528      -19.986       -3.476       12.797       11.960       10.777      163.759      143.033      116.135        0.120        0.021       44.293        7.206        0.026      336.050        7.090      861.219
01/09/2015  18:57:00      -22.335       -5.888       -2.456        5.392        6.762        5.101       29.069       45.728       26.015        0.032        0.005       23.098        3.872        0.028      336.018        7.038      861.217
01/09/2015  18:58:00      -15.956        0.846       -2.103        7.919        5.374        3.337       62.716       28.879       11.139        0.018        0.005       15.979        3.551        0.049      336.246        7.419      861.220
01/09/2015  18:59:00      -42.152       -2.045       -5.468        8.873        5.966        7.730       78.737       35.589       59.759        0.099        0.009       42.202        4.714        0.012      336.099        7.174      861.232
01/09/2015  19:00:00      -48.788        1.432       -9.129       10.454        6.718        6.199      109.280       45.133       38.430        0.133        0.010       48.809        4.466        0.008      336.019        7.038      861.236
01/09/2015  19:01:00      -60.276       -2.075      -10.361       10.048        7.719        7.509      100.970       59.580       56.379        0.198        0.011       60.312        1.947        0.001      336.019        7.040      861.243
01/09/2015  19:02:00      -56.713       -5.816       -8.145       14.437       26.313       11.820      208.415      692.379      139.706        0.218        0.052       57.010        9.670        0.029      335.884        6.816      861.248
01/09/2015  19:03:00      -71.282        3.645       -8.061       23.983       28.423       18.268      575.184      807.842      333.733        0.344        0.086       71.375       16.808        0.055      335.934        6.897      861.259
01/09/2015  19:04:00      -55.434       14.686      -11.075       24.967       21.723       15.275      623.353      471.899      233.333        0.237        0.066       57.346       10.164        0.031      335.947        6.921      861.278
01/09/2015  19:05:00      -53.541       -0.907      -12.085       23.985       19.053       12.639      575.260      363.026      159.733        0.206        0.055       53.549       10.727        0.040      335.886        6.817      861.293
01/09/2015  19:06:00      -49.798       -3.128       -6.941       29.831       25.973       15.082      889.864      674.584      227.466        0.216        0.090       49.896       11.890        0.057      335.975        6.965      861.301
01/09/2015  19:07:00      -22.062       -5.352        0.785       44.700       32.784       18.110     1998.091     1074.800      327.975        0.196        0.170       22.702       18.366        0.654      336.048        7.089      861.306
01/09/2015  19:08:00      -67.493       -0.926       -4.456       58.827       32.366       24.915     3460.662     1047.571      620.765        0.485        0.256       67.499       23.306        0.119      335.989        6.989      861.329
01/09/2015  19:09:00     -179.692       63.688       -9.449       53.973       34.814       26.934     2913.095     1212.034      725.437        2.064        0.243      190.644       21.657        0.013      335.929        6.889      861.350
01/09/2015  19:10:00     -150.349       28.954      -24.603       38.525       43.598       24.368     1484.185     1900.781      593.794        1.401        0.199      153.112       16.730        0.012      335.829        6.723      861.369
01/09/2015  19:11:00     -133.195        7.901       -6.623       52.501       50.297       28.716     2756.364     2529.832      824.582        1.198        0.306      133.429       26.208        0.039      335.745        6.584      861.376
01/09/2015  19:12:00      -99.662       13.408        0.639       53.437       42.167       27.824     2855.564     1778.069      774.202        0.776        0.270      100.560       32.061        0.102      335.737        6.570      861.385
01/09/2015  19:13:00     -151.200       21.921      -18.210       35.907       39.733       27.466     1289.339     1578.705      754.408        1.365        0.181      152.780       20.310        0.018      335.840        6.741      861.381
01/09/2015  19:14:00     -158.054       55.666       -9.864       42.966       28.879       25.514     1846.054      834.002      650.979        1.575        0.167      167.570       20.508        0.015      335.810        6.691      861.372
01/09/2015  19:15:00     -168.091       54.088      -12.072       39.310       27.919       24.379     1545.253      779.445      594.347        1.712        0.146      176.579       18.923        0.011      335.862        6.779      861.362
01/09/2015  19:16:00     -115.759        2.105      -10.997       33.780       26.325       17.486     1141.076      692.991      305.763        0.783        0.107      115.778       11.386        0.010      335.872        6.794      861.348
01/09/2015  19:17:00      -73.329        7.400      -14.398       35.418       31.016       19.515     1254.445      962.005      380.843        0.412        0.130       73.701       15.971        0.047      335.859        6.774      861.354
01/09/2015  19:18:00      -75.141       -5.553      -10.602       32.350       37.340       25.688     1046.550     1394.248      659.882        0.444        0.155       75.346       20.313        0.073      335.870        6.791      861.360
01/09/2015  19:19:00     -102.500       -2.121      -12.496       29.547       34.374       25.362      873.022     1181.570      643.222        0.668        0.135      102.522       15.964        0.024      335.909        6.857      861.365
01/09/2015  19:20:00      -78.205       -3.613       -8.964       25.941       23.501       14.674      672.939      552.315      215.321        0.382        0.072       78.289       11.547        0.022      335.889        6.823      861.364
01/09/2015  19:21:00      -94.753       18.015       -5.915       31.972       27.861       19.992     1022.202      776.222      399.691        0.577        0.110       96.450       16.466        0.029      335.893        6.830      861.366
01/09/2015  19:22:00     -104.652       19.103      -17.191       39.612       45.767       22.522     1569.123     2094.652      507.243        0.789        0.209      106.382       26.746        0.063      335.866        6.785      861.365
01/09/2015  19:23:00     -113.890       27.572      -15.558       38.982       34.559       24.606     1519.614     1194.291      605.451        0.865        0.166      117.180       22.886        0.038      335.899        6.840      861.350
01/09/2015  19:24:00     -110.143       13.867       -9.017       32.052       37.555       22.051     1027.332     1410.373      486.246        0.766        0.146      111.013       18.397        0.027      335.905        6.849      861.342
01/09/2015  19:25:00      -97.301       18.163      -16.696       34.312       43.400       24.914     1177.291     1883.553      620.683        0.688        0.184       98.982       15.650        0.025      335.928        6.888      861.340
01/09/2015  19:26:00      -86.194       35.484      -18.184       30.270       41.649       22.871      916.294     1734.606      523.084        0.610        0.159       93.213       20.714        0.049      335.984        6.981      861.336
01/09/2015  19:27:00      -67.390       -9.796       -7.035       26.585       35.704       19.654      706.782     1274.755      386.280        0.353        0.118       68.098       14.764        0.047      335.961        6.943      861.333
01/09/2015  19:28:00      -60.794      -29.343       -9.726       30.859       37.326       19.081      952.298     1393.260      364.100        0.368        0.135       67.505       17.417        0.067      335.968        6.954      861.339
01/09/2015  19:29:00     -103.331      -27.689      -11.385       26.997       23.336       21.992      728.831      544.554      483.665        0.666        0.088      106.977       17.052        0.025      335.942        6.911      861.343
01/09/2015  19:30:00      -67.113       -3.779       -9.104       23.706       33.822       20.372      561.979     1143.939      415.015        0.336        0.106       67.219       16.741        0.062      335.935        6.900      861.354
01/09/2015  19:31:00      -61.256        3.753      -22.918       18.506       32.547       13.935      342.475     1059.322      194.191        0.294        0.080       61.371       10.564        0.030      336.050        7.090      861.352
01/09/2015  19:32:00      -79.245       26.410      -13.552       16.924       19.298       11.583      286.428      372.430      134.172        0.398        0.040       83.530        8.174        0.010      336.111        7.193      861.347
01/09/2015  19:33:00      -86.055       33.070      -11.104       15.584       20.900       13.458      242.855      436.810      181.113        0.474        0.043       92.191        7.070        0.006      336.246        7.419      861.331
01/09/2015  19:34:00      -88.500       31.094      -19.922       19.316       27.195       13.284      373.123      739.590      176.476        0.524        0.064       93.804        9.236        0.010      336.261        7.443      861.325
01/09/2015  19:35:00      -72.184       17.088       -9.486       20.997       19.533       15.585      440.859      381.531      242.893        0.333        0.053       74.180        8.280        0.012      336.227        7.386      861.312
01/09/2015  19:36:00      -69.661        9.961      -12.263       16.602       21.356       13.428      275.631      456.099      180.312        0.301        0.046       70.370       10.870        0.024      336.057        7.103      861.312
01/09/2015  19:37:00      -49.811        3.884       -7.918       24.249       24.001       12.118      588.004      576.058      146.843        0.193        0.066       49.962       10.445        0.044      336.070        7.123      861.315
01/09/2015  19:38:00      -52.362       -5.482      -18.674       16.662       18.898       13.010      277.631      357.150      169.273        0.196        0.040       52.648        9.375        0.032      336.045        7.081      861.311
01/09/2015  19:39:00      -65.677       29.414      -17.230       15.146       23.604       13.445      229.403      557.163      180.762        0.322        0.048       71.963       10.484        0.021      336.229        7.391      861.306
01/09/2015  19:40:00      -62.599       14.255       -9.907       13.936       13.230       10.717      194.212      175.031      114.849        0.235        0.024       64.202        8.789        0.019      336.276        7.469      861.307
01/09/2015  19:41:00      -50.696        1.188       -3.527       20.708       12.461        9.440      428.832      155.274       89.119        0.163        0.034       50.710        5.216        0.011      336.174        7.299      861.311
01/09/2015  19:42:00      -63.703        6.566      -15.207       17.279       22.285       10.825      298.554      496.636      117.186        0.262        0.046       64.041       11.118        0.030      336.175        7.299      861.327
01/09/2015  19:43:00      -59.242      -13.361      -10.998       16.455       12.618        9.150      270.762      159.209       83.728        0.216        0.026       60.730        7.892        0.017      335.989        6.989      861.328
01/09/2015  19:44:00      -60.520      -11.464      -10.959       16.826       15.111        9.643      283.098      228.335       92.989        0.226        0.030       61.597        6.356        0.011      336.029        7.055      861.339
01/09/2015  19:45:00      -34.559        4.646       -6.268       24.446       20.893       11.311      597.599      436.500      127.935        0.121        0.058       34.870        8.235        0.056      336.191        7.328      861.337
01/09/2015  19:46:00      -55.594       22.593      -16.498       15.317       24.955       11.846      234.616      622.729      140.328        0.244        0.050       60.010        7.075        0.014      336.292        7.496      861.343
01/09/2015  19:47:00      -50.577        5.327      -10.794       11.754       15.091        8.215      138.156      227.743       67.488        0.157        0.022       50.856        5.135        0.010      336.286        7.485      861.348
01/09/2015  19:48:00      -48.179       -7.890       -3.834       14.541       11.996       12.295      211.429      143.908      151.158        0.145        0.025       48.821       11.540        0.056      336.065        7.116      861.360
01/09/2015  19:49:00      -26.066      -12.129       -6.948       16.619        7.281        7.507      276.200       53.017       56.349        0.063        0.019       28.750        6.043        0.044      336.028        7.053      861.369
01/09/2015  19:50:00      -24.078      -22.750       -2.273       10.886        6.282        4.419      118.504       39.458       19.524        0.064        0.009       33.125        3.682        0.012      336.094        7.165      861.368
01/09/2015  19:51:00      -35.220      -14.978       -2.745        5.551        6.026        3.760       30.815       36.318       14.134        0.078        0.004       38.273        4.012        0.011      336.138        7.238      861.370
01/09/2015  19:52:00      -43.723       -7.672       -3.901       10.241        7.412        6.846      104.871       54.942       46.864        0.110        0.010       44.391        3.542        0.006      336.088        7.156      861.370
01/09/2015  19:53:00      -62.025        1.852       -8.826        6.477        6.917        5.861       41.948       47.843       34.351        0.203        0.006       62.052        2.276        0.001      336.166        7.286      861.379
01/09/2015  19:54:00      -53.975        9.818       -3.793        6.441        8.456        5.237       41.486       71.499       27.422        0.158        0.007       54.861        3.290        0.004      336.300        7.508      861.377
01/09/2015  19:55:00      -45.847        3.048       -8.696       17.820        9.277        9.020      317.554       86.070       81.369        0.134        0.024       45.948       10.053        0.048      336.232        7.396      861.378
01/09/2015  19:56:00      -17.341       -7.930        2.074        9.201       11.535        8.070       84.661      133.059       65.122        0.033        0.014       19.068        6.112        0.103      336.196        7.335      861.385
01/09/2015  19:57:00       -7.372       -5.080       -2.677        7.060        9.876        5.637       49.840       97.541       31.779        0.013        0.009        8.953        4.134        0.213      336.310        7.525      861.390
01/09/2015  19:58:00       -5.221      -13.520        0.652        6.114        8.067        5.312       37.385       65.084       28.221        0.017        0.007       14.493        4.584        0.100      336.395        7.669      861.407
01/09/2015  19:59:00       -9.424      -20.302       -4.353        8.699       11.184        7.685       75.666      125.087       59.057        0.039        0.013       22.383        7.571        0.114      336.292        7.497      861.420
01/09/2015  20:00:00      -13.146      -19.296       -7.388        8.300        8.559        6.850       68.896       73.265       46.922        0.039        0.009       23.348        3.405        0.021      336.220        7.374      861.427
01/09/2015  20:01:00      -26.135      -22.764        0.997       11.593        6.865        8.003      134.389       47.130       64.048        0.072        0.012       34.659        8.224        0.056      336.161        7.279      861.434
01/09/2015  20:02:00      -31.277      -26.954       -5.005        8.579        5.548        7.074       73.595       30.786       50.036        0.094        0.008       41.289        6.399        0.024      336.203        7.346      861.437
01/09/2015  20:03:00       -9.656      -23.531        1.880       13.274       11.064       10.925      176.189      122.401      119.354        0.053        0.021       25.435        5.381        0.045      336.220        7.374      861.449
01/09/2015  20:04:00      -70.146      -49.475        6.360       45.412       38.112       20.033     2062.276     1452.557      401.324        0.566        0.196       85.838       15.588        0.033      336.077        7.136      861.457
01/09/2015  20:05:00      -51.487      -55.469        2.211       29.864       26.638       21.424      891.829      709.592      458.996        0.390        0.103       75.682       16.784        0.049      336.101        7.177      861.468
01/09/2015  20:06:00      -50.002      -43.245        2.238       17.632       29.342       11.460      310.870      860.970      131.338        0.284        0.065       66.108        7.109        0.012      336.116        7.202      861.468
01/09/2015  20:07:00      -22.590      -14.084        4.064       17.798       21.908       10.653      316.767      479.944      113.484        0.082        0.046       26.620        9.734        0.134      336.066        7.117      861.482
01/09/2015  20:08:00      -35.242      -41.845       -0.335       23.470       19.700       11.040      550.835      388.077      121.873        0.203        0.053       54.708       11.252        0.042      336.094        7.164      861.510
01/09/2015  20:09:00      -47.130     -100.998        3.429       45.196       51.539       25.770     2042.677     2656.219      664.074        0.890        0.268      111.454       24.377        0.048      336.106        7.183      861.528
01/09/2015  20:10:00      -81.911      -54.914        2.602       35.730       48.247       27.882     1276.599     2327.821      777.406        0.706        0.219       98.615       19.888        0.041      336.048        7.088      861.528
01/09/2015  20:11:00      -56.670      -25.939        3.092       35.012       38.520       18.656     1225.821     1483.759      348.065        0.348        0.153       62.324       10.609        0.029      336.049        7.088      861.515
01/09/2015  20:12:00      -73.682      -35.190        4.175       43.498       33.847       16.785     1892.115     1145.634      281.739        0.500        0.166       81.655       18.324        0.050      336.037        7.070      861.492
01/09/2015  20:13:00     -106.524      -41.868       -1.235       27.229       38.885       17.352      741.422     1512.050      301.098        0.783        0.128      114.456       17.715        0.024      336.019        7.040      861.476
01/09/2015  20:14:00     -101.261      -56.162       -1.688       31.890       29.577       15.484     1016.973      874.779      239.754        0.777        0.107      115.793       12.652        0.012      335.993        6.996      861.472
01/09/2015  20:15:00      -98.006      -62.916       -1.971       51.728       36.255       25.183     2675.817     1314.458      634.163        0.910        0.231      116.463       25.916        0.050      335.997        7.002      861.482
01/09/2015  20:16:00      -70.104      -51.907        2.286       43.261       31.759       21.929     1871.550     1008.643      480.881        0.549        0.168       87.229       16.933        0.038      336.000        7.008      861.489
01/09/2015  20:17:00     -104.729      -60.585        1.672       27.240       30.888       17.590      741.999      954.057      309.410        0.832        0.100      120.991       14.146        0.014      335.988        6.987      861.500
01/09/2015  20:18:00      -61.517      -38.529        3.945       37.758       23.281       14.818     1425.644      541.986      219.579        0.374        0.109       72.587       12.685        0.031      336.050        7.090      861.502
01/09/2015  20:19:00      -60.632      -66.386        2.658       39.409       32.610       24.434     1553.074     1063.438      597.028        0.565        0.161       89.907       25.136        0.078      336.090        7.158      861.493
01/09/2015  20:20:00      -60.385      -37.896        6.491       41.659       29.473       24.786     1735.478      868.666      614.369        0.417        0.161       71.291       24.284        0.116      336.097        7.170      861.480
01/09/2015  20:21:00      -77.680      -54.103        3.075       47.510       34.028       21.906     2257.168     1157.875      479.867        0.643        0.195       94.664       23.219        0.060      336.064        7.114      861.478
01/09/2015  20:22:00      -88.362      -51.592        8.048       56.254       41.910       26.062     3164.545     1756.485      679.240        0.807        0.280      102.321       30.231        0.087      336.008        7.021      861.487
01/09/2015  20:23:00     -114.254      -22.719       -4.523       36.989       25.756       19.856     1368.196      663.357      394.249        0.801        0.121      116.491       20.329        0.030      335.959        6.941      861.486
01/09/2015  20:24:00      -94.965      -12.824       -4.309       36.568       36.665       17.205     1337.233     1344.334      296.025        0.609        0.149       95.827       16.370        0.029      335.910        6.858      861.484
01/09/2015  20:25:00     -132.430      -15.875      -10.965       32.881       23.592       19.637     1081.170      556.580      385.607        0.997        0.101      133.378       18.867        0.020      335.870        6.793      861.477
01/09/2015  20:26:00     -141.846      -33.534       -7.603       28.577       33.195       18.181      816.620     1101.883      330.566        1.178        0.112      145.756       14.377        0.010      335.867        6.787      861.473
01/09/2015  20:27:00     -130.261      -64.526       -4.639       38.809       29.175       21.700     1506.145      851.174      470.887        1.199        0.141      145.367       22.593        0.024      335.853        6.764      861.478
01/09/2015  20:28:00     -125.020      -51.726       -9.540       21.876       28.361       15.453      478.571      804.359      238.786        0.996        0.076      135.298        9.888        0.005      335.869        6.790      861.468
01/09/2015  20:29:00      -79.840      -49.234        1.375       31.453       38.249       20.086      989.307     1462.984      403.466        0.583        0.143       93.800       20.999        0.050      335.885        6.818      861.452
01/09/2015  20:30:00      -90.179      -18.308       -1.918       41.491       23.895       21.117     1721.532      570.973      445.945        0.560        0.137       92.019       25.270        0.075      335.890        6.826      861.432
01/09/2015  20:31:00     -110.722      -16.332       -7.445       33.109       21.144       16.209     1096.179      447.075      262.735        0.719        0.090      111.920       16.180        0.021      335.829        6.724      861.413
01/09/2015  20:32:00     -104.535       -9.401      -11.289       41.505       22.169       19.312     1722.678      491.461      372.941        0.686        0.129      104.957       21.305        0.041      335.804        6.681      861.399
01/09/2015  20:33:00      -78.242      -32.946       -0.202       22.933       25.186       15.265      525.914      634.323      233.006        0.430        0.070       84.896       10.869        0.016      335.769        6.624      861.391
01/09/2015  20:34:00      -66.910       -5.254        1.103       39.184       27.799       16.688     1535.423      772.785      278.477        0.355        0.129       67.116       16.317        0.059      335.688        6.488      861.394
01/09/2015  20:35:00     -121.800       14.122       -7.985       35.057       31.072       25.421     1228.970      965.455      646.237        0.897        0.142      122.616       23.712        0.037      335.638        6.406      861.394
01/09/2015  20:36:00     -101.125       22.165       -5.069       33.453       30.600       19.290     1119.136      936.384      372.123        0.658        0.121      103.525       16.185        0.024      335.576        6.302      861.385
01/09/2015  20:37:00     -110.274       28.014      -10.375       31.949       29.853       18.194     1020.725      891.188      331.035        0.765        0.112      113.776       15.688        0.019      335.640        6.409      861.380
01/09/2015  20:38:00     -112.926       33.900       -8.260       32.686       24.538       17.519     1068.366      602.094      306.904        0.797        0.099      117.905       14.022        0.014      335.693        6.498      861.368
01/09/2015  20:39:00      -55.158        4.413       -7.905       30.177       22.301       13.494      910.647      497.347      182.087        0.236        0.080       55.334       12.952        0.055      335.685        6.484      861.353
01/09/2015  20:40:00      -79.420       38.168      -10.455       26.773       23.138       13.624      716.774      535.373      185.617        0.466        0.072       88.115       12.276        0.019      335.826        6.718      861.354
01/09/2015  20:41:00     -121.974       29.942      -19.909       28.871       30.287       17.127      833.559      917.317      293.333        0.911        0.102      125.596        8.282        0.004      335.639        6.408      861.368
01/09/2015  20:42:00     -130.771       42.398      -18.138       22.457       30.922       19.609      504.339      956.183      384.530        1.054        0.092      137.473       13.529        0.010      335.545        6.250      861.384
01/09/2015  20:43:00      -76.121       27.270      -11.853       31.124       34.619       16.941      968.726     1198.456      287.014        0.457        0.123       80.858       20.096        0.062      335.623        6.380      861.388
01/09/2015  20:44:00      -46.950       39.587       -4.162       29.355       32.612       19.479      861.693     1063.541      379.430        0.305        0.115       61.411       24.385        0.158      335.956        6.936      861.367
01/09/2015  20:45:00      -73.524       65.199      -13.014       30.970       31.495       19.465      959.144      991.920      378.889        0.608        0.116       98.268       17.741        0.033      336.032        7.063      861.346
01/09/2015  20:46:00     -114.005      -10.320      -17.391       31.611       33.552       19.731      999.264     1125.711      389.325        0.796        0.126      114.471       15.217        0.018      335.819        6.706      861.345
01/09/2015  20:47:00     -104.506      -18.749       -3.411       36.197       35.405       23.010     1310.247     1253.487      529.475        0.719        0.155      106.174       21.803        0.042      335.715        6.534      861.358
01/09/2015  20:48:00      -60.078      -14.835       -2.852       17.558       15.485       11.277      308.301      239.790      127.179        0.226        0.034       61.883        6.695        0.012      335.776        6.636      861.357
01/09/2015  20:49:00      -17.685      -10.353       -6.214       12.417        9.804        8.372      154.194       96.124       70.092        0.039        0.016       20.492        7.675        0.140      335.823        6.712      861.347
01/09/2015  20:50:00      -14.794       -0.009       -0.055       10.372        6.866        6.366      107.582       47.135       40.531        0.021        0.010       14.794        7.297        0.243      335.907        6.852      861.340
01/09/2015  20:51:00      -61.283       -4.940       -6.555       18.411        8.799        6.821      338.979       77.420       46.533        0.214        0.023       61.481        7.000        0.013      335.954        6.930      861.343
01/09/2015  20:52:00      -79.821       -9.157      -11.042       16.683       13.364        9.323      278.318      178.602       86.923        0.356        0.027       80.345        9.298        0.013      335.912        6.862      861.348
01/09/2015  20:53:00      -48.602       -3.494       -7.460       11.482        8.646        6.066      131.827       74.759       36.795        0.134        0.012       48.727        5.315        0.012      335.920        6.873      861.357
01/09/2015  20:54:00       -9.620      -19.047       -3.941        8.105        5.559        3.832       65.688       30.907       14.682        0.029        0.006       21.338        2.803        0.017      336.017        7.037      861.355
01/09/2015  20:55:00       -9.035      -16.837        1.179        7.966        5.104        5.574       63.463       26.054       31.069        0.024        0.006       19.108        4.655        0.059      336.173        7.296      861.353
01/09/2015  20:56:00      -33.858      -19.883       -1.645        5.663        7.402        3.388       32.074       54.788       11.477        0.082        0.005       39.264        3.659        0.009      336.130        7.225      861.346
01/09/2015  20:57:00      -11.665       -3.973       -2.572       13.566        6.145        4.432      184.048       37.757       19.646        0.020        0.012       12.323        6.042        0.240      335.975        6.964      861.339
01/09/2015  20:58:00       13.266        0.880       -2.900        9.427        5.037        4.439       88.865       25.368       19.706        0.016        0.007       13.295        4.623        0.121      336.223        7.380      861.331
01/09/2015  20:59:00       20.602        6.364       12.489       11.173        9.677       12.293      124.831       93.647      151.124        0.050        0.018       21.562        7.264        0.113      336.134        7.231      861.332
01/09/2015  21:00:00        5.246       -5.790        1.270        7.290        8.685        3.430       53.138       75.421       11.762        0.010        0.007        7.814        3.581        0.210      335.973        6.963      861.360
01/09/2015  21:01:00      -28.357      -12.284       -2.575       12.985        5.442        4.675      168.600       29.611       21.854        0.059        0.011       30.904        4.801        0.024      335.911        6.860      861.371
01/09/2015  21:02:00      -19.601       -9.634       -1.604       10.811        4.614        2.615      116.884       21.291        6.841        0.031        0.007       21.841        2.212        0.010      335.852        6.763      861.379
01/09/2015  21:03:00        7.241       14.864        1.215        9.630       11.591        5.850       92.738      134.351       34.218        0.027        0.013       16.534        6.544        0.157      335.976        6.967      861.374
01/09/2015  21:04:00       19.266       24.266        7.833        6.962        4.780        5.065       48.467       22.844       25.659        0.056        0.005       30.984        2.042        0.004      336.065        7.118      861.355
01/09/2015  21:05:00       29.232       18.335        3.269        7.576        5.804        4.988       57.401       33.688       24.875        0.066        0.006       34.506        2.555        0.005      335.986        6.983      861.354
01/09/2015  21:06:00       11.651       10.685        0.267        2.439        3.452        2.125        5.947       11.919        4.515        0.014        0.001       15.809        1.647        0.011      336.021        7.041      861.361
01/09/2015  21:07:00        6.548        1.564        3.536        4.454        5.823        2.483       19.841       33.911        6.167        0.006        0.003        6.732        1.126        0.028      336.015        7.031      861.362
01/09/2015  21:08:00       -2.061      -12.768        7.010        5.100       16.861       10.434       26.011      284.287      108.859        0.032        0.021       12.933       12.214        0.892      335.910        6.859      861.359
01/09/2015  21:09:00        8.112       17.125       18.128        7.865        6.471        7.724       61.853       41.868       59.665        0.043        0.008       18.949        5.800        0.094      335.730        6.562      861.360
01/09/2015  21:10:00       12.517       15.536        9.809        5.803        5.692        5.828       33.669       32.402       33.962        0.030        0.005       19.951        3.398        0.029      335.746        6.586      861.363
01/09/2015  21:11:00       14.159       12.913        6.679        9.079        4.726        5.985       82.430       22.336       35.819        0.028        0.007       19.163        2.453        0.016      335.749        6.594      861.362
01/09/2015  21:12:00       31.139       23.977       -0.672        7.448       11.369        9.670       55.472      129.252       93.504        0.091        0.014       39.300        6.834        0.030      335.717        6.535      861.367
01/09/2015  21:13:00       37.622       21.062        0.468       13.877       18.520       13.395      192.577      343.008      179.435        0.129        0.036       43.116       10.094        0.055      335.622        6.378      861.367
01/09/2015  21:14:00       23.982       18.903        2.155       21.164       17.484       11.635      447.927      305.697      135.378        0.091        0.044       30.536        6.937        0.052      335.608        6.356      861.382
01/09/2015  21:15:00       19.677       33.018       -8.189       10.818       18.491        8.454      117.026      341.901       71.464        0.104        0.027       38.437        9.307        0.059      335.662        6.444      861.398
01/09/2015  21:16:00       -2.889       25.774       -5.080        6.105        4.110        3.305       37.269       16.894       10.922        0.038        0.003       25.935        3.559        0.019      335.730        6.560      861.420
01/09/2015  21:17:00      -32.757        9.426       -7.345       12.158        9.841        5.393      147.816       96.841       29.089        0.074        0.014       34.086        5.988        0.031      335.604        6.347      861.427
01/09/2015  21:18:00      -10.158        2.205       -0.021        7.813        2.460        4.030       61.049        6.053       16.240        0.010        0.004       10.395        3.744        0.130      335.596        6.336      861.423
01/09/2015  21:19:00       -2.785       36.061       -3.375        6.111       12.055        4.149       37.349      145.323       17.212        0.076        0.010       36.168        5.366        0.022      335.803        6.682      861.423
01/09/2015  21:20:00      -24.344       33.263       -9.163        8.559       11.101        3.177       73.255      123.239       10.096        0.099        0.010       41.220        2.977        0.005      335.876        6.800      861.426
01/09/2015  21:21:00      -25.449        8.345       -6.120        8.033        9.947        5.322       64.536       98.934       28.326        0.047        0.010       26.782        4.463        0.028      335.782        6.645      861.437
01/09/2015  21:22:00      -29.022        0.260       -4.540       10.256       10.881        5.995      105.190      118.400       35.941        0.056        0.013       29.023        4.128        0.020      335.632        6.395      861.441
01/09/2015  21:23:00       -9.042        7.049       -2.913        8.337        9.870        7.888       69.499       97.419       62.218        0.018        0.011       11.466        7.196        0.394      335.725        6.550      861.438
01/09/2015  21:24:00       -3.462       38.500       -4.542       15.073       17.522        8.121      227.194      307.030       65.955        0.106        0.030       38.655        6.437        0.028      335.939        6.906      861.430
01/09/2015  21:25:00       -4.731       48.932       -2.706        7.136        8.969        5.383       50.930       80.442       28.979        0.129        0.008       49.160        5.258        0.011      335.946        6.921      861.425
01/09/2015  21:26:00      -17.834       64.342       -8.739       16.596       13.800        7.571      275.420      190.446       57.325        0.253        0.026       66.767        5.553        0.007      335.970        6.959      861.430
01/09/2015  21:27:00      -25.415       12.082       -4.919       15.840       24.170        8.902      250.918      584.195       79.249        0.087        0.046       28.141        7.277        0.067      335.684        6.482      861.441
01/09/2015  21:28:00      -45.852      -18.151       -9.410       13.886       15.056        9.215      192.808      226.674       84.921        0.151        0.025       49.314        7.872        0.025      335.231        5.727      861.444
01/09/2015  21:29:00      -40.174      -27.638       -4.242       22.127       20.006       10.965      489.595      400.229      120.240        0.170        0.051       48.763       11.322        0.054      335.254        5.764      861.447
01/09/2015  21:30:00      -34.088       -8.267       -5.677        7.725        6.623        6.055       59.679       43.859       36.657        0.070        0.007       35.076        1.661        0.002      335.512        6.195      861.441
01/09/2015  21:31:00      -51.837      -12.463       -6.495       15.013       10.590       11.000      225.379      112.146      120.992        0.167        0.023       53.314        7.580        0.020      335.394        5.998      861.448
01/09/2015  21:32:00      -74.812       -1.301       -8.708       29.708       11.360        9.442      882.572      129.046       89.157        0.339        0.055       74.823        7.981        0.011      335.323        5.880      861.452
01/09/2015  21:33:00      -82.788       -6.055      -10.085       24.423       21.468       12.347      596.466      460.865      152.454        0.410        0.060       83.009        9.537        0.013      335.246        5.750      861.462
01/09/2015  21:34:00      -62.507        0.298      -12.115       25.275       13.718       15.825      638.817      188.191      250.445        0.257        0.054       62.508       15.653        0.063      335.261        5.774      861.465
01/09/2015  21:35:00      -38.055        0.299      -11.548       11.466       18.158       10.910      131.465      329.722      119.029        0.108        0.029       38.056        5.643        0.022      335.358        5.937      861.456
01/09/2015  21:36:00       -8.637        8.643       -8.326       17.020       12.300        5.618      289.689      151.289       31.563        0.035        0.024       12.219        4.739        0.150      335.544        6.248      861.444
01/09/2015  21:37:00        2.181        5.868       -4.424        6.246        6.684        4.273       39.007       44.675       18.258        0.008        0.005        6.260        3.148        0.253      335.746        6.585      861.436
01/09/2015  21:38:00       -4.214       -1.083        0.010        3.783        3.003        2.468       14.314        9.020        6.092        0.002        0.001        4.351        2.324        0.285      335.761        6.607      861.434
01/09/2015  21:39:00        5.722       -4.386        4.191        8.092        4.089        5.206       65.477       16.720       27.098        0.009        0.005        7.210        4.990        0.479      335.808        6.687      861.425
01/09/2015  21:40:00       18.778       18.221        6.736        9.542       10.702        9.048       91.052      114.526       81.866        0.051        0.014       26.165        6.389        0.060      335.930        6.892      861.412
01/09/2015  21:41:00       21.617       12.027        2.389       12.825        9.074        7.261      164.468       82.332       52.728        0.046        0.015       24.738        6.934        0.079      335.944        6.917      861.406
01/09/2015  21:42:00        0.477       11.544       -6.636       26.840       13.834       11.902      720.383      191.388      141.663        0.062        0.053       11.553       10.052        0.757      335.941        6.908      861.411
01/09/2015  21:43:00      -52.201       -0.753      -11.456       15.185        9.183        6.598      230.573       84.328       43.534        0.161        0.018       52.206        6.560        0.016      335.501        6.177      861.416
01/09/2015  21:44:00      -74.193      -12.598       -9.167       15.931       14.478       11.597      253.800      209.620      134.489        0.317        0.030       75.255        7.088        0.009      335.240        5.740      861.410
01/09/2015  21:45:00      -78.915       -7.703      -14.791       19.109       12.376       17.120      365.155      153.159      293.080        0.366        0.041       79.290       11.547        0.021      335.190        5.659      861.409
01/09/2015  21:46:00     -102.689        3.252      -13.906       20.090       16.628       13.148      403.618      276.489      172.858        0.580        0.043      102.740       10.444        0.010      335.237        5.736      861.403
01/09/2015  21:47:00      -88.903        1.421      -14.449       18.195       12.919       11.080      331.048      166.904      122.763        0.437        0.031       88.914        6.323        0.005      335.309        5.856      861.393
01/09/2015  21:48:00      -63.816       -2.950       -7.388       20.968       14.283        9.290      439.640      204.013       86.303        0.243        0.036       63.884        7.782        0.015      335.294        5.830      861.382
01/09/2015  21:49:00      -50.626       -2.826       -4.842       12.050       12.658       10.927      145.194      160.223      119.408        0.151        0.021       50.704        7.609        0.023      335.384        5.980      861.379
01/09/2015  21:50:00      -73.917       -3.102      -10.333       18.842       12.946       10.974      355.029      167.602      120.433        0.311        0.032       73.983        7.285        0.010      335.406        6.018      861.374
01/09/2015  21:51:00      -78.610       -6.163      -10.528       13.773       12.749       10.829      189.689      162.541      117.265        0.340        0.023       78.851        7.026        0.008      335.376        5.967      861.372
01/09/2015  21:52:00      -61.479       -0.104       -9.834       16.688       12.658        9.483      278.492      160.221       89.926        0.220        0.026       61.479        8.711        0.020      335.471        6.127      861.372
01/09/2015  21:53:00      -35.717        5.265       -7.247       12.482       11.823        7.772      155.812      139.781       60.399        0.086        0.018       36.103        5.113        0.020      335.514        6.198      861.373
01/09/2015  21:54:00      -25.348       62.664       -9.511       21.098       33.815       12.547      445.125     1143.460      157.438        0.320        0.087       67.596       12.443        0.034      335.967        6.952      861.375
01/09/2015  21:55:00      -17.919       84.980      -12.229       22.348       20.831       15.731      499.416      433.929      247.464        0.444        0.059       86.849       10.991        0.016      335.949        6.921      861.379
01/09/2015  21:56:00      -12.789       92.791       -8.542       13.098       19.308       14.067      171.565      372.808      197.870        0.479        0.037       93.668       12.720        0.018      335.898        6.839      861.376
01/09/2015  21:57:00      -10.208      101.093      -16.498       13.270       17.583       10.637      176.084      309.162      113.155        0.560        0.030      101.607        8.291        0.007      335.916        6.868      861.369
01/09/2015  21:58:00      -16.292      108.834      -15.088       13.031       34.794       10.712      169.806     1210.597      114.748        0.692        0.075      110.047       11.704        0.011      335.916        6.866      861.366
01/09/2015  21:59:00       -7.480      125.938      -15.705       12.432       19.156        8.133      154.564      366.955       66.148        0.838        0.029      126.160        9.046        0.005      335.915        6.865      861.355
01/09/2015  22:00:00      -12.259       99.988      -13.403       17.161       14.914       12.515      294.508      222.427      156.633        0.550        0.034      100.737        8.624        0.007      335.930        6.891      861.356
01/09/2015  22:01:00       -6.832       90.644       -8.473       10.799       12.829        8.608      116.623      164.589       74.105        0.434        0.018       90.901        7.056        0.006      335.903        6.849      861.361
01/09/2015  22:02:00       -2.061       89.644       -7.883       15.824       26.782       15.172      250.394      717.266      230.201        0.465        0.060       89.667       10.475        0.014      335.892        6.827      861.372
01/09/2015  22:03:00       -9.662       35.361        5.654       25.356       25.952       17.389      642.910      673.496      302.394        0.150        0.081       36.658       13.739        0.140      335.841        6.743      861.380
01/09/2015  22:04:00       21.728       40.781       -3.844       16.364       31.712       15.513      267.769     1005.657      240.659        0.183        0.076       46.208       17.842        0.149      335.806        6.687      861.395
01/09/2015  22:05:00       18.861       12.104        0.609       14.484       17.423       11.821      209.776      303.545      139.732        0.058        0.033       22.411       10.213        0.208      335.810        6.692      861.396
01/09/2015  22:06:00       19.513       13.208       -2.930       12.222       10.990       10.527      149.389      120.787      110.825        0.047        0.019       23.563        6.944        0.087      335.771        6.629      861.391
01/09/2015  22:07:00        8.349       28.763       -4.952        8.702        8.757        6.170       75.717       76.677       38.072        0.056        0.010       29.950        4.285        0.020      335.786        6.654      861.376
01/09/2015  22:08:00       29.582       27.322       -1.509       13.763        9.783       14.867      189.417       95.704      221.025        0.106        0.025       40.268        8.404        0.044      335.809        6.690      861.359
01/09/2015  22:09:00       41.017       26.731       19.546       15.083       10.984       11.621      227.487      120.645      135.044        0.163        0.024       48.958        7.545        0.024      335.756        6.603      861.335
01/09/2015  22:10:00       30.400       15.202        5.705        7.996        6.053        6.710       63.941       36.641       45.030        0.067        0.007       33.990        3.703        0.012      335.748        6.587      861.317
01/09/2015  22:11:00       26.634        5.576        0.308        6.100        4.357        4.250       37.215       18.984       18.063        0.041        0.004       27.211        2.086        0.006      335.770        6.628      861.311
01/09/2015  22:12:00       22.771        2.272        0.097        5.800        2.658        4.416       33.636        7.066       19.497        0.029        0.003       22.884        2.088        0.008      335.784        6.651      861.308
01/09/2015  22:13:00       16.916        7.156        8.536        6.331        8.416       10.718       40.086       70.827      114.867        0.032        0.011       18.368        6.585        0.129      335.794        6.665      861.300
01/09/2015  22:14:00        8.721        6.639        0.849        8.075        5.802        6.136       65.207       33.660       37.648        0.013        0.007       10.961        4.583        0.175      335.784        6.647      861.300
01/09/2015  22:15:00        3.542        1.601        4.673        5.346        2.803        3.773       28.580        7.856       14.233        0.004        0.003        3.887        1.662        0.183      335.827        6.718      861.304
01/09/2015  22:16:00       -8.146       20.363        0.971       12.508       11.723        6.508      156.459      137.425       42.351        0.041        0.017       21.932        3.588        0.027      335.741        6.578      861.309
01/09/2015  22:17:00      -31.465        7.975       -6.650        9.864        7.922        6.968       97.294       62.761       48.553        0.065        0.010       32.460        3.973        0.015      335.502        6.178      861.302
01/09/2015  22:18:00      -11.078        2.039       -1.533        8.181        3.851        7.104       66.929       14.827       50.461        0.013        0.007       11.264        3.593        0.102      335.605        6.351      861.291
01/09/2015  22:19:00      -19.973       -2.452        0.721        8.329        8.320        6.894       69.377       69.221       47.530        0.030        0.009       20.123        3.130        0.024      335.560        6.277      861.284
01/09/2015  22:20:00        6.502       -1.395        4.399        6.319        4.019        7.612       39.927       16.150       57.939        0.009        0.006        6.650        5.475        0.678      335.644        6.415      861.277
01/09/2015  22:21:00        9.177       -6.853       -6.391       13.660        9.210        4.584      186.602       84.833       21.011        0.023        0.015       11.454        4.381        0.146      335.692        6.497      861.264
01/09/2015  22:22:00       13.761        5.022        1.247       11.753        6.077        7.401      138.123       36.935       54.775        0.022        0.011       14.649        7.153        0.238      335.775        6.635      861.256
01/09/2015  22:23:00        3.369       -2.578        3.773        5.521        5.862        5.819       30.482       34.364       33.863        0.007        0.005        4.242        4.897        1.333      335.788        6.655      861.255
01/09/2015  22:24:00        5.699       -7.172       -0.998        5.319        7.657        6.440       28.294       58.637       41.480        0.011        0.006        9.161        4.753        0.269      335.810        6.690      861.262
01/09/2015  22:25:00        8.030        1.669        8.363       11.782        7.610        7.566      138.814       57.905       57.245        0.020        0.013        8.202        7.224        0.776      335.826        6.718      861.261
01/09/2015  22:26:00        6.584        4.926       13.803       10.837        4.990       12.046      117.441       24.896      145.112        0.027        0.014        8.223        9.211        1.255      335.716        6.535      861.257
01/09/2015  22:27:00      -16.702        7.126        6.928        5.616        5.839        3.786       31.542       34.093       14.333        0.023        0.004       18.158        2.594        0.020      335.576        6.304      861.252
01/09/2015  22:28:00        8.299       17.005        6.812       11.015        5.823        5.499      121.331       33.903       30.242        0.029        0.009       18.922        6.427        0.115      335.657        6.438      861.246
01/09/2015  22:29:00       33.988       22.944        0.646        9.934        7.151        4.476       98.678       51.138       20.037        0.093        0.008       41.008        5.787        0.020      335.718        6.537      861.240
01/09/2015  22:30:00       28.166       19.912       -0.575        8.743        6.352        7.740       76.435       40.347       59.901        0.068        0.009       34.494        5.123        0.022      335.627        6.387      861.234
01/09/2015  22:31:00       29.031       19.784       -7.826       10.863       14.591        6.484      118.007      212.905       42.046        0.083        0.019       35.132        7.564        0.046      335.738        6.574      861.219
01/09/2015  22:32:00       10.868       55.894      -12.588       12.363       19.555        7.995      152.841      382.412       63.922        0.200        0.030       56.941        4.608        0.007      335.861        6.776      861.212
01/09/2015  22:33:00       17.968       70.674      -15.164       29.533       30.286       13.620      872.188      917.271      185.515        0.376        0.099       72.922       16.462        0.051      336.027        7.052      861.204
01/09/2015  22:34:00       16.079       58.294        0.945       24.373       29.305       23.915      594.029      858.759      571.946        0.284        0.101       60.471       20.571        0.116      336.074        7.130      861.194
01/09/2015  22:35:00       -1.115       54.837       -3.666       17.066       20.242       13.211      291.241      409.752      174.518        0.195        0.044       54.848       12.062        0.048      336.007        7.018      861.187
01/09/2015  22:36:00       41.771       37.168        1.303       26.858       26.246       16.568      721.338      688.828      274.501        0.241        0.084       55.913       15.776        0.080      335.914        6.863      861.179
01/09/2015  22:37:00       19.370       43.399       -2.198       16.691       24.490       14.431      278.588      599.774      208.256        0.167        0.054       47.526       11.872        0.062      335.858        6.771      861.179
01/09/2015  22:38:00       19.721       26.103       -5.277       15.249        9.439        8.220      232.536       89.102       67.571        0.074        0.019       32.715        7.198        0.048      335.857        6.770      861.190
01/09/2015  22:39:00       40.061        2.243        5.182       23.627       17.228       15.831      558.226      296.813      250.617        0.137        0.055       40.124        9.208        0.053      335.904        6.847      861.189
01/09/2015  22:40:00       55.812      -23.396        5.819       22.338       30.095       15.268      498.976      905.719      233.119        0.267        0.082       60.518        9.111        0.023      336.051        7.093      861.185
01/09/2015  22:41:00       12.520      -15.014       22.906       23.223       41.802       16.445      539.310     1747.447      270.438        0.173        0.128       19.549       23.492        1.444      335.989        6.990      861.185
01/09/2015  22:42:00        8.832        4.657       21.281       10.195       13.039        8.985      103.935      170.005       80.735        0.045        0.018        9.984        7.923        0.630      335.767        6.620      861.190
01/09/2015  22:43:00       22.356       -6.086        8.027       14.194        9.104       12.228      201.479       82.889      149.522        0.052        0.022       23.170        7.452        0.103      335.847        6.753      861.187
01/09/2015  22:44:00        0.985       12.866       29.066       13.686       19.404       10.393      187.311      376.506      108.006        0.084        0.034       12.904        9.869        0.585      335.923        6.880      861.188
01/09/2015  22:45:00       25.398      -33.986        0.916       19.034       22.056       14.487      362.298      486.449      209.863        0.143        0.053       42.427       11.207        0.070      335.973        6.962      861.199
01/09/2015  22:46:00       36.497      -48.823       -4.727       20.385       13.017       10.856      415.553      169.446      117.853        0.222        0.035       60.957        5.902        0.009      335.989        6.989      861.201
01/09/2015  22:47:00        4.809      -70.649        0.382       19.640       19.456       19.030      385.737      378.536      362.146        0.307        0.056       70.813       13.759        0.038      336.042        7.078      861.200
01/09/2015  22:48:00      -24.045      -48.892      -12.079       16.140       18.537        9.942      260.488      343.616       98.847        0.191        0.035       54.484        8.904        0.027      336.086        7.151      861.190
01/09/2015  22:49:00      -15.491      -10.518        3.743       13.492       11.462        9.420      182.028      131.387       88.736        0.038        0.020       18.725        9.485        0.257      335.936        6.901      861.177
01/09/2015  22:50:00      -13.994        3.518       -2.095       10.773        5.413        6.559      116.056       29.303       43.026        0.020        0.009       14.429        5.687        0.155      335.884        6.813      861.159
01/09/2015  22:51:00       -9.037       -5.910       -0.079       23.919       25.619       13.011      572.127      656.337      169.288        0.076        0.070       10.798       16.243        2.263      335.890        6.825      861.148
01/09/2015  22:52:00      -17.463       -9.248       22.753       20.241       13.070        9.648      409.710      170.817       93.076        0.079        0.034       19.760        9.302        0.222      335.839        6.741      861.145
01/09/2015  22:53:00       -6.723      -21.629        5.771       29.284       17.097       17.834      857.555      292.324      318.057        0.101        0.073       22.649       11.595        0.262      335.836        6.734      861.145
01/09/2015  22:54:00      -21.893      -11.623       -0.278       17.929       12.736       14.231      321.433      162.197      202.518        0.065        0.034       24.787       12.078        0.237      335.543        6.246      861.149
01/09/2015  22:55:00      -15.080      -20.568        5.056       22.206       17.379       14.838      493.088      302.026      220.176        0.085        0.051       25.503       12.358        0.235      335.598        6.339      861.167
01/09/2015  22:56:00        5.259      -12.251        5.914       19.957       20.608       16.829      398.298      424.673      283.214        0.066        0.055       13.332       12.828        0.926      335.688        6.488      861.188
01/09/2015  22:57:00      -63.741      -72.409        6.012       57.533       38.768       30.658     3309.995     1502.920      939.892        0.755        0.288       96.467       32.144        0.111      335.683        6.480      861.199
01/09/2015  22:58:00      -13.416      -30.663        3.417       31.351       24.693       18.705      982.889      609.744      349.861        0.154        0.097       33.470       14.098        0.177      335.683        6.480      861.214
01/09/2015  22:59:00      -82.612      -87.864        4.992       58.668       46.327       29.981     3441.876     2146.154      898.845        1.053        0.324      120.602       30.484        0.064      335.592        6.329      861.225
01/09/2015  23:00:00     -127.731     -117.685        1.618       45.730       45.464       24.753     2091.230     2066.984      612.717        1.747        0.239      173.681       21.501        0.015      335.493        6.163      861.236
01/09/2015  23:01:00      -63.429      -53.160        7.483       44.082       36.191       23.653     1943.228     1309.798      559.449        0.536        0.191       82.760       17.525        0.045      335.529        6.225      861.247
01/09/2015  23:02:00       -5.983      -20.985        4.169       36.211       26.724       22.625     1311.247      714.172      511.880        0.151        0.127       21.821       20.921        0.919      335.549        6.257      861.248
01/09/2015  23:03:00       -3.632       -7.592       12.198       16.460       17.058       11.914      270.931      290.963      141.936        0.046        0.035        8.416        9.764        1.346      335.585        6.317      861.251
01/09/2015  23:04:00      -16.645        0.793        9.648       16.724       11.251       12.121      279.704      126.576      146.916        0.046        0.028       16.664        5.096        0.094      335.557        6.270      861.254
01/09/2015  23:05:00       -9.461        8.736        8.165       12.135       13.031       12.867      147.251      169.818      165.548        0.036        0.024       12.877        8.699        0.456      335.539        6.239      861.266
01/09/2015  23:06:00      -40.511      -14.109       -1.291       17.467       22.396       11.309      305.098      501.576      127.883        0.139        0.047       42.898        8.385        0.038      335.523        6.214      861.278
01/09/2015  23:07:00       -2.236       -5.503        6.005       10.783       15.663        9.786      116.277      245.323       95.757        0.026        0.023        5.940        5.717        0.926      335.547        6.254      861.276
01/09/2015  23:08:00      -54.812      -45.174       -1.902       20.106       24.269       10.856      404.254      588.977      117.849        0.308        0.056       71.028        8.795        0.015      335.483        6.146      861.267
01/09/2015  23:09:00      -25.938      -20.374       -0.004       25.577       22.694       11.476      654.202      515.025      131.690        0.119        0.065       32.983        8.838        0.072      335.471        6.127      861.248
01/09/2015  23:10:00      -17.198       -9.780       11.030       24.146       19.352       14.068      583.006      374.518      197.905        0.083        0.058       19.784       13.941        0.497      335.553        6.263      861.234
01/09/2015  23:11:00      -19.950      -13.683        9.593       28.349       22.569       15.003      803.673      509.367      225.083        0.111        0.077       24.191       12.492        0.267      335.500        6.173      861.231
01/09/2015  23:12:00      -12.643      -14.700        3.992       31.188       26.857       19.085      972.698      721.312      364.231        0.122        0.103       19.389       21.314        1.209      335.526        6.217      861.234
01/09/2015  23:13:00      -18.169       -8.479        2.997       24.067       13.084       14.929      579.239      171.198      222.879        0.069        0.049       20.050        7.894        0.155      335.533        6.229      861.241
01/09/2015  23:14:00      -31.322      -20.847        4.198       33.791       21.732       12.469     1141.817      472.263      155.483        0.160        0.088       37.625       14.118        0.141      335.456        6.099      861.236
01/09/2015  23:15:00      -13.014       -8.792        3.366       14.061       14.967       10.092      197.724      223.996      101.854        0.039        0.026       15.705        9.086        0.335      335.420        6.042      861.219
01/09/2015  23:16:00      -40.714       -8.988        1.139       14.402       18.374        9.577      207.427      337.605       91.718        0.119        0.032       41.694        4.309        0.011      335.440        6.075      861.200
01/09/2015  23:17:00      -38.682       -7.831        6.368       30.062       21.115       17.208      903.695      445.829      296.126        0.162        0.082       39.467       15.230        0.149      335.411        6.026      861.198
01/09/2015  23:18:00      -16.566        3.766        7.138       15.970       16.004       11.281      255.025      256.137      127.270        0.049        0.032       16.989        9.674        0.324      335.404        6.015      861.206
01/09/2015  23:19:00      -57.751       -5.666       -6.698       27.047       17.619       13.879      731.518      310.444      192.619        0.232        0.062       58.028       12.705        0.048      335.311        5.859      861.211
01/09/2015  23:20:00      -65.963       -4.841        3.414       29.572       23.983       14.425      874.502      575.201      208.094        0.302        0.083       66.140       14.316        0.047      335.283        5.813      861.216
01/09/2015  23:21:00      -90.783      -21.565        0.901       35.765       25.305       18.213     1279.125      640.349      331.704        0.548        0.113       93.309       17.133        0.034      335.290        5.824      861.216
01/09/2015  23:22:00     -118.438      -14.095       -4.991       33.591       32.540       22.175     1128.387     1058.869      491.734        0.846        0.134      119.273       21.396        0.032      335.316        5.868      861.203
01/09/2015  23:23:00     -102.389      -13.745       -1.460       34.206       28.164       20.743     1170.044      793.206      430.281        0.653        0.120      103.307       16.294        0.025      335.270        5.792      861.185
01/09/2015  23:24:00      -95.956       17.349       -2.203       36.151       29.965       18.280     1306.914      897.895      334.147        0.603        0.127       97.512       21.300        0.048      335.243        5.745      861.172
01/09/2015  23:25:00      -87.610       55.480      -14.718       26.158       36.633       22.097      684.242     1342.003      488.277        0.674        0.126      103.699       20.647        0.040      335.239        5.738      861.164
01/09/2015  23:26:00      -75.528        8.698      -11.408       36.353       30.289       19.894     1321.518      917.393      395.788        0.427        0.132       76.027       17.482        0.053      335.228        5.719      861.158
01/09/2015  23:27:00     -107.278       -1.473      -11.272       33.838       30.206       23.171     1144.987      912.388      536.883        0.712        0.130      107.289       17.106        0.025      335.210        5.690      861.154
01/09/2015  23:28:00     -145.115      -20.130      -14.135       43.606       33.607       25.226     1901.520     1129.410      636.366        1.266        0.183      146.504       24.271        0.027      335.187        5.652      861.141
01/09/2015  23:29:00     -138.126        6.603       -8.576       36.768       45.127       25.589     1351.894     2036.403      654.786        1.162        0.202      138.284       19.975        0.021      335.142        5.581      861.124
01/09/2015  23:30:00     -112.974       23.735      -10.713       40.205       33.089       21.080     1616.443     1094.882      444.354        0.830        0.158      115.441       18.933        0.027      335.155        5.602      861.114
01/09/2015  23:31:00     -100.667       26.612      -11.369       41.655       34.691       27.210     1735.106     1203.482      740.369        0.732        0.184      104.125       20.907        0.040      335.210        5.690      861.113
01/09/2015  23:32:00      -62.278        5.058      -10.904       41.220       29.868       18.704     1699.103      892.068      349.857        0.348        0.147       62.483       18.601        0.089      335.214        5.698      861.111
01/09/2015  23:33:00     -105.210        1.887       -7.657       39.921       27.447       23.402     1593.669      753.352      547.653        0.701        0.145      105.227       23.559        0.050      335.187        5.653      861.111
01/09/2015  23:34:00     -115.057       17.414      -14.935       52.235       25.526       23.459     2728.529      651.598      550.323        0.885        0.197      116.367       22.581        0.038      335.173        5.630      861.118
01/09/2015  23:35:00     -113.503       23.680      -15.251       30.161       35.602       19.301      909.714     1267.513      372.532        0.811        0.127      115.947        9.133        0.006      335.132        5.564      861.116
01/09/2015  23:36:00      -95.023        9.232      -11.700       29.754       46.020       20.264      885.298     2117.795      410.634        0.633        0.171       95.471        9.770        0.010      335.097        5.506      861.107
01/09/2015  23:37:00     -141.865      -36.116      -13.177       55.471       35.781       27.152     3077.048     1280.315      737.218        1.335        0.255      146.390       18.849        0.017      335.060        5.444      861.098
01/09/2015  23:38:00      -86.224      -17.435       -3.181       40.347       37.768       24.836     1627.891     1426.435      616.819        0.571        0.184       87.969       20.794        0.056      335.042        5.415      861.084
01/09/2015  23:39:00     -157.997       -6.129       -8.037       52.415       48.067       31.937     2747.383     2310.433     1019.945        1.557        0.304      158.116       34.982        0.049      335.062        5.445      861.075
01/09/2015  23:40:00     -138.606       -7.377      -14.488       36.342       31.466       22.807     1320.734      990.084      520.180        1.115        0.142      138.802       21.549        0.024      335.070        5.462      861.058
01/09/2015  23:41:00     -105.455      -15.954      -11.791       43.529       37.628       24.932     1894.779     1415.898      621.618        0.772        0.197      106.656       25.596        0.058      335.079        5.477      861.058
01/09/2015  23:42:00     -135.562      -23.495      -11.107       40.734       41.663       24.652     1659.299     1735.836      607.708        1.153        0.200      137.583       26.302        0.037      335.082        5.483      861.062
01/09/2015  23:43:00     -149.636      -28.945      -13.753       27.074       42.086       21.386      733.021     1771.212      457.367        1.319        0.148      152.409       12.849        0.007      335.113        5.532      861.058
01/09/2015  23:44:00     -137.836      -25.831      -14.799       38.230       25.249       17.827     1461.513      637.536      317.802        1.115        0.121      140.236       18.928        0.018      335.142        5.580      861.046
01/09/2015  23:45:00      -98.812      -29.611       -7.640       34.467       27.032       18.042     1187.976      730.751      325.518        0.647        0.112      103.154       16.235        0.025      335.170        5.625      861.033
01/09/2015  23:46:00     -104.922      -25.056      -10.629       32.080       20.326       18.324     1029.121      413.158      335.758        0.676        0.089      107.873       16.526        0.023      335.191        5.660      861.030
01/09/2015  23:47:00      -80.584      -41.426       -9.982       22.069       16.297       19.304      487.052      265.608      372.634        0.472        0.056       90.609       15.496        0.029      335.204        5.681      861.030
01/09/2015  23:48:00      -67.486      -22.074       -2.292       18.316       20.857       11.379      335.458      435.011      129.489        0.297        0.045       71.004        6.891        0.009      335.221        5.710      861.013
01/09/2015  23:49:00      -86.096      -51.239      -12.924       13.457       16.761       13.571      181.083      280.924      184.183        0.543        0.032      100.189       10.402        0.011      335.251        5.760      860.994
01/09/2015  23:50:00      -77.754      -32.888       -9.620       16.799       21.846       11.328      282.215      477.265      128.332        0.405        0.044       84.423        9.785        0.013      335.238        5.737      860.978
01/09/2015  23:51:00      -80.756      -33.533      -10.067       16.591       16.372       11.555      275.269      268.045      133.510        0.421        0.034       87.441        8.397        0.009      335.261        5.775      860.967
01/09/2015  23:52:00      -56.156      -35.939       -6.732       30.354       16.636       13.611      921.386      276.749      185.258        0.294        0.069       66.671       14.140        0.045      335.286        5.817      860.960
01/09/2015  23:53:00      -75.478      -38.657       -0.142       18.502       19.903       12.828      342.336      396.119      164.545        0.405        0.045       84.802       10.787        0.016      335.260        5.775      860.964
01/09/2015  23:54:00      -76.330      -26.695       -4.805       22.496       17.188       15.207      506.069      295.434      231.264        0.380        0.052       80.863       11.910        0.022      335.278        5.805      860.963
01/09/2015  23:55:00      -65.109      -26.102       -1.112       19.033       19.888       11.117      362.273      395.547      123.586        0.290        0.044       70.146        7.476        0.011      335.271        5.792      860.946
01/09/2015  23:56:00      -80.822       -3.417       -6.788       28.826       22.587       16.435      830.943      510.181      270.100        0.410        0.081       80.894       15.226        0.035      335.280        5.809      860.934
01/09/2015  23:57:00      -95.325      -10.651       -9.192       16.886       17.767       11.684      285.128      315.684      136.512        0.501        0.037       95.918        7.983        0.007      335.326        5.884      860.923
01/09/2015  23:58:00      -76.509       -7.888       -3.146       28.064       21.691       19.312      787.598      470.493      372.962        0.378        0.082       76.914       18.322        0.057      335.331        5.892      860.920
01/09/2015  23:59:00      -87.274       -7.092      -12.077       35.916       26.115       17.362     1289.990      681.998      301.439        0.504        0.114       87.562       19.884        0.052      335.296        5.835      860.915
